     2              OBSERVATION DATA    GPS                 RINEX VERSION / TYPE
teqc 2000Jul20 Karen Wendt 20040426 20:17:26UTC             PGM / RUN BY / DATE
                                                            COMMENT
L2: 1 -> 1; 150 -> 5; 250 -> 9                              COMMENT
L2: 1 -> 1; 150 -> 5; 250 -> 9                              COMMENT
L2: 1 -> 1; 150 -> 5; 250 -> 9                              COMMENT
L2: 1 -> 1; 150 -> 5; 250 -> 9                              COMMENT
L2: 1 -> 1; 150 -> 5; 250 -> 9                              COMMENT
L2: 1 -> 1; 150 -> 5; 250 -> 9                              COMMENT
L2: 1 -> 1; 150 -> 5; 250 -> 9                              COMMENT
L2: 1 -> 1; 150 -> 5; 250 -> 9                              COMMENT
L2: 1 -> 1; 150 -> 5; 250 -> 9                              COMMENT
L2: 1 -> 1; 150 -> 5; 250 -> 9                              COMMENT
L2: 1 -> 1; 150 -> 5; 250 -> 9                              COMMENT
L2: 1 -> 1; 150 -> 5; 250 -> 9                              COMMENT
L2: 1 -> 1; 150 -> 5; 250 -> 9                              COMMENT
L2: 1 -> 1; 150 -> 5; 250 -> 9                              COMMENT
Original Marker Name: law1 LAPW1_USGS                       COMMENT
Campaign Name: USGS Landers 2004                            COMMENT
4-Character Station Name: LAW1                              COMMENT
6-Character Antenna Code: DMRCHT                            COMMENT
Vertical Measurement Point: BCR                             COMMENT
Vertical Offset to Rinex Ref. Point: 0.0348                 COMMENT
Radial Measurement Point: ECF                               COMMENT
Radial Offset to Rinex Ref. Point: 0.1897                   COMMENT
Antenna Height from Field Measurement: 1.2210 m             COMMENT
Additional Antenna Identification Info.:                    COMMENT
Turborogue and Ashtech Choke Ring                           COMMENT
Original XYZ: -2354280.1024 -4703883.5585 3596697.3337      COMMENT
New XYZ position is based on association with SCEC monument COMMENT
E1F2J6T9+0011. Position of that monument is believed to be  COMMENT
valid to within 1 m horizontally; vertical accuracy         COMMENT
should be no worse than 3-times this value.                 COMMENT
                                                            COMMENT
Revised Rinex header created by UCSD GPS archive for        COMMENT
GSAC on 20-Apr-2005 (2005:110) 16:31:50 GMT                 COMMENT
For assistance contact dagnew@ucsd.edu                      COMMENT
or anderson@python.ucsd.edu                                 COMMENT
                                                            COMMENT
LAPW1                                                       MARKER NAME
CHS US GEOLOGICAL SURVEY                                    OBSERVER / AGENCY
LP00108.707 ASHTECH Z-XII3 CD00                             REC # / TYPE / VERS
CR14341 DORNE-MARGOL. TYPE T                                ANT # / TYPE
 -2354302.0000 -4703862.0000  3596685.0000                  APPROX POSITION XYZ
        1.1714        0.0000        0.0000                  ANTENNA: DELTA H/E/N
     1     1     0                                          WAVELENGTH FACT L1/2
     5    C1    L1    L2    P1    P2                        # / TYPES OF OBSERV
    30                                                      INTERVAL
  2004     4    21     0     1    0.000000                  TIME OF FIRST OBS
  2004     4    21    23    59   30.000000                  TIME OF LAST OBS
                                                            END OF HEADER
 04  4 21  0  1  0.0000000  0  9G31G15G11G 3G14G22G25G18G19
  23242311.373   -10318776.73749  -8020856.33746  23242310.673    23242318.933
  20967437.695    -3286152.86249  -2552174.26747  20967436.835    20967444.073
  24018686.864    -7398520.93349  -5757014.40845  24018686.420    24018692.778
  23646079.866     1789985.39849   1410033.03045  23646079.300    23646089.132
  20319057.837   -22412686.66749 -17442203.63948  20319057.239    20319062.068
  21575987.465      981220.72349    768669.12347  21575987.095    21575991.060
  22810254.022   -13081080.80849 -10176400.60946  22810253.730    22810262.143
  23773693.595    18006439.68149  14025976.23945  23773693.004    23773700.452
  22675425.327   -15745769.34649 -12248835.56646  22675424.170    22675430.233
 04  4 21  0  1 30.0000000  0  9G31G15G11G 3G14G22G25G18G19
  23249887.298   -10278965.21749  -7989834.42246  23249886.609    23249894.837
  20980977.564    -3215000.52249  -2496730.92847  20980976.702    20980983.940
  24000645.633    -7493328.17349  -5830890.13445  24000645.110    24000651.496
  23660799.108     1867335.07949   1470305.38645  23660798.550    23660808.375
  20322738.777   -22393343.37249 -17427130.94548  20322738.141    20322742.973
  21583102.899     1018612.51049    797805.56147  21583102.539    21583106.479
  22792265.727   -13175609.49149 -10250059.19646  22792265.443    22792273.811
  23786831.507    18075479.91749  14079773.71145  23786830.949    23786838.425
  22682344.628   -15709408.26949 -12220502.30846  22682343.500    22682349.567
 04  4 21  0  2  0.0000000  0  9G31G15G11G 3G14G22G25G18G19
  23257545.315   -10238722.34149  -7958476.37646  23257544.627    23257552.862
  20994602.579    -3143400.92849  -2440939.07347  20994601.710    20994608.928
  23982638.054    -7587957.89349  -5904627.51945  23982637.626    23982643.997
  23675544.162     1944820.42149   1530683.45245  23675543.612    23675553.423
  20326498.502   -22373585.86449 -17411735.48448  20326497.888    20326502.691
  21590246.772     1056153.77749    827058.48247  21590246.403    21590250.320
  22774314.002   -13269946.24749 -10323568.22246  22774313.641    22774322.005
  23799987.410    18144614.01949  14133644.36945  23799986.892    23799994.284
  22689353.287   -15672577.93949 -12191803.38846  22689352.119    22689358.239
 04  4 21  0  2 30.0000000  0  9G31G15G11G 3G14G22G25G18G19
  23265284.931   -10198050.54849  -7926784.11446  23265284.209    23265292.476
  21008312.299    -3071355.77649  -2384800.03347  21008311.439    21008318.686
  23964664.705    -7682407.99049  -5978224.93945  23964664.388    23964670.816
  23690314.467     2022438.58549   1591165.00945  23690313.936    23690323.845
  20330336.708   -22353415.92149 -17396018.64348  20330336.101    20330340.909
  21597419.140     1093844.63349    856427.96247  21597418.778    21597422.668
  22756399.268   -13364088.38049 -10396925.60146  22756398.933    22756407.244
  23813161.194    18213841.59849  14187587.88045  23813160.692    23813167.815
  22696450.810   -15635280.40449 -12162740.42346  22696449.605    22696455.778
 04  4 21  0  3  0.0000000  0  9G31G15G11G 3G14G22G25G18G19
  23273105.651   -10156952.42949  -7894759.66946  23273104.934    23273113.234
  21022106.566    -2998866.62549  -2328315.02047  21022105.699    21022112.971
  23946725.921    -7776676.37049  -6051680.76045  23946725.597    23946732.093
  23705109.424     2100186.17749   1651747.43845  23705108.894    23705118.822
  20334253.052   -22332835.40949 -17379981.88148  20334252.430    20334257.261
  21604619.961     1131685.17949    885914.08347  21604619.613    21604623.490
  22738522.071   -13458033.25449 -10470129.28246  22738521.689    22738529.993
  23826352.576    18283162.45949  14241604.01945  23826352.069    23826359.398
  22703636.726   -15597518.17349 -12133315.36146  22703635.580    22703641.728
 04  4 21  0  3 30.0000000  0  9G31G15G11G 3G14G22G25G18G19
  23281007.090   -10115430.06849  -7862404.61946  23281006.404    23281014.708
  21035985.074    -2925934.53849  -2271484.86747  21035984.231    21035991.523
  23928822.284    -7870760.39749  -6124992.94845  23928821.892    23928828.367
  23719928.597     2178060.53149   1712428.62645  23719928.025    23719937.956
  20338247.262   -22311845.61749 -17363626.19648  20338246.625    20338251.493
  21611849.344     1169675.65049    915517.02947  21611849.008    21611852.884
  22720683.058   -13551777.72649 -10543176.80046  22720682.639    22720690.880
  23839561.823    18352577.27849  14295693.42045  23839561.264    23839568.638
  22710910.787   -15559292.98049 -12103529.53746  22710909.644    22710915.785
 04  4 21  0  4  0.0000000  0  9G31G15G11G 3G14G22G25G18G19
  23288988.935   -10073485.64949  -7829720.69846  23288988.228    23288996.460
  21049947.638    -2852560.82349  -2214310.58347  21049946.775    21049954.092
  23910954.105    -7964657.69649  -6198159.59945  23910953.681    23910960.283
  23734771.265     2256059.01949   1773206.53545  23734770.710    23734780.676
  20342319.098   -22290448.17949 -17346952.86648  20342318.456    20342323.311
  21619107.274     1207816.31049    945237.00747  21619106.924    21619110.816
  22702882.648   -13645319.19249 -10616066.14746  22702882.222    22702890.351
  23852789.111    18422085.96649  14349855.91245  23852788.558    23852796.063
  22718272.578   -15520606.99849 -12073384.66546  22718271.408    22718277.551
 04  4 21  0  4 30.0000000  0  9G31G15G11G 3G14G22G25G18G19
  23297050.658   -10031121.66349  -7796709.84446  23297049.958    23297058.167
  21063993.925    -2778747.16649  -2156793.48847  21063993.071    21064000.370
  23893122.025    -8058365.89049  -6271178.91245  23893121.636    23893128.190
  23749636.991     2334178.59349   1834078.79645  23749636.449    23749646.450
  20346468.098   -22268644.82649 -17329963.24248  20346467.454    20346472.322
  21626393.858     1246107.53349    975074.30047  21626393.499    21626397.432
  22685121.322   -13738654.83849 -10688795.10746  22685120.937    22685129.075
  23866034.086    18491688.64049  14404091.73945  23866033.538    23866040.888
  22725721.612   -15481462.36049 -12042882.39846  22725720.441    22725726.551
 04  4 21  0  5  0.0000000  0  9G31G15G11G 3G14G22G25G18G19
  23305191.707    -9988340.58849  -7763373.99346  23305190.972    23305199.218
  21078123.651    -2704495.11449  -2098934.78747  21078122.799    21078130.123
  23875326.330    -8151883.16449  -6344049.45245  23875325.805    23875332.362
  23764525.203     2412416.12049   1895042.97545  23764524.682    23764534.613
  20350694.052   -22246437.33849 -17312658.70448  20350693.408    20350698.295
  21633709.092     1284549.33649   1005028.93247  21633708.725    21633712.696
  22667399.754   -13831781.87249 -10761361.51546  22667399.366    22667407.495
  23879296.894    18561385.71149  14458400.97445  23879296.327    23879304.036
  22733257.529   -15441861.17349 -12012024.37446  22733256.374    22733262.461
 04  4 21  0  5 30.0000000  0  9G31G15G11G 3G14G22G25G18G19
  23313411.641    -9945144.63949  -7729714.86046  23313410.911    23313419.137
  21092336.515    -2629806.19149  -2040735.66547  21092335.650    21092342.976
  23857567.404    -8245206.83349  -6416769.15045  23857566.811    23857573.449
  23779435.396     2490768.96749   1956097.02145  23779434.819    23779444.786
  20354996.610   -22223827.10449 -17295040.34048  20354995.970    20355000.870
  21641053.024     1323141.92749   1035101.06147  21641052.641    21641056.634
  22649718.401   -13924697.77049 -10833763.39746  22649717.997    22649726.051
  23892578.058    18631177.24349  14512783.95845  23892577.393    23892584.876
  22740879.882   -15401805.79649 -11980812.43746  22740878.687    22740884.816
 04  4 21  0  6  0.0000000  0  9G31G15G11G 3G14G22G25G18G19
  23321710.049    -9901536.20149  -7695734.31446  23321709.346    23321717.531
  21106632.237    -2554681.86849  -1982197.27247  21106631.373    21106638.687
  23839845.732    -8338334.79549  -6489336.31745  23839845.079    23839851.711
  23794366.846     2569233.91549   2017238.39845  23794366.303    23794376.309
  20359375.505   -22200815.85849 -17277109.49948  20359374.878    20359379.789
  21648425.766     1361885.71649   1065291.00447  21648425.397    21648429.386
  22632077.672   -14017399.68349 -10905998.53946  22632077.289    22632085.302
  23905876.911    18701063.18249  14567240.39045  23905876.276    23905883.927
  22748588.195   -15361298.55849 -11949248.39946  22748586.981    22748593.141
 04  4 21  0  6 30.0000000  0  9G31G15G11G 3G14G22G25G18G19
  23330086.558    -9857517.42849  -7661434.03546  23330085.858    23330094.151
  21121010.590    -2479123.28449  -1923320.49947  21121009.709    21121017.031
  23822161.706    -8431264.29149  -6561748.85145  23822161.121    23822167.849
  23809319.160     2647808.47849   2078465.19145  23809318.582    23809328.641
  20363830.414   -22177405.11849 -17258867.36648  20363829.784    20363834.689
  21655827.310     1400781.03449   1095599.02147  21655826.943    21655830.929
  22614478.249   -14109884.65049 -10978064.64546  22614477.893    22614485.893
  23919193.825    18771044.15849  14621770.95345  23919193.247    23919200.830
  22756382.165   -15320340.98349 -11917333.45946  22756380.995    22756387.153
 04  4 21  0  7  0.0000000  0  9G31G15G11G 3G14G22G25G18G19
  23338540.552    -9813090.99249  -7626816.07746  23338539.895    23338548.184
  21135471.287    -2403132.07449  -1864106.61147  21135470.398    21135477.727
  23804515.941    -8523993.19749  -6634005.08145  23804515.437    23804522.083
  23824291.687     2726489.38949   2139774.85145  23824291.206    23824301.242
  20368360.973   -22153596.80549 -17240315.43048  20368360.338    20368365.262
  21663257.759     1439828.02749   1126025.22647  21663257.369    21663261.363
  22596920.635   -14202149.94649 -11049959.57346  22596920.327    22596928.310
  23932528.856    18841119.66149  14676375.12345  23932528.286    23932536.033
  22764261.332   -15278935.79549 -11885069.72346  22764260.151    22764266.323
 04  4 21  0  7 30.0000000  0  9G31G15G11G 3G14G22G25G18G19
  23347071.790    -9768259.30249  -7591882.34646  23347071.149    23347079.425
  21150013.976    -2326709.82749  -1804556.85347  21150013.111    21150020.423
  23786908.757    -8616519.04349  -6706103.06245  23786908.287    23786914.941
  23839283.925     2805273.67549   2201165.07045  23839283.477    23839293.538
  20372966.889   -22129392.53549 -17221454.96148  20372966.259    20372971.167
  21670717.108     1479027.00049   1156569.85747  21670716.695    21670720.702
  22579405.428   -14294192.61749 -11121681.02346  22579405.123    22579413.038
  23945881.779    18911289.93849  14731053.16945  23945881.261    23945889.112
  22772225.240   -15237085.24749 -11852458.94846  22772224.097    22772230.231
 04  4 21  0  8  0.0000000  0  9G31G15G11G 3G14G22G25G18G19
  23355679.751    -9723024.66449  -7556634.62546  23355679.090    23355687.325
  21164638.356    -2249858.16949  -1744672.48847  21164637.506    21164644.830
  23769340.638    -8708839.54349  -6778041.05445  23769340.218    23769346.871
  23854295.427     2884158.72349   2262633.78145  23854294.945    23854304.953
  20377647.827   -22104793.95249 -17202287.23848  20377647.198    20377652.118
  21678205.333     1518377.96949   1187232.92647  21678204.951    21678208.942
  22561933.088   -14386010.13249 -11193227.02946  22561932.759    22561940.646
  23959253.035    18981555.28949  14785805.25145  23959252.426    23959260.309
  22780273.512   -15194791.49749 -11819502.83146  22780272.355    22780278.520
 04  4 21  0  8 30.0000000  0  9G31G15G11G 3G14G22G25G18G19
  23364363.884    -9677389.68149  -7521074.95246  23364363.218    23364371.413
  21179344.127    -2172578.92949  -1684454.94847  21179343.306    21179350.626
  23751811.978    -8800952.68049  -6849817.46045  23751811.673    23751818.285
  23869325.516     2963141.52649   2324178.70045  23869325.010    23869335.025
  20382403.514   -22079802.75449 -17182813.58148  20382402.876    20382407.788
  21685722.593     1557881.25649   1218014.68647  21685722.207    21685726.180
  22544504.069   -14477599.74849 -11264595.44746  22544503.725    22544511.596
  23972642.251    19051916.05849  14840631.79245  23972641.716    23972649.659
  22788405.636   -15152057.01849 -11786203.28546  22788404.486    22788410.668
 04  4 21  0  9  0.0000000  0  9G31G15G11G 3G14G22G25G18G19
  23373123.659    -9631356.86449  -7485205.28246  23373122.954    23373131.256
  21194130.964    -2094873.83849  -1623905.57447  21194130.109    21194137.453
  23734323.416    -8892855.82249  -6921430.21445  23734323.000    23734329.570
  23884373.611     3042219.27549   2385797.57245  23884373.063    23884383.122
  20387233.543   -22054420.74949 -17163035.39848  20387232.922    20387237.817
  21693268.863     1597537.29349   1248915.47247  21693268.483    21693272.475
  22527118.978   -14568958.54849 -11335784.00846  22527118.611    22527126.491
  23986049.708    19122372.11849  14895532.48345  23986049.144    23986057.183
  22796621.134   -15108884.20049 -11752562.17746  22796620.008    22796626.218
 04  4 21  0  9 30.0000000  0  9G31G15G11G 3G14G22G25G18G19
  23381958.564    -9584928.77249  -7449027.59646  23381957.957    23381966.211
  21208998.558    -2016744.34749  -1563025.49947  21208997.676    21209005.053
  23716875.081    -8984546.77249  -6992877.64845  23716874.680    23716881.309
  23899439.188     3121388.96049   2447488.09245  23899438.693    23899448.716
  20392137.596   -22028649.91449 -17142954.23348  20392136.947    20392141.841
  21700844.222     1637345.90349   1279935.14347  21700843.828    21700847.822
  22509778.333   -14660084.00949 -11406790.75646  22509777.955    22509785.750
  23999475.250    19192923.49449  14950507.51945  23999474.640    23999482.653
  22804919.651   -15065275.26849 -11718581.23746  22804918.513    22804924.769
 04  4 21  0 10  0.0000000  0  9G31G15G11G 3G14G22G25G18G19
  23390868.276    -9538108.00049  -7412543.94846  23390867.639    23390875.920
  21223946.613    -1938191.98149  -1501815.91147  21223945.738    21223953.116
  23699467.692    -9076023.11949  -7064157.86545  23699467.241    23699473.818
  23914521.713     3200647.49649   2509247.85145  23914521.211    23914531.240
  20397115.318   -22002491.73349 -17122571.23748  20397114.681    20397119.547
  21708448.656     1677307.26949   1311073.84447  21708448.274    21708452.233
  22492482.516   -14750973.49049 -11477613.61646  22492482.149    22492489.929
  24012918.942    19263570.13949  15005556.71945  24012918.352    24012926.475
  22813300.715   -15021232.61649 -11684262.35246  22813299.572    22813305.863
 04  4 21  0 10 30.0000000  0  9G31G15G11G 3G14G22G25G18G19
  23399852.316    -9490896.76549  -7375756.01546  23399851.699    23399859.948
  21238974.866    -1859218.21149  -1440277.94947  21238974.004    21238981.385
  23682101.598    -9167282.60949  -7135269.08345  23682101.042    23682107.640
  23929620.534     3279991.94849   2571074.53645  23929620.079    23929630.202
  20402166.435   -21975947.81749 -17101887.66548  20402165.814    20402170.679
  21716082.314     1717422.15549   1342332.17147  21716081.929    21716085.875
  22475232.194   -14841624.00249 -11548250.27546  22475231.841    22475239.582
  24026380.936    19334312.46449  15060680.56945  24026380.313    24026388.215
  22821763.955   -14976758.34549 -11649607.12746  22821762.782    22821769.077
 04  4 21  0 11  0.0000000  0  9G31G15G11G 3G14G22G25G18G19
  23408910.288    -9443297.51049  -7338665.75646  23408909.639    23408917.929
  21254082.943    -1779824.82849  -1378413.02047  21254082.085    21254089.479
  23664777.195    -9258322.76449  -7206209.39345  23664776.606    23664783.269
  23944735.213     3359419.57049   2632966.03345  23944734.725    23944744.904
  20407290.592   -21949020.19949 -17080905.10448  20407289.957    20407294.834
  21723745.108     1757690.44749   1373710.03547  21723744.714    21723748.665
  22458027.914   -14932032.87849 -11618698.64846  22458027.551    22458035.294
  24039861.015    19405150.54849  15115879.00545  24039860.471    24039868.233
  22830308.833   -14931855.09349 -11614617.62746  22830307.646    22830313.916
 04  4 21  0 11 30.0000000  0  9G31G15G11G 3G14G22G25G18G19
  23418041.602    -9395312.82049  -7301275.13346  23418040.957    23418049.217
  21269270.685    -1700013.25249  -1316222.22747  21269269.791    21269277.201
  23647494.837    -9349141.23249  -7276976.96245  23647494.371    23647501.013
  23959865.225     3438927.81349   2694920.34845  23959864.821    23959874.963
  20412487.521   -21921710.23049 -17059624.60648  20412486.889    20412491.779
  21731437.282     1798112.80449   1405207.95747  21731436.879    21731440.819
  22440870.158   -15022197.15149 -11688956.42446  22440869.799    22440877.497
  24053359.296    19476084.82149  15171152.35245  24053358.826    24053366.618
  22838934.865   -14886525.15649 -11579295.65746  22838933.705    22838939.957
 04  4 21  0 12  0.0000000  0  9G31G15G11G 3G14G22G25G18G19
  23427245.564    -9346945.51949  -7263586.39546  23427244.946    23427253.241
  21284537.535    -1619785.60349  -1253707.21747  21284536.642    21284544.049
  23630255.231    -9439735.83249  -7347570.09745  23630254.774    23630261.341
  23975009.959     3518513.28849   2756934.85745  23975009.527    23975019.768
  20417756.776   -21894020.08949 -17038047.86848  20417756.132    20417761.019
  21739158.741     1838689.11949   1436825.84147  21739158.344    21739162.247
  22423759.390   -15112114.54549 -11759021.82446  22423758.995    22423766.681
  24066876.069    19547115.09349  15226500.51845  24066875.648    24066883.380
  22847641.597   -14840771.02649 -11543643.14546  22847640.448    22847646.716
 04  4 21  0 12 30.0000000  0  9G31G15G11G 3G14G22G25G18G19
  23436522.016    -9298197.90249  -7225601.30446  23436521.244    23436529.632
  21299883.301    -1539143.29549  -1190869.10247  21299882.418    21299889.816
  23613058.676    -9530103.95849  -7417986.72545  23613058.200    23613064.815
  23990168.984     3598173.70049   2819007.75145  23990168.502    23990178.850
  20423098.107   -21865951.15149 -17016175.96648  20423097.474    20423102.360
  21746909.540     1879419.81849   1468564.02547  21746909.138    21746913.042
  22406696.147   -15201782.15249 -11828892.59646  22406695.748    22406703.440
  24080411.171    19618241.48749  15281923.58645  24080410.708    24080418.457
  22856428.637   -14794595.04649 -11507661.91746  22856427.485    22856433.736
 04  4 21  0 13  0.0000000  0  9G31G15G11G 3G14G22G25G18G19
  23445870.249    -9249072.68749  -7187321.97946  23445869.542    23445877.916
  21315307.609    -1458088.12849  -1127709.28147  21315306.740    21315314.142
  23595905.636    -9620243.40949  -7488225.21945  23595905.245    23595911.736
  24005341.535     3677905.45949   2881136.24145  24005341.018    24005351.456
  20428511.094   -21837505.61949 -16994010.61248  20428510.457    20428515.331
  21754689.772     1920305.14849   1500422.70247  21754689.372    21754693.284
  22389680.897   -15291197.24949 -11898566.59446  22389680.517    22389688.242
  24093964.517    19689464.08349  15337421.68345  24093963.906    24093971.433
  22865295.456   -14747999.68849 -11471353.90346  22865294.366    22865300.639
 04  4 21  0 13 30.0000000  0  9G31G15G11G 3G14G22G25G18G19
  23455289.910    -9199572.38149  -7148750.37646  23455289.191    23455297.585
  21330810.177    -1376621.78849  -1064229.06647  21330809.298    21330816.738
  23578796.623    -9710151.77349  -7558283.62745  23578796.189    23578802.609
  24020527.200     3757705.99549   2943318.31345  24020526.625    24020537.209
  20433995.490   -21808684.95649 -16971552.95248  20433994.850    20433999.751
  21762499.437     1961345.30549   1532402.02347  21762499.065    21762502.950
  22372714.342   -15380356.97349 -11968041.60646  22372713.932    22372721.644
  24107536.043    19760783.40849  15392995.03145  24107535.500    24107543.249
  22874241.707   -14700987.20749 -11434720.84946  22874240.583    22874246.880
 04  4 21  0 14  0.0000000  0  9G31G15G11G 3G14G22G25G18G19
  23464780.473    -9149699.49549  -7109888.44446  23464779.761    23464788.143
  21346390.648    -1294745.94749  -1000429.76047  21346389.802    21346397.250
  23561732.114    -9799826.27449  -7628159.80245  23561731.623    23561737.950
  24035725.447     3837572.58749   3005551.87045  24035724.914    24035735.529
  20439550.906   -21779490.99149 -16948804.40748  20439550.284    20439555.181
  21770338.688     2002540.77649   1564502.36947  21770338.318    21770342.175
  22355796.681   -15469259.02149 -12037315.82546  22355796.324    22355804.058
  24121126.010    19832199.32449  15448643.77245  24121125.462    24121133.107
  22883266.808   -14653560.13549 -11397764.74946  22883265.695    22883271.996
 04  4 21  0 14 30.0000000  0  9G31G15G11G 3G14G22G25G18G19
  23474341.359    -9099456.87449  -7070738.42546  23474340.623    23474349.067
  21362048.750    -1212462.64149   -936312.94347  21362047.872    21362055.307
  23544712.350    -9889265.33349  -7697852.52145  23544711.856    23544718.202
  24050935.673     3917502.18049   3067834.52645  24050935.074    24050945.728
  20445177.033   -21749925.54949 -16925766.40048  20445176.389    20445181.310
  21778207.482     2043891.50249   1596723.69947  21778207.121    21778210.955
  22338928.612   -15557900.70549 -12106387.16946  22338928.272    22338936.003
  24134734.484    19903711.69649  15504367.57245  24134733.951    24134741.721
  22892370.361   -14605721.13249 -11360487.66246  22892369.183    22892375.490
 04  4 21  0 15  0.0000000  0  9G31G15G11G 3G14G22G25G18G19
  23483972.142    -9048846.85449  -7031302.10846  23483971.445    23483979.858
  21377784.022    -1129773.48149   -871879.87847  21377783.128    21377790.572
  23527737.970    -9978466.42249  -7767359.81745  23527737.506    23527743.732
  24066157.291     3997491.93749   3130164.06145  24066156.706    24066167.407
  20450873.495   -21719990.36449 -16902440.28148  20450872.865    20450877.781
  21786105.887     2085397.86049   1629066.30047  21786105.523    21786109.365
  22322110.714   -15646279.07749 -12175253.33646  22322110.365    22322118.057
  24148361.412    19975321.08049  15560166.99645  24148360.838    24148368.616
  22901551.825   -14557472.53949 -11322891.40846  22901550.626    22901556.933
 04  4 21  0 15 30.0000000  0  9G31G15G11G 3G14G22G25G18G19
  23493672.386    -8997872.18649  -6991581.66346  23493671.719    23493680.138
  21393596.234    -1046679.88349   -807131.67547  21393595.352    21393602.774
  23510809.345   -10067426.76149  -7836679.51645  23510808.906    23510815.082
  24081389.895     4077539.23749   3192538.41945  24081389.320    24081399.916
  20456640.059   -21689687.08449 -16878827.33948  20456639.423    20456644.313
  21794034.048     2127060.38249   1661530.58247  21794033.684    21794037.519
  22305343.434   -15734391.32849 -12243912.14446  22305343.072    22305350.736
  24162006.639    20047027.24049  15616041.85345  24162006.021    24162013.803
  22910810.754   -14508816.77249 -11284977.88046  22910809.566    22910815.870
 04  4 21  0 16  0.0000000  0  9G31G15G11G 3G14G22G25G18G19
  23503441.529    -8946535.24149  -6951578.91946  23503440.856    23503449.213
  21409485.014     -963183.94749   -742069.95347  21409484.132    21409491.588
  23493926.900   -10156144.13449  -7905809.88645  23493926.504    23493932.684
  24096632.852     4157641.08949   3254955.28445  24096632.378    24096642.878
  20462476.271   -21659017.50249 -16854928.96248  20462475.633    20462480.532
  21801991.925     2168879.19049   1694116.65147  21801991.555    21801995.405
  22288627.360   -15822234.68249 -12312361.41247  22288626.985    22288634.586
  24175670.374    20118830.60149  15671992.38345  24175669.771    24175677.753
  22920146.684   -14459756.40749 -11246749.07946  22920145.493    22920151.752
 04  4 21  0 16 30.0000000  0  9G31G15G11G 3G14G22G25G18G19
  23513279.039    -8894839.06049  -6911296.25046  23513278.356    23513286.661
  21425449.951     -879287.69249   -676696.29847  21425449.070    21425456.535
  23477091.248   -10244616.18249  -7974749.09546  23477090.838    23477096.969
  24111885.745     4237794.68549   3317412.48345  24111885.259    24111895.815
  20468381.814   -21627983.56649 -16830746.67848  20468381.185    20468386.087
  21809979.537     2210854.41549   1726824.60447  21809979.175    21809983.024
  22271962.891   -15909806.69149 -12380599.25547  22271962.512    22271970.078
  24189352.684    20190731.08449  15728018.68245  24189352.098    24189359.895
  22929559.055   -14410294.14649 -11208207.11446  22929557.917    22929564.147
 04  4 21  0 17  0.0000000  0  9G31G15G11G 3G14G22G25G18G19
  23523184.479    -8842786.22249  -6870735.66846  23523183.739    23523192.095
  21441490.772     -794992.80549   -611012.02147  21441489.895    21441497.349
  23460302.595   -10332840.74049  -8043495.44746  23460302.231    23460308.394
  24127147.847     4317996.98349   3379907.63645  24127147.313    24127158.025
  20474356.330   -21596587.21249 -16806281.99148  20474355.699    20474360.592
  21817996.977     2252986.32849   1759654.64847  21817996.605    21818000.492
  22255350.566   -15997104.70649 -12448623.60647  22255350.172    22255357.695
  24203053.375    20262728.79849  15784120.68745  24203052.915    24203060.796
  22939047.516   -14360432.36049 -11169353.82546  22939046.369    22939052.595
 04  4 21  0 17 30.0000000  0  9G31G15G11G 3G14G22G25G18G19
  23533157.172    -8790379.30149  -6829899.16146  23533156.425    23533164.871
  21457607.145     -710300.87649   -545018.35947  21457606.278    21457613.738
  23443561.668   -10420815.14949  -8112046.90046  23443561.290    23443567.416
  24142418.625     4398245.24749   3442438.59945  24142418.111    24142428.971
  20480399.498   -21564830.19449 -16781536.26148  20480398.875    20480403.788
  21826044.375     2295275.48449   1792607.21947  21826044.004    21826047.883
  22238790.882   -16084125.91349 -12516432.25547  22238790.496    22238797.993
  24216772.839    20334823.83949  15840298.53945  24216772.387    24216780.446
  22948611.438   -14310173.60349 -11130191.21846  22948610.298    22948616.582
 04  4 21  0 18  0.0000000  0  9G31G15G11G 3G14G22G25G18G19
  23543196.829    -8737620.79449  -6788788.70046  23543196.134    23543204.546
  21473798.787     -625213.61149   -478716.64147  21473797.919    21473805.386
  23426868.719   -10508537.10049  -8180401.62046  23426868.297    23426874.457
  24157697.664     4478536.78649   3505003.27645  24157697.164    24157708.107
  20486510.995   -21532714.13149 -16756510.75848  20486510.364    20486515.260
  21834121.721     2337722.27949   1825682.62947  21834121.312    21834125.244
  22222284.417   -16170867.57649 -12584023.06547  22222284.073    22222291.521
  24230510.682    20407016.41749  15896552.37545  24230509.997    24230518.211
  22958250.477   -14259520.39149 -11090721.23146  22958249.295    22958255.671
 04  4 21  0 18 30.0000000  0  9G31G15G11G 3G14G22G25G18G19
  23553302.770    -8684513.67649  -6747406.60446  23553302.078    23553310.653
  21490065.189     -539733.23249   -412108.59747  21490064.318    21490071.800
  23410224.273   -10596004.42449  -8248557.92746  23410223.829    23410229.941
  24172984.423     4558868.29649   3567599.09545  24172983.821    24172994.895
  20492690.367   -21500241.17849 -16731207.15848  20492689.746    20492694.627
  21842228.989     2380326.46949   1858880.67947  21842228.610    21842232.551
  22205831.573   -16257327.56049 -12651394.39847  22205831.193    22205838.625
  24244267.039    20479306.49949  15952882.24745  24244266.483    24244274.667
  22967963.989   -14208475.58749 -11050946.12446  22967962.830    22967969.218
 04  4 21  0 19  0.0000000  0  9G31G15G11G 3G14G22G25G18G19
  23563474.656    -8631060.66949  -6705754.99246  23563473.946    23563482.490
  21506406.092     -453861.53549   -345195.63547  21506405.205    21506412.713
  23393628.668   -10683214.97049  -8316514.13846  23393628.168    23393634.318
  24188278.292     4639237.03849   3630223.91445  24188277.644    24188288.550
  20498937.359   -21467413.10249 -16705626.84348  20498936.741    20498941.606
  21850366.379     2423088.51949   1892201.73947  21850365.986    21850369.938
  22189432.892   -16343503.18349 -12718544.14647  22189432.446    22189439.853
  24258042.133    20551694.20349  16009288.06045  24258041.477    24258049.962
  22977751.624   -14157041.69949 -11010867.83246  22977750.404    22977756.853
 04  4 21  0 19 30.0000000  0  9G31G15G11G 3G14G22G25G18G19
  23573711.865    -8577263.99149  -6663835.56246  23573711.199    23573719.691
  21522821.157     -367599.98249   -277978.89747  21522820.252    21522827.787
  23377082.392   -10770165.52949  -8384267.76146  23377081.893    23377088.111
  24203578.740     4719640.91149   3692876.11445  24203578.131    24203589.058
  20505251.674   -21434231.18549 -16679770.80348  20505251.030    20505255.930
  21858533.909     2466009.33549   1925646.51147  21858533.522    21858537.520
  22173088.924   -16429391.05449 -12785469.67347  22173088.470    22173095.848
  24271835.834    20624179.69749  16065770.25845  24271835.168    24271843.346
  22987612.877   -14105220.76949 -10970487.94546  22987611.638    22987618.073
 04  4 21  0 20  0.0000000  0  9G31G15G11G 3G14G22G25G18G19
  23584013.754    -8523127.03649  -6621650.98546  23584013.168    23584021.702
  21539309.919     -280951.18249   -210460.40147  21539309.006    21539316.560
  23360585.944   -10856854.67949  -8451817.70346  23360585.433    23360591.665
  24218885.221     4800076.28649   3755552.87345  24218884.605    24218895.581
  20511632.795   -21400698.05349 -16653641.09048  20511632.173    20511637.073
  21866731.603     2509088.46449   1959214.64547  21866731.237    21866735.247
  22156800.072   -16514989.17349 -12852169.41747  22156799.627    22156806.990
  24285648.010    20696762.99849  16122328.57545  24285647.207    24285655.829
  22997547.144   -14053016.19649 -10929809.12346  22997545.900    22997552.335
 04  4 21  0 20 30.0000000  0  9G31G15G11G 3G14G22G25G18G19
  23594380.162    -8468651.58749  -6579202.65245  23594379.531    23594388.014
  21555872.191     -193916.00949   -142640.83647  21555871.321    21555878.893
  23344139.878   -10943278.96849  -8519161.24746  23344139.349    23344145.622
  24234197.320     4880541.28749   3818252.72245  24234196.714    24234207.659
  20518080.644   -21366814.41249 -16627238.25448  20518080.009    20518084.917
  21874959.697     2552327.18249   1992907.12847  21874959.301    21874963.334
  22140567.025   -16600293.89649 -12918640.55247  22140566.615    22140573.983
  24299478.653    20769445.18049  16178963.78445  24299478.000    24299486.975
  23007554.084   -14000429.78349 -10888832.76246  23007552.823    23007559.295
 04  4 21  0 21  0.0000000  0  9G31G15G11G 3G14G22G25G18G19
  23604810.332    -8413840.92549  -6536493.10246  23604809.720    23604818.211
  21572507.491     -106497.11649    -74522.27747  21572506.604    21572514.209
  23327744.580   -11029436.62649  -8586297.05346  23327744.109    23327750.328
  24249514.389     4961032.53149   3880973.01745  24249513.820    24249524.804
  20524594.654   -21332582.95849 -16600564.39548  20524594.029    20524598.937
  21883218.017     2595725.06549   2026723.63447  21883217.624    21883221.692
  22124390.175   -16685303.41449 -12984881.65647  22124389.794    22124397.138
  24313328.708    20842225.30349  16235675.52245  24313327.903    24313336.550
  23017632.935   -13947464.77249 -10847561.38646  23017631.745    23017638.218
 04  4 21  0 21 30.0000000  0  9G31G15G11G 3G14G22G25G18G19
  23615303.682    -8358698.40449  -6493524.97346  23615303.016    23615311.528
  21589215.365      -18696.86249     -6106.54347  21589214.478    21589222.058
  23311400.293   -11115325.77349  -8653223.59846  23311399.834    23311406.098
  24264835.823     5041546.79149   3943711.25845  24264835.354    24264846.275
  20531174.503   -21298005.78149 -16573621.14348  20531173.864    20531178.789
  21891506.659     2639281.92849   2060664.02247  21891506.275    21891510.332
  22108269.913   -16770015.48949 -13050890.98747  22108269.554    22108276.861
  24327196.879    20915103.54649  16292463.67945  24327196.192    24327204.791
  23027783.348   -13894124.11449 -10805997.30246  23027782.198    23027788.701
 04  4 21  0 22  0.0000000  0  9G31G15G11G 3G14G22G25G18G19
  23625859.737    -8303226.18449  -6450299.92746  23625859.078    23625867.622
  21605995.524       69483.34649     62605.25447  21605994.671    21606002.252
  23295107.609   -11200943.73849  -8719938.86146  23295107.193    23295113.449
  24280161.287     5122081.73649   4006465.59545  24280160.743    24280171.730
  20537819.835   -21263084.37249 -16546409.65748  20537819.194    20537824.115
  21899825.692     2682998.64549   2094728.96947  21899825.276    21899829.327
  22092206.844   -16854427.15649 -13116666.23547  22092206.464    22092213.777
  24341084.085    20988079.91549  16349328.26245  24341083.428    24341091.989
  23038004.797   -13840410.22749 -10764142.38846  23038003.662    23038010.158
 04  4 21  0 22 30.0000000  0  9G31G15G11G 3G14G22G25G18G19
  23636478.038    -8247426.90549  -6406820.02846  23636477.437    23636486.021
  21622847.622      158041.58549    131611.62247  21622846.765    21622854.368
  23278867.164   -11286287.85849  -8786440.72346  23278866.745    23278873.021
  24295490.119     5202634.47149   4069233.81345  24295489.611    24295500.535
  20544530.338   -21227820.37549 -16518931.21948  20544529.698    20544534.602
  21908175.207     2726875.52849   2128918.71747  21908174.786    21908178.831
  22076201.510   -16938535.39549 -13182205.04847  22076201.134    22076208.407
  24354989.784    21061155.06349  16406269.79345  24354989.132    24354997.660
  23048296.833   -13786325.54149 -10721998.54046  23048295.647    23048302.196
 04  4 21  0 23  0.0000000  0  9G31G15G11G 3G14G22G25G18G19
  23647158.042    -8191303.29549  -6363087.40846  23647157.423    23647166.025
  21639771.285      246975.82149    200910.97347  21639770.399    21639778.035
  23262679.289   -11371355.71849  -8852727.31446  23262678.792    23262685.088
  24310821.710     5283202.24549   4132013.72445  24310821.318    24310832.183
  20551305.678   -21192215.75049 -16491187.35448  20551305.038    20551309.954
  21916555.267     2770913.04449   2163233.64047  21916554.865    21916558.956
  22060254.331   -17022337.89849 -13247505.62847  22060253.974    22060261.241
  24368914.365    21134328.69949  16463288.16945  24368913.862    24368922.164
  23058658.941   -13731872.73949 -10679567.84346  23058657.743    23058664.298
 04  4 21  0 23 30.0000000  0  9G31G15G11G 3G14G22G25G18G19
  23657899.140    -8134858.65649  -6319104.64145  23657898.477    23657907.109
  21656766.064      336283.83249    270501.57047  21656765.184    21656772.837
  23246544.289   -11456145.46849  -8918797.21046  23246543.772    23246550.051
  24326155.612     5363781.64849   4194802.69545  24326155.173    24326166.120
  20558145.367   -21156272.80249 -16463179.86148  20558144.723    20558149.663
  21924965.850     2815110.90049   2197673.49447  21924965.462    21924969.541
  22044365.808   -17105832.47649 -13312566.27347  22044365.464    22044372.702
  24382857.840    21207600.69149  16520383.10445  24382857.179    24382865.647
  23069090.400   -13677055.05949 -10636852.83746  23069089.222    23069095.823
 04  4 21  0 24  0.0000000  0  9G31G15G11G 3G14G22G25G18G19
  23668700.978    -8078095.30349  -6274873.51445  23668700.319    23668708.902
  21673831.627      425963.97349    340382.13847  21673830.789    21673838.481
  23230462.661   -11540654.47549  -8984648.33746  23230462.255    23230468.446
  24341491.315     5444370.65449   4257599.16645  24341490.876    24341501.858
  20565049.261   -21119992.79749 -16434909.72948  20565048.593    20565053.540
  21933407.173     2859469.98549   2232238.98747  21933406.778    21933410.845
  22028536.464   -17189015.93149 -13377384.48247  22028536.142    22028543.360
  24396819.873    21280971.99549  16577555.36145  24396819.222    24396827.968
  23079590.899   -13621874.64349 -10593855.17146  23079589.762    23079596.347
 04  4 21  0 24 30.0000000  0  9G31G15G11G 3G14G22G25G18G19
  23679562.865    -8021016.09749  -6230396.28545  23679562.111    23679570.859
  21690967.592      516013.99749    410550.92847  21690966.746    21690974.483
  23214434.897   -11624880.32949  -9050278.81846  23214434.592    23214440.753
  24356828.335     5524966.29749   4320400.80645  24356827.689    24356838.856
  20572016.834   -21083377.91649 -16406378.65348  20572016.179    20572021.086
  21941879.224     2903990.44449   2266930.21747  21941878.823    21941882.872
  22012766.729   -17271886.30349 -13441958.73547  22012766.349    22012773.585
  24410800.853    21354441.87349  16634804.66645  24410800.144    24410808.657
  23090159.899   -13566334.35749 -10550577.08046  23090158.755    23090165.364
 04  4 21  0 25  0.0000000  0  9G31G15G11G 3G14G22G25G18G19
  23690484.241    -7963623.68949  -6185675.00545  23690483.480    23690492.275
  21708173.676      606432.22049    481006.62447  21708172.834    21708180.568
  23198461.713   -11708820.32349  -9115686.56646  23198461.300    23198467.421
  24372166.067     5605566.05249   4383205.63745  24372165.381    24372176.739
  20579047.860   -21046429.69649 -16377587.83448  20579047.202    20579052.120
  21950381.984     2948672.76349   2301747.57947  21950381.597    21950385.656
  21997057.102   -17354440.49649 -13506286.60947  21997056.735    21997063.986
  24424800.648    21428010.96249  16692131.06245  24424799.884    24424808.591
  23100796.899   -13510436.73649 -10507020.56146  23100795.782    23100802.414
 04  4 21  0 25 30.0000000  0  9G31G15G11G 3G14G22G25G18G19
  23701464.658    -7905921.42049  -6140712.26445  23701463.978    23701472.728
  21725449.373      697216.27449    551747.38147  21725448.495    21725456.241
  23182543.113   -11792472.94349  -9180870.37646  23182542.690    23182548.772
  24387503.900     5686166.63349   4446011.10145  24387503.372    24387514.621
  20586141.832   -21009150.42649 -16348539.05648  20586141.191    20586146.096
  21958915.542     2993516.79649   2336690.94547  21958915.149    21958919.218
  21981408.139   -17436676.40849 -13570366.47947  21981407.718    21981414.959
  24438819.074    21501679.05149  16749534.58745  24438818.547    24438827.224
  23111501.362   -13454184.90849 -10463188.03146  23111500.221    23111506.891
 04  4 21  0 26  0.0000000  0  9G31G15G11G 3G14G22G25G18G19
  23712503.571    -7847911.56049  -6095509.85245  23712502.926    23712511.676
  21742794.313      788364.39749    622771.83047  21742793.437    21742801.209
  23166679.795   -11875835.11149  -9245827.86046  23166679.382    23166685.467
  24402841.617     5766765.64449   4508815.34445  24402841.074    24402852.278
  20593298.561   -20971541.56649 -16319233.45648  20593297.927    20593302.832
  21967479.983     3038523.25349   2371760.87647  21967479.610    21967483.707
  21965820.199   -17518591.19249 -13634196.11747  21965819.760    21965827.005
  24452856.821    21575446.23949  16807015.56345  24452856.139    24452864.557
  23122272.699   -13397581.51149 -10419081.55246  23122271.525    23122278.216
 04  4 21  0 26 30.0000000  0  9G31G15G11G 3G14G22G25G18G19
  23723600.423    -7789597.55549  -6050070.44545  23723599.813    23723608.499
  21760208.083      879874.08549    694078.01347  21760207.182    21760214.979
  23150872.050   -11958904.97049  -9310557.58246  23150871.615    23150877.767
  24418178.312     5847360.07949   4571616.03545  24418177.738    24418188.996
  20600517.487   -20933605.68449 -16289673.03648  20600516.859    20600521.779
  21976075.350     3083691.93749   2406957.21647  21976074.970    21976079.090
  21950293.782   -17600182.79249 -13697773.93447  21950293.358    21950300.558
  24466913.208    21649312.25449  16864573.38045  24466912.520    24466920.754
  23133110.333   -13340629.63749 -10374703.53746  23133109.132    23133115.867
 04  4 21  0 27  0.0000000  0  9G31G15G11G 3G14G22G25G18G19
  23734754.747    -7730981.57849  -6004395.75045  23734754.161    23734762.795
  21777690.396      971743.94749    765664.86147  21777689.460    21777697.297
  23135120.586   -12041679.62149  -9375057.26746  23135120.080    23135126.283
  24433513.761     5927947.68249   4634411.37845  24433513.190    24433524.563
  20607798.487   -20895343.76849 -16259858.55848  20607797.868    20607802.802
  21984701.754     3129023.84549   2442280.75147  21984701.378    21984705.506
  21934829.493   -17681447.98549 -13761097.39547  21934829.064    21934836.237
  24480987.950    21723277.67449  16922208.54345  24480986.916    24480996.228
  23144013.856   -13283331.49049 -10330055.69946  23144012.653    23144019.381
 04  4 21  0 27 30.0000000  0  9G31G15G11G 3G14G22G25G18G19
  23745966.025    -7672066.32449  -5958487.83345  23745965.451    23745974.132
  21795240.818     1063972.12549    837530.90947  21795239.919    21795247.750
  23119425.768   -12124156.75649  -9439325.12746  23119425.165    23119431.314
  24448847.324     6008525.67949   4697199.24045  24448846.856    24448858.216
  20615141.125   -20856757.88349 -16229791.64048  20615140.505    20615145.445
  21993359.309     3174519.22549   2477731.66547  21993358.914    21993363.025
  21919427.820   -17762383.99949 -13824164.36347  21919427.396    21919434.545
  24495082.106    21797342.53349  16979921.33045  24495081.296    24495090.460
  23154982.726   -13225689.73849 -10285140.12446  23154981.500    23154988.260
 04  4 21  0 28  0.0000000  0  9G31G15G11G 3G14G22G25G18G19
  23757233.488    -7612855.28949  -5912349.44445  23757232.960    23757241.761
  21812859.011     1156556.04749    909674.16847  21812858.092    21812865.949
  23103787.780   -12206334.60149  -9503359.77546  23103787.280    23103793.391
  24464178.403     6089090.71549   4759976.98945  24464177.962    24464189.418
  20622545.029   -20817850.27549 -16199474.02848  20622544.390    20622549.333
  22002047.889     3220178.00949   2513309.90547  22002047.490    22002051.611
  21904089.111   -17842989.06149 -13886973.44447  21904088.685    21904095.817
  24509195.298    21871506.41849  17037711.32645  24509194.488    24509203.242
  23166016.382   -13167707.88149 -10239959.53246  23166015.142    23166021.909
 04  4 21  0 28 30.0000000  0  9G31G15G11G 3G14G22G25G18G19
  23768556.769    -7553350.82649  -5865982.42345  23768556.241    23768565.149
  21830544.548     1249493.89149    982093.20747  21830543.639    21830551.532
  23088207.384   -12288210.19149  -9567158.88746  23088206.857    23088212.967
  24479506.590     6169640.70049   4822743.02445  24479506.130    24479517.694
  20630009.830   -20778622.46649 -16168906.90748  20630009.212    20630014.127
  22010767.698     3266000.90849   2549016.03647  22010767.323    22010771.468
  21888813.974   -17923260.23849 -13949522.34247  21888813.550    21888820.654
  24523327.228    21945770.24849  17095579.05045  24523326.254    24523335.254
  23177114.364   -13109387.88549 -10194515.44446  23177113.139    23177119.922
 04  4 21  0 29  0.0000000  0  9G31G15G11G 3G14G22G25G18G19
  23779935.490    -7493555.71949  -5819388.91445  23779934.884    23779943.874
  21848297.007     1342783.40149   1054786.27547  21848296.089    21848303.990
  23072684.904   -12369781.08749  -9630720.60346  23072684.403    23072690.473
  24494831.456     6250172.88449   4885495.16745  24494830.921    24494842.681
  20637535.215   -20739076.33549 -16138091.74048  20637534.592    20637539.502
  22019518.794     3311988.38149   2584850.40347  22019518.425    22019522.593
  21873602.835   -18003194.91549 -14011809.03947  21873602.460    21873609.546
  24537478.380    22020133.48949  17153524.45945  24537477.476    24537485.929
  23188276.033   -13050732.87549 -10148810.32846  23188274.871    23188281.663
 04  4 21  0 29 30.0000000  0  9G31G15G11G 3G14G22G25G18G19
  23791368.760    -7433474.10549  -5772572.14845  23791368.019    23791377.053
  21866115.818     1436421.52649   1127750.98647  21866114.903    21866122.788
  23057220.639   -12451046.38649  -9694044.16546  23057220.098    23057226.215
  24510152.163     6330683.14549   4948230.22345  24510151.674    24510163.425
  20645120.630   -20699214.80449 -16107030.81248  20645120.011    20645124.907
  22028301.045     3358139.38549   2620812.20247  22028300.695    22028304.840
  21858455.972   -18082791.86749 -14073832.58147  21858455.596    21858462.663
  24551648.302    22094595.54949  17211546.77145  24551647.448    24551655.895
  23199500.773   -12991746.91349 -10102847.33046  23199499.600    23199506.438
 04  4 21  0 30  0.0000000  0  9G31G15G11G 3G14G22G25G18G19
  23802856.257    -7373107.14049  -5725533.03345  23802855.565    23802864.562
  21884000.886     1530407.85249   1200987.02547  21883999.982    21884007.853
  23041815.205   -12532002.07049  -9757126.48246  23041814.683    23041820.808
  24525468.659     6411170.57749   5010947.52245  24525468.192    24525479.870
  20652766.007   -20659038.18649 -16075724.36148  20652765.348    20652770.253
  22037114.774     3404455.83349   2656902.91547  22037114.433    22037118.605
  21843374.192   -18162046.90849 -14135589.69147  21843373.807    21843380.881
  24565836.633    22169158.37449  17269647.34045  24565836.026    24565845.082
  23210788.297   -12932431.02249 -10056627.23646  23210787.146    23210793.944
 04  4 21  0 30 30.0000000  0  9G31G15G11G 3G14G22G25G18G19
  23814397.470    -7312458.12249  -5678274.12945  23814396.747    23814405.760
  21901951.649     1624739.70849   1274492.30447  21901950.775    21901958.657
  23026469.162   -12612646.04149  -9819965.89846  23026468.648    23026474.739
  24540780.110     6491632.08249   5073644.60345  24540779.551    24540791.514
  20660470.889   -20618548.82349 -16044174.21448  20660470.244    20660475.121
  22045960.010     3450937.84949   2693122.64347  22045959.650    22045963.834
  21828357.882   -18240957.97849 -14197078.77947  21828357.473    21828364.556
  24580044.691    22243821.15549  17327826.02445  24580044.259    24580053.032
  23222137.913   -12872788.62549 -10010152.71846  23222136.759    23222143.610
 04  4 21  0 31  0.0000000  0  9G31G15G11G 3G14G22G25G18G19
  23825991.584    -7251530.44549  -5630798.10645  23825990.880    23826000.063
  21919967.740     1719414.46049   1348264.77847  21919966.833    21919974.697
  23011182.672   -12692976.68849  -9882561.17546  23011182.170    23011188.268
  24556086.018     6572064.44049   5136318.95945  24556085.515    24556097.361
  20668234.833   -20577749.05649 -16012382.19548  20668234.179    20668239.071
  22054836.742     3497585.09149   2729471.11747  22054836.354    22054840.530
  21813407.322   -18319523.29149 -14258298.44647  21813406.913    21813414.026
  24594271.838    22318583.63149  17386082.47745  24594271.220    24594280.132
  23233549.031   -12812822.94449  -9963426.30046  23233547.889    23233554.752
 04  4 21  0 31 30.0000000  0  8G31G15G11G 3G14G22G25G19
  23837638.609    -7190325.42249  -5583105.95945  23837637.887    23837647.013
  21938048.894     1814431.38149   1422303.87847  21938047.986    21938055.870
  22995956.604   -12772989.85649  -9944909.05846  22995956.151    22995962.226
  24571386.156     6652466.58549   5198969.78745  24571385.613    24571397.434
  20676057.783   -20536639.23849 -15980348.57248  20676057.133    20676062.021
  22063745.254     3544399.50949   2765949.85847  22063744.847    22063749.035
  21798523.413   -18397738.63649 -14319245.41647  21798522.997    21798530.107
  23245021.433   -12752535.31349  -9916449.01346  23245020.277    23245027.178
 04  4 21  0 32  0.0000000  0  8G31G15G11G 3G14G22G25G19
  23849337.517    -7128847.61449  -5535201.24745  23849336.817    23849345.861
  21956194.516     1909786.72149   1496606.68047  21956193.573    21956201.459
  22980791.066   -12852685.07549 -10007009.19446  22980790.639    22980796.661
  24586679.729     6732834.10549   5261593.63145  24586679.186    24586691.043
  20683939.068   -20495222.83649 -15948076.05348  20683938.417    20683943.295
  22072685.328     3591379.84049   2802557.88547  22072684.948    22072689.122
  21783706.215   -18475603.18649 -14379919.03047  21783705.804    21783712.896
  23256554.205   -12691930.39749  -9869224.48646  23256553.073    23256559.977
 04  4 21  0 32 30.0000000  0  8G31G15G11G 3G14G22G25G19
  23861087.841    -7067099.78449  -5487086.13945  23861087.093    23861096.110
  21974404.044     2005478.39449   1571171.55847  21974403.127    21974411.037
  22965686.531   -12932059.92449 -10068859.68046  22965686.107    22965692.051
  24601966.244     6813164.33149   5324188.42645  24601965.782    24601977.387
  20691878.325   -20453501.59349 -15915566.00148  20691877.651    20691882.581
  22081657.035     3638526.56649   2839295.56547  22081656.677    22081660.875
  21768956.266   -18553114.73349 -14440317.58647  21768955.856    21768962.886
  23268146.958   -12631010.72649  -9821754.68846  23268145.808    23268152.712
 04  4 21  0 33  0.0000000  0  8G31G15G11G 3G14G22G25G19
  23872888.870    -7005085.42549  -5438763.33645  23872888.094    23872897.114
  21992677.138     2101503.81449   1645996.50447  21992676.187    21992684.147
  22950643.379   -13011112.45749 -10130459.01046  22950642.920    22950648.831
  24617245.123     6893454.14449   5386751.71145  24617244.705    24617256.373
  20699875.145   -20411477.98949 -15882820.33848  20699874.485    20699879.430
  22090660.402     3685839.33949   2876162.62947  22090660.034    22090664.223
  21754273.773   -18630271.32849 -14500439.55247  21754273.390    21754280.384
  23279798.882   -12569779.81549  -9774042.37646  23279797.751    23279804.644
 04  4 21  0 33 30.0000000  0  8G31G15G11G 3G14G22G25G19
  23884740.151    -6942806.57249  -5390234.45045  23884739.419    23884748.460
  22011013.479     2197861.79749   1721080.58247  22011012.543    22011020.504
  22935662.125   -13089839.44449 -10191804.67646  22935661.662    22935667.512
  24632515.856     6973701.61749   5449282.01245  24632515.404    24632527.167
  20707929.271   -20369153.20849 -15849839.99548  20707928.589    20707933.562
  22099695.561     3733319.18949   2913159.87547  22099695.180    22099699.389
  21739659.510   -18707069.63949 -14560282.34047  21739659.137    21739666.082
  23291509.632   -12508239.84549  -9726089.23846  23291508.444    23291515.413
 04  4 21  0 34  0.0000000  0  8G31G15G11G 3G14G22G25G19
  23896641.343    -6880266.31649  -5341501.83645  23896640.540    23896649.518
  22029412.635     2294549.79849   1796421.82447  22029411.696    22029419.672
  22920743.142   -13168239.04849 -10252895.22646  22920742.700    22920748.582
  24647778.040     7053903.98449   5511777.17745  24647777.518    24647789.257
  20716040.314   -20326529.28849 -15816626.55448  20716039.634    20716044.623
  22108762.546     3780966.32849   2950287.48447  22108762.172    22108766.352
  21725113.858   -18783507.42749 -14619844.20047  21725113.477    21725120.372
  23303278.557   -12446393.71249  -9677897.52846  23303277.407    23303284.434
 04  4 21  0 34 30.0000000  0  8G31G15G11G 3G14G22G25G19
  23908591.579    -6817467.40949  -5292567.73445  23908590.787    23908599.906
  22047874.184     2391565.67249   1872018.55246  22047873.265    22047881.232
  22905886.952   -13246308.67749 -10313728.66146  22905886.465    22905892.387
  24663031.137     7134058.61849   5574235.12845  24663030.649    24663042.432
  20724207.998   -20283607.72749 -15783181.18848  20724207.350    20724212.363
  22117861.480     3828781.36449   2987545.91647  22117861.093    22117865.281
  21710637.334   -18859582.05549 -14679123.07747  21710636.929    21710643.825
  23315105.231   -12384244.20649  -9629469.42646  23315104.129    23315111.167
 04  4 21  0 35  0.0000000  0  8G31G15G11G 3G14G22G25G19
  23920590.624    -6754412.60549  -5243434.19045  23920589.790    23920598.903
  22066397.775     2488907.54449   1947869.30546  22066396.861    22066404.814
  22891094.040   -13324046.09749 -10374303.23246  22891093.546    22891099.377
  24678274.742     7214163.26249   5636654.13245  24678274.206    24678286.130
  20732431.948   -20240390.38749 -15749505.33848  20732431.306    20732436.319
  22126992.406     3876764.73049   3024935.51947  22126992.012    22126996.232
  21696230.358   -18935290.87949 -14738116.91147  21696229.963    21696236.854
  23326989.230   -12321794.18349  -9580807.15246  23326988.032    23326995.068
 04  4 21  0 35 30.0000000  0  8G31G15G11G 3G14G22G25G19
  23932637.747    -6691105.06049  -5194103.73345  23932636.960    23932646.073
  22084982.932     2586572.84549   2023972.08246  22084981.995    22084989.946
  22876364.707   -13401448.85249 -10434617.01846  22876364.213    22876370.091
  24693508.121     7294214.77849   5699031.74445  24693507.739    24693519.644
  20740711.786   -20196879.53749 -15715600.78548  20740711.135    20740716.148
  22136155.445     3924916.51849   3062456.36447  22136155.019    22136159.229
  21681893.326   -19010632.21549 -14796824.39347  21681892.928    21681899.812
  23338929.799   -12259046.57349  -9531912.98946  23338928.606    23338935.620
 04  4 21  0 36  0.0000000  0  8G31G15G11G 3G14G22G25G19
  23944732.423    -6627547.56549  -5144578.49245  23944731.707    23944740.775
  22103629.179     2684559.54249   2100325.28846  22103628.267    22103636.209
  22861699.624   -13478514.52549 -10494668.15146  22861699.115    22861704.989
  24708731.011     7374210.88849   5761366.16745  24708730.701    24708742.629
  20749047.267   -20153076.60049 -15681468.63348  20749046.604    20749051.615
  22145350.526     3973237.13149   3100108.75147  22145350.133    22145354.347
  21667626.732   -19085603.29149 -14855243.36147  21667626.355    21667633.206
  23350926.373   -12196004.31849  -9482789.23146  23350925.211    23350932.200
 04  4 21  0 36 30.0000000  0  8G31G15G11G 3G14G22G25G19
  23956874.059    -6563742.92249  -5094860.68945  23956873.371    23956882.601
  22122336.181     2782865.40049   2176927.19946  22122335.296    22122343.301
  22847099.055   -13555240.95049 -10554454.93846  22847098.513    22847104.380
  24723942.976     7454148.95649   5823655.34845  24723942.571    24723954.616
  20757437.931   -20108983.43849 -15647110.33348  20757437.255    20757442.264
  22154577.953     4021727.28249   3137893.25047  22154577.545    22154581.768
  21653431.145   -19160201.54649 -14913371.82047  21653430.762    21653437.577
  23362978.509   -12132670.29449  -9433438.12246  23362977.338    23362984.335
 04  4 21  0 37  0.0000000  0  8G31G15G11G 3G14G22G25G19
  23969062.205    -6499694.31049  -5044952.77345  23969061.474    23969070.765
  22141103.467     2881488.08649   2253775.97546  22141102.604    22141110.618
  22832563.369   -13631626.25849 -10613975.92146  22832562.886    22832568.677
  24739143.173     7534026.07749   5885897.06445  24739142.828    24739154.850
  20765883.355   -20064602.29349 -15612527.63048  20765882.699    20765887.703
  22163837.526     4070386.80549   3175809.72247  22163837.135    22163841.339
  21639306.863   -19234424.98849 -14971208.21747  21639306.470    21639313.231
  23375085.566   -12069047.68549  -9383862.14346  23375084.416    23375091.418
 04  4 21  0 37 30.0000000  0  8G31G15G11G 3G14G22G25G19
  23981296.200    -6435404.29849  -4994856.77245  23981295.474    23981304.851
  22159930.783     2980425.81649   2330870.25146  22159929.880    22159937.902
  22818093.209   -13707667.40649 -10673228.72046  22818092.693    22818098.460
  24754331.346     7613839.88949   5948089.40845  24754330.793    24754343.150
  20774383.369   -20019934.51149 -15577721.57048  20774382.704    20774387.726
  22173129.545     4119216.49849   3213858.79847  22173129.142    22173133.339
  21625254.469   -19308271.00849 -15028750.52447  21625254.028    21625260.752
  23387247.044   -12005139.01649  -9334063.26746  23387245.896    23387252.947
 04  4 21  0 38  0.0000000  0  8G31G15G11G 3G14G22G25G19
  23993575.593    -6370875.90049  -4944574.99445  23993574.874    23993584.222
  22178817.593     3079676.22749   2408208.17046  22178816.665    22178824.653
  22803688.949   -13783362.25849 -10732211.69046  22803688.435    22803694.177
  24769507.092     7693587.95149   6010230.56245  24769506.547    24769518.842
  20782937.498   -19974982.03549 -15542693.67548  20782936.842    20782941.897
  22182453.931     4168216.49549   3252040.58147  22182453.507    22182457.735
  21611274.231   -19381737.31049 -15085996.93747  21611273.806    21611280.504
  23399462.447   -11940947.33749  -9284043.86646  23399461.220    23399468.287
 04  4 21  0 38 30.0000000  0  8G31G15G11G 3G14G22G25G19
  24005899.742    -6306112.53649  -4894110.12345  24005899.021    24005908.373
  22197763.277     3179236.44949   2485787.50246  22197762.349    22197770.383
  22789350.904   -13858709.08949 -10790923.47246  22789350.361    22789356.127
  24784669.705     7773267.04249   6072317.95445  24784669.080    24784681.622
  20791545.347   -19929747.46349 -15507445.96548  20791544.713    20791549.746
  22191810.722     4217386.71149   3290354.99847  22191810.299    22191814.536
  21597366.644   -19454822.18749 -15142946.14047  21597366.185    21597372.890
  23411730.959   -11876476.14449  -9233806.65646  23411729.707    23411736.860
 04  4 21  0 39  0.0000000  0  8G31G15G11G 3G14G22G25G19
  24018268.137    -6241117.03049  -4843464.37745  24018267.409    24018276.623
  22216767.532     3279104.43049   2563606.63946  22216766.622    22216774.708
  22775079.557   -13933705.42849 -10849362.14646  22775079.001    22775084.768
  24799818.865     7852874.81149   6134349.76945  24799818.172    24799830.845
  20800206.620   -19884232.39049 -15471979.68448  20800205.977    20800211.002
  22201200.022     4266727.67449   3328802.46447  22201199.619    22201203.849
  21583532.047   -19527523.09249 -15199596.14747  21583531.602    21583538.327
  23424052.178   -11811728.09849  -9183353.72746  23424050.957    23424058.140
 04  4 21  0 39 30.0000000  0  8G31G15G11G 3G14G22G25G19
  24030680.057    -6175892.36549  -4792640.07045  24030679.267    24030688.673
  22235829.907     3379277.94749   2641663.84946  22235828.986    22235837.125
  22760875.380   -14008348.94949 -10907525.89346  22760874.814    22760880.547
  24814953.896     7932408.72649   6196324.03545  24814953.305    24814965.969
  20808920.926   -19838438.54249 -15436296.17648  20808920.264    20808925.255
  22210621.906     4316239.67849   3367383.20947  22210621.516    22210625.712
  21569771.054   -19599837.44649 -15255944.94547  21569770.609    21569777.312
  23436425.523   -11746706.23449  -9132687.41846  23436424.281    23436431.398
 04  4 21  0 40  0.0000000  0  8G31G15G11G 3G14G22G25G19
  24043134.992    -6110441.25249  -4741639.30545  24043134.175    24043143.597
  22254950.067     3479754.82049   2719957.43846  22254949.119    22254957.357
  22746738.719   -14082637.11949 -10965412.75946  22746738.181    22746743.929
  24830074.313     8011866.28649   6258238.80245  24830073.816    24830086.299
  20817687.902   -19792367.80749 -15400396.91648  20817687.255    20817692.235
  22220076.422     4365923.09749   3406097.52747  22220076.041    22220080.209
  21556083.986   -19671763.29549 -15311991.01947  21556083.544    21556090.219
  23448850.359   -11681413.34849  -9081809.93946  23448849.159    23448856.262
 04  4 21  0 40 30.0000000  0  8G31G15G11G 3G14G22G25G19
  24055632.548    -6044766.57849  -4690464.34045  24055631.743    24055641.116
  22274127.541     3580532.89149   2798485.73446  22274126.623    22274134.856
  22732670.024   -14156568.03149 -11023021.22046  22732669.530    22732675.286
  24845179.654     8091244.91549   6320092.05745  24845179.090    24845191.740
  20826507.242   -19746022.00649 -15364283.31148  20826506.599    20826511.566
  22229563.657     4415778.57949   3444945.91647  22229563.274    22229567.477
  21542471.303   -19743298.12749 -15367732.39547  21542470.868    21542477.538
  23461326.223   -11615852.39649  -9030723.57046  23461325.023    23461332.131
 04  4 21  0 41  0.0000000  0  7G31G15G11G14G22G25G19
  24068172.765    -5978867.08049  -4639114.19545  24068172.071    24068181.482
  22293362.676     3681613.91349   2877250.08946  22293361.777    22293370.033
  22718670.649   -14230134.80049 -11080345.93946  22718670.182    22718675.995
  20835379.335   -19699398.76949 -15327953.52848  20835378.687    20835383.631
  22239084.482     4465810.60249   3483931.87047  22239084.092    22239088.303
  21528934.293   -19814435.39149 -15423163.99147  21528933.879    21528940.514
  23473853.436   -11550022.08149  -8979427.31146  23473852.160    23473859.250
 04  4 21  0 41 30.0000000  0  7G31G15G11G14G22G25G19
  24080754.692    -5912748.88749  -4587593.61745  24080754.071    24080763.504
  22312654.479     3782992.31249   2956246.17946  22312653.531    22312661.798
  22704740.396   -14303338.65449 -11137387.87946  22704739.906    22704745.675
  20844303.309   -19652503.04849 -15291411.41048  20844302.650    20844307.601
  22248638.372     4516016.16349   3523053.05647  22248637.968    22248642.157
  21515472.769   -19885176.07149 -15478286.54747  21515472.349    21515478.971
  23486430.634   -11483928.50549  -8927925.91546  23486429.413    23486436.562
 04  4 21  0 42  0.0000000  0  7G31G15G11G14G22G25G19
  24093377.100    -5846418.73649  -4535907.90045  24093376.323    24093385.783
  22332001.657     3884662.20049   3035469.39046  22332000.707    22332008.989
  22690878.849   -14376181.13149 -11194148.20946  22690878.372    22690884.160
  20853278.088   -19605340.40049 -15254661.30348  20853277.436    20853282.397
  22258224.574     4566391.94049   3562306.87847  22258224.162    22258228.351
  21502086.382   -19955521.82449 -15533101.37147  21502085.936    21502092.556
  23499056.685   -11417578.40049  -8876224.62146  23499055.502    23499062.624
 04  4 21  0 42 30.0000000  0  7G31G15G11G14G22G25G19
  24106039.341    -5779878.40549  -4484058.38845  24106038.607    24106048.041
  22351404.150     3986622.77949   3114919.12646  22351403.205    22351411.517
  22677086.906   -14448658.34049 -11250623.92746  22677086.420    22677092.191
  20862303.492   -19557911.52249 -15217703.74748  20862302.838    20862307.815
  22267843.495     4616939.73049   3601694.73047  22267843.073    22267847.297
  21488775.792   -20025469.39049 -15587605.91747  21488775.350    21488781.952
  23511731.110   -11350973.68249  -8824324.93246  23511729.978    23511737.091
 04  4 21  0 43  0.0000000  0  7G31G15G11G14G22G25G19
  24118741.270    -5713130.04249  -4432046.79345  24118740.533    24118749.822
  22370861.523     4088872.10249   3194593.85446  22370860.635    22370868.978
  22663364.854   -14520767.86849 -11306813.13946  22663364.409    22663370.168
  20871379.351   -19510217.59949 -15180539.66248  20871378.695    20871383.694
  22277495.294     4667660.11649   3641217.07547  22277494.851    22277499.115
  21475541.564   -20095015.64249 -15641797.74847  21475541.132    21475547.694
  23524453.652   -11284116.57649  -8772228.58046  23524452.520    23524459.635
 04  4 21  0 43 30.0000000  0  7G31G15G11G14G22G25G19
  24131482.145    -5646176.88849  -4379875.61145  24131481.402    24131490.730
  22390373.436     4191407.59849   3274491.57546  22390372.567    22390380.902
  22649713.306   -14592507.29249 -11362713.94846  22649712.870    22649718.564
  20880505.248   -19462260.64249 -15143170.61548  20880504.587    20880509.592
  22287179.980     4718553.56549   3680874.27247  22287179.547    22287183.849
  21462384.065   -20164158.55349 -15695675.29447  21462383.651    21462390.188
  23537223.670   -11217010.29149  -8719938.06546  23537222.460    23537229.655
 04  4 21  0 44  0.0000000  0  7G31G15G11G14G22G25G19
  24144261.347    -5579021.02149  -4327546.46245  24144260.756    24144270.067
  22409939.576     4294227.97549   3354611.28546  22409938.682    22409947.040
  22636132.772   -14663873.75249 -11418324.14246  22636132.282    22636137.913
  20889681.054   -19414041.65649 -15105597.38848  20889680.385    20889685.396
  22296897.818     4769621.00849   3720667.06047  22296897.379    22296901.723
  21449303.937   -20232895.06449 -15749236.16647  21449303.506    21449310.020
  23550040.648   -11149657.00849  -8667455.08646  23550039.427    23550046.716
 04  4 21  0 44 30.0000000  0  7G31G15G11G14G22G25G19
  24157078.697    -5511665.54949  -4275061.80145  24157078.082    24157087.561
  22429559.477     4397330.77649   3434951.06146  22429558.570    22429566.942
  22622623.585   -14734865.12849 -11473642.06746  22622623.074    22622628.689
  20898906.290   -19365562.61749 -15067821.52448  20898905.629    20898910.616
  22306648.776     4820862.72349   3760595.63547  22306648.369    22306652.745
  21436301.499   -20301223.17149 -15802478.80247  21436301.048    21436307.555
  23562903.926   -11082060.04749  -8614782.22346  23562902.782    23562910.085
 04  4 21  0 45  0.0000000  0  7G31G15G11G14G22G25G19
  24169933.691    -5444113.37849  -4222423.81645  24169933.034    24169942.440
  22449232.633     4500713.54449   3515508.97846  22449231.720    22449240.088
  22609186.172   -14805479.09749 -11528665.90346  22609185.657    22609191.244
  20908180.669   -19316825.58349 -15029844.62348  20908179.998    20908184.990
  22316433.038     4872279.12249   3800660.32747  22316432.625    22316437.013
  21423377.223   -20369140.70149 -15855401.50747  21423376.765    21423383.245
  23575813.137   -11014222.21149  -8561921.67146  23575811.945    23575819.237
 04  4 21  0 45 30.0000000  0  7G31G15G11G14G22G25G19
  24182825.213    -5376367.81549  -4169635.19845  24182824.609    24182834.186
  22468958.569     4604373.78849   3596283.11646  22468957.664    22468966.036
  22595820.987   -14875713.63149 -11583394.07046  22595820.439    22595826.002
  20917503.794   -19267832.21849 -14991667.98348  20917503.124    20917508.126
  22326250.507     4923870.30049   3840861.21647  22326250.099    22326254.490
  21410531.376   -20436645.66849 -15908002.72847  21410530.968    21410537.429
  23588767.613   -10946146.57049  -8508875.82046  23588766.407    23588773.711
 04  4 21  0 46  0.0000000  0  7G31G15G11G14G22G25G19
  24195753.234    -5308431.60749  -4116697.99545  24195752.479    24195762.068
  22488736.904     4708309.24749   3677271.71446  22488736.022    22488744.374
  22582528.348   -14945566.66449 -11637824.97546  22582527.801    22582533.406
  20926875.302   -19218584.47949 -14953293.13248  20926874.636    20926879.682
  22336101.347     4975636.74149   3881198.66947  22336100.939    22336105.304
  21397764.437   -20503736.09649 -15960280.92947  21397764.026    21397770.465
  23601766.707   -10877836.28849  -8455647.13046  23601765.488    23601772.843
 04  4 21  0 46 30.0000000  0  7G31G15G11G14G22G25G19
  24208716.901    -5240307.63649  -4063614.48445  24208716.105    24208725.885
  22508567.250     4812517.68349   3758473.01546  22508566.314    22508574.658
  22569308.779   -15015035.78149 -11691956.71846  22569308.243    22569313.857
  20936294.897   -19169083.99049 -14914721.32848  20936294.235    20936299.305
  22345985.587     5027578.75849   3921672.93047  22345985.177    22345989.581
  21385076.890   -20570409.54349 -16012234.20547  21385076.450    21385082.900
  23614809.901   -10809294.11649  -8402237.73546  23614808.717    23614816.095
 04  4 21  0 47  0.0000000  0  7G31G15G11G14G22G25G19
  24221715.632    -5171999.24949  -4010387.29945  24221714.826    24221724.509
  22528448.982     4916996.61749   3839885.10646  22528448.050    22528456.363
  22556162.622   -15084119.05549 -11745787.80846  22556162.074    22556167.708
  20945762.220   -19119332.72749 -14875954.12348  20945761.551    20945766.651
  22355903.304     5079696.69949   3962284.27447  22355902.891    22355907.268
  21372468.948   -20636664.21049 -16063861.16647  21372468.518    21372475.005
  23627896.621   -10740523.30449  -8348650.19446  23627895.408    23627902.778
 04  4 21  0 47 30.0000000  0  7G31G15G11G14G22G25G19
  24234748.931    -5103508.44849  -3957017.97845  24234748.173    24234758.030
  22548381.799     5021744.00749   3921506.36846  22548380.881    22548389.210
  22543090.418   -15152813.65149 -11799316.04046  22543089.884    22543095.539
  20955277.066   -19069331.99349 -14836992.52448  20955276.384    20955281.484
  22365854.669     5131991.24749   4003033.23447  22365854.271    22365858.615
  21359941.185   -20702497.85449 -16115160.05747  21359940.761    21359947.241
  23641026.335   -10671526.47749  -8294886.53446  23641025.228    23641032.554
 04  4 21  0 48  0.0000000  0  7G31G15G11G14G22G25G19
  24247816.251    -5034839.39249  -3903509.73945  24247815.597    24247825.428
  22568365.113     5126756.59049   4003334.28846  22568364.186    22568372.481
  22530092.539   -15221118.20449 -11852540.33446  22530091.962    22530097.589
  20964838.842   -19019084.46349 -14797838.61148  20964838.164    20964843.244
  22375839.579     5184461.98849   4043919.49247  22375839.179    22375843.533
  21347493.790   -20767909.07649 -16166129.78847  21347493.368    21347499.832
  23654198.466   -10602307.27749  -8240949.57846  23654197.270    23654204.665
 04  4 21  0 48 30.0000000  0  7G31G15G11G14G22G25G19
  24260917.060    -4965994.56349  -3849864.54345  24260916.457    24260926.210
  22588398.476     5232032.44349   4085367.33646  22588397.518    22588405.847
  22517169.261   -15289030.63149 -11905459.08246  22517168.669    22517174.235
  20974447.333   -18968591.50049 -14758493.45448  20974446.673    20974451.760
  22385858.170     5237109.50749   4084943.49647  22385857.733    22385862.079
  21335127.302   -20832895.30849 -16216768.36047  21335126.879    21335133.320
  23667412.257   -10532868.52649  -8186841.57246  23667411.142    23667418.498
 04  4 21  0 49  0.0000000  0  7G31G15G11G14G22G25G19
  24274050.863    -4896976.97149  -3796084.70345  24274050.175    24274059.855
  22608481.446     5337569.18849   4167603.67946  22608480.515    22608488.880
  22504320.987   -15356548.20349 -11958070.14946  22504320.493    22504326.040
  20984102.173   -18917855.04949 -14718958.56548  20984101.499    20984106.576
  22395910.373     5289934.29349   4126105.63847  22395909.974    22395914.296
  21322842.067   -20897454.28149 -16267074.00347  21322841.644    21322848.071
  23680667.340   -10463213.20049  -8132564.79946  23680666.186    23680673.526
 04  4 21  0 49 30.0000000  0  7G31G15G11G14G22G25G19
  24287216.919    -4827789.15349  -3742172.26745  24287216.319    24287225.938
  22628613.681     5443364.90649   4250041.82746  22628612.807    22628621.237
  22491548.412   -15423668.49149 -12010371.64946  22491547.935    22491553.449
  20993803.116   -18866876.41349 -14679234.96248  20993802.413    20993807.517
  22405996.433     5342936.84649   4167406.28947  22405996.042    22406000.390
  21310638.650   -20961583.54849 -16317044.80947  21310638.212    21310644.640
  23693963.177   -10393343.91849  -8078121.30446  23693961.951    23693969.370
 04  4 21  0 50  0.0000000  0  7G31G15G11G14G22G25G19
  24300414.889    -4758434.53149  -3688129.82145  24300414.173    24300423.718
  22648794.690     5549416.77249   4332679.56446  22648793.866    22648802.321
  22478851.711   -15490389.92149 -12062362.34746  22478851.255    22478856.726
  21003549.692   -18815657.97449 -14639324.49748  21003548.986    21003554.072
  22416116.308     5396117.23049   4208845.50947  22416115.896    22416120.298
  21298517.186   -21025281.79149 -16366679.75947  21298516.764    21298523.200
  23707298.979   -10323264.24949  -8023513.86846  23707297.739    23707305.214
 04  4 21  0 50 30.0000000  0  7G31G15G11G14G22G25G19
  24313644.022    -4688915.65749  -3633959.39845  24313643.245    24313652.926
  22669024.097     5655722.57849   4415515.17646  22669023.232    22669031.713
  22466231.283   -15556710.17949 -12114040.44046  22466230.862    22466236.371
  21013341.656   -18764201.03749 -14599228.18948  21013340.957    21013346.035
  22426270.125     5449476.10449   4250423.81047  22426269.766    22426274.187
  21286478.186   -21088546.66749 -16415977.01147  21286477.798    21286484.226
  23720674.274   -10252976.92049  -7968744.62446  23720673.029    23720680.516
 04  4 21  0 51  0.0000000  0  7G31G15G11G14G22G25G19
  24326903.616    -4619235.97549  -3579663.67045  24326902.846    24326912.633
  22689301.235     5762279.56349   4498546.51446  22689300.414    22689308.950
  22453687.588   -15622627.72649 -12165404.73346  22453687.126    22453692.662
  21023178.487   -18712508.11949 -14558948.00348  21023177.787    21023182.864
  22436457.989     5503013.31449   4292141.08347  22436457.624    22436462.055
  21274522.052   -21151376.47349 -16464935.25047  21274521.665    21274528.078
  23734088.429   -10182485.39549  -7913816.27446  23734087.203    23734094.764
 04  4 21  0 51 30.0000000  0  7G31G15G11G14G22G25G19
  24340193.466    -4549398.19349  -3525244.76445  24340192.684    24340202.524
  22709625.858     5869085.74249   4581772.02746  22709625.033    22709633.583
  22441221.043   -15688139.58249 -12216452.91346  22441220.596    22441226.103
  21033059.988   -18660580.46149 -14518484.89548  21033059.296    21033064.386
  22446679.871     5556729.31549   4333997.67247  22446679.477    22446683.936
  21262649.056   -21213769.30949 -16513552.99347  21262648.665    21262655.050
  23747540.981   -10111792.18749  -7858730.75846  23747539.770    23747547.326
 04  4 21  0 52  0.0000000  0  7G31G15G11G14G22G25G19
  24353512.642    -4479405.87249  -3470705.42145  24353511.994    24353521.861
  22729997.368     5976137.89249   4665189.20746  22729996.451    22730005.000
  22428831.923   -15753244.64649 -12267184.10446  22428831.473    22428837.002
  21042985.706   -18608420.40349 -14477840.70148  21042985.025    21042990.135
  22456935.694     5610623.92149   4375993.43647  22456935.277    22456939.788
  21250859.450   -21275723.88749 -16561829.23847  21250859.067    21250865.465
  23761031.214   -10040901.17249  -7803491.12146  23761029.981    23761037.621
 04  4 21  0 52 30.0000000  0  7G31G15G11G14G22G25G19
  24366860.756    -4409261.78149  -3416047.81645  24366860.054    24366870.008
  22750415.260     6083434.12649   4748796.57346  22750414.336    22750422.835
  22416520.697   -15817940.48349 -12317596.42846  22416520.226    22416525.751
  21052955.342   -18556029.42149 -14437016.56447  21052954.673    21052959.800
  22467225.650     5664697.90749   4418128.97747  22467225.274    22467229.808
  21239153.738   -21337237.36749 -16609761.77347  21239153.360    21239159.749
  23774558.597    -9969814.87149  -7748099.29446  23774557.346    23774564.978
 04  4 21  0 53  0.0000000  0  7G31G15G11G14G22G25G19
  24380237.165    -4338968.65749  -3361274.13745  24380236.413    24380246.501
  22770879.114     6190971.83849   4832592.10646  22770878.159    22770886.677
  22404287.792   -15882224.71249 -12367688.01946  22404287.335    22404292.835
  21062968.570   -18503409.51249 -14396014.04847  21062967.911    21062973.027
  22477549.759     5718951.38149   4460404.36647  22477549.376    22477553.912
  21227532.271   -21398308.41349 -16657349.55047  21227531.886    21227538.278
  23788122.528    -9898536.48249  -7692557.80146  23788121.306    23788128.924
 04  4 21  0 53 30.0000000  0  7G31G15G11G14G22G25G19
  24393641.402    -4268529.44049  -3306386.54845  24393640.635    24393650.647
  22791388.439     6298748.75749   4916574.02246  22791387.460    22791395.989
  22392133.599   -15946095.28449 -12417457.28046  22392133.159    22392138.616
  21073025.150   -18450562.08249 -14354834.24247  21073024.479    21073029.556
  22487908.199     5773384.83649   4502820.01547  22487907.815    22487912.343
  21215995.384   -21458934.92649 -16704590.94247  21215994.992    21216001.351
  23801722.414    -9827069.01549  -7636868.96446  23801721.181    23801728.830
 04  4 21  0 54  0.0000000  0  7G31G15G11G14G22G25G19
  24407072.842    -4197947.10249  -3251387.46145  24407072.076    24407082.161
  22811942.727     6406762.55749   5000740.52446  22811941.801    22811950.372
  22380058.575   -16009550.25449 -12466902.68446  22380058.078    22380063.539
  21083124.633   -18397489.07249 -14313478.66147  21083123.957    21083128.999
  22498300.922     5827998.71349   4545376.24747  22498300.511    22498305.020
  21204543.506   -21519114.81649 -16751484.30847  21204543.100    21204549.466
  23815357.692    -9755415.40949  -7581035.07846  23815356.452    23815364.118
 04  4 21  0 54 30.0000000  0  7G31G15G11G14G22G25G19
  24420530.986    -4127225.02449  -3196279.50245  24420530.218    24420540.357
  22832541.694     6515010.46549   5085089.45346  22832540.761    22832549.346
  22368062.849   -16072588.10049 -12516023.06846  22368062.343    22368067.817
  21093266.616   -18344192.63249 -14271948.98047  21093265.926    21093270.970
  22508727.954     5882792.88349   4588072.96547  22508727.542    22508732.043
  21193176.904   -21578846.47849 -16798028.41347  21193176.509    21193182.857
  23829027.753    -9683579.21749  -7525058.92546  23829026.538    23829034.194
 04  4 21  0 55  0.0000000  0  7G31G15G11G14G22G25G19
  24434015.215    -4056365.66549  -3141064.55245  24434014.453    24434024.562
  22853184.738     6623490.29249   5169619.10146  22853183.900    22853192.455
  22356146.937   -16135206.30449 -12564816.45146  22356146.452    22356151.937
  21103450.895   -18290673.89349 -14230246.08047  21103450.225    21103455.244
  22519189.405     5937767.92549   4630910.62247  22519188.990    22519193.418
  21181896.062   -21638127.67949 -16844221.51247  21181895.659    21181901.999
  23842732.109    -9611562.75149  -7468942.30446  23842730.841    23842738.661
 04  4 21  0 55 30.0000000  0  7G31G15G11G14G22G25G19
  24447524.985    -3985372.30149  -3085745.19945  24447524.151    24447534.356
  22873871.535     6732199.45149   5254327.44646  22873870.679    22873879.254
  22344311.391   -16197402.77949 -12613281.22546  22344310.806    22344316.337
  21113677.049   -18236935.07849 -14188371.69247  21113676.396    21113681.412
  22529685.288     5992924.08949   4673889.41247  22529684.884    22529689.326
  21170701.144   -21696957.14749 -16890062.60947  21170700.759    21170707.103
  23856470.062    -9539369.55349  -7412687.96546  23856468.800    23856476.651
 04  4 21  0 56  0.0000000  0  7G31G15G11G14G22G25G19
  24461059.652    -3914247.92949  -3030323.74845  24461058.802    24461068.973
  22894601.432     6841135.29149   5339212.40546  22894600.588    22894609.145
  22332556.346   -16259175.75349 -12661415.99146  22332555.763    22332561.301
  21123944.748   -18182978.07349 -14146327.28747  21123944.088    21123949.094
  22540215.720     6048261.47649   4717009.41347  22540215.293    22540219.712
  21159592.595   -21755332.83449 -16935550.11547  21159592.199    21159598.525
  23870241.072    -9467002.70049  -7356298.31346  23870239.867    23870247.676
 04  4 21  0 56 30.0000000  0  7G31G15G11G14G22G25G19
  24474618.655    -3842995.24849  -2974802.30645  24474617.844    24474628.121
  22915374.064     6950295.53349   5424272.24646  22915373.177    22915381.733
  22320882.283   -16320523.12249 -12709219.11746  22320881.775    22320887.279
  21134253.699   -18128804.31749 -14104113.98247  21134253.011    21134258.027
  22550780.668     6103780.56349   4760270.99347  22550780.249    22550784.694
  21148570.711   -21813252.92749 -16980682.61547  21148570.330    21148576.632
  23884044.525    -9394465.30849  -7299775.78046  23884043.311    23884051.185
 04  4 21  0 57  0.0000000  0  7G31G15G11G14G22G25G19
  24488201.552    -3771617.36349  -2919183.31745  24488200.711    24488210.986
  22936188.944     7059678.06549   5509505.28446  22936188.038    22936196.662
  22309289.663   -16381442.71249 -12756688.90046  22309289.170    22309294.650
  21144603.587   -18074415.26749 -14061732.91247  21144602.916    21144607.940
  22561380.251     6159481.76649   4803674.49447  22561379.852    22561384.317
  21137635.944   -21870715.47949 -17025458.59147  21137635.549    21137641.820
  23897879.953    -9321760.05349  -7243122.45046  23897878.683    23897886.597
 04  4 21  0 57 30.0000000  0  7G31G15G11G14G22G25G19
  24501807.724    -3700117.25749  -2863469.07745  24501806.962    24501817.197
  22957045.569     7169279.99549   5594909.28946  22957044.638    22957053.322
  22297778.803   -16441932.75749 -12803823.97946  22297778.309    22297783.779
  21154994.044   -18019812.92249 -14019185.64147  21154993.363    21154998.419
  22572014.575     6215365.35649   4847220.10246  22572014.120    22572018.621
  21126788.530   -21927718.85849 -17069876.77047  21126788.139    21126794.394
  23911746.675    -9248890.25949  -7186340.90546  23911745.433    23911753.306
 04  4 21  0 58  0.0000000  0  7G31G15G11G14G22G25G19
  24515436.523    -3628497.70349  -2807661.78645  24515435.767    24515446.137
  22977943.440     7279098.90049   5680482.36046  22977942.522    22977951.283
  22286350.056   -16501991.09649 -12850622.66346  22286349.571    22286355.023
  21165424.795   -17964999.01649 -13976473.52047  21165424.122    21165429.195
  22582683.620     6271431.56549   4890908.01346  22582683.184    22582687.705
  21116028.826   -21984261.32349 -17113935.79347  21116028.438    21116034.676
  23925644.115    -9175858.67649  -7129433.27945  23925642.862    23925650.732
 04  4 21  0 58 30.0000000  0  7G31G15G11G14G22G25G19
  24529087.555    -3556761.99149  -2751763.96945  24529086.716    24529097.065
  22998882.152     7389132.20149   5766222.48046  22998881.255    22998890.047
  22275003.781   -16561615.93149 -12897083.55247  22275003.336    22275008.787
  21175895.426   -17909975.53449 -13933598.08847  21175894.753    21175899.837
  22593387.404     6327680.45049   4934738.26846  22593386.983    22593391.535
  21105357.126   -22040341.35249 -17157634.47547  21105356.726    21105362.952
  23939571.712    -9102668.85649  -7072402.36045  23939570.460    23939578.439
 04  4 21  0 59  0.0000000  0  7G31G15G11G14G22G25G19
  24542759.988    -3484912.89049  -2695777.81745  24542759.271    24542769.623
  23019861.246     7499377.67749   5852127.94646  23019860.352    23019869.148
  22263740.471   -16620805.20849 -12943205.04647  22263740.003    22263745.405
  21186405.649   -17854744.09349 -13890560.60547  21186404.957    21186410.042
  22604126.051     6384112.45649   4978711.22146  22604125.649    22604130.225
  21094773.715   -22095957.24649 -17200971.49147  21094773.322    21094779.530
  23953529.004    -9029323.61049  -7015250.34645  23953527.727    23953535.613
 04  4 21  0 59 30.0000000  0  7G31G15G11G14G22G25G19
  24556453.404    -3412953.96449  -2639706.07345  24556452.721    24556463.141
  23040880.175     7609832.17349   5938196.29446  23040879.211    23040888.051
  22252560.261   -16679557.65549 -12988986.14247  22252559.744    22252565.194
  21196955.036   -17799306.81449 -13847362.73447  21196954.364    21196959.429
  22614899.504     6440727.16349   5022826.52846  22614899.091    22614903.673
  21084278.896   -22151107.80549 -17243945.90347  21084278.498    21084284.691
  23967515.147    -8955826.61649  -6957980.07945  23967513.796    23967521.785
 04  4 21  1  0  0.0000000  0  7G31G15G11G14G22G25G19
  24570167.301    -3340887.37849  -2583550.44845  24570166.677    24570177.035
  23061938.523     7720493.96149   6024426.14546  23061937.562    23061946.405
  22241463.679   -16737870.58649 -13034424.76147  22241463.145    22241468.588
  21207543.398   -17743664.65749 -13804005.21447  21207542.724    21207547.768
  22625707.946     6497525.73249   5067085.10946  22625707.509    22625712.132
  21073873.139   -22205790.40949 -17286555.67548  21073872.742    21073878.906
  23981529.602    -8882180.22349  -6900593.39745  23981528.353    23981536.259
 04  4 21  1  0 30.0000000  0  7G31G15G11G14G22G25G19
  24583900.992    -3268716.76349  -2527313.77745  24583900.390    24583910.819
  23083035.757     7831360.07349   6110815.21946  23083034.757    23083043.608
  22230450.956   -16795742.84349 -13079519.99947  22230450.439    22230455.854
  21218170.321   -17687820.04849 -13760489.94447  21218169.627    21218174.661
  22636551.313     6554507.79349   5111486.66646  22636550.872    22636555.483
  21063556.606   -22260004.06149 -17328800.03248  21063556.194    21063562.341
  23995571.896    -8808387.98449  -6843093.08045  23995570.621    23995578.535
 04  4 21  1  1  0.0000000  0  7G31G15G11G14G22G25G19
  24597654.120    -3196444.45549  -2470997.83845  24597653.369    24597663.877
  23104171.302     7942428.08849   6197361.60446  23104170.335    23104179.239
  22219522.494   -16853172.03849 -13124269.98547  22219521.975    22219527.393
  21228835.465   -17631774.40249 -13716818.02047  21228834.773    21228839.816
  22647429.709     6611674.06249   5156031.76146  22647429.281    22647433.917
  21053329.638   -22313746.97149 -17370677.57148  21053329.223    21053335.354
  24009641.397    -8734452.67949  -6785481.29545  24009640.142    24009648.065
 04  4 21  1  1 30.0000000  0  7G31G15G11G14G22G25G19
  24611425.907    -3124074.05549  -2414605.50345  24611425.184    24611435.600
  23125344.945     8053695.49649   6284063.37146  23125343.937    23125352.832
  22208678.765   -16910156.04049 -13168673.07747  22208678.242    22208683.676
  21239538.504   -17575529.45349 -13672990.79747  21239537.814    21239542.884
  22658343.129     6669024.37049   5200720.26646  22658342.675    22658347.280
  21043192.531   -22367017.75449 -17412187.22848  21043192.101    21043198.219
  24023737.532    -8660377.64949  -6727760.63145  24023736.234    24023744.182
 04  4 21  1  2  0.0000000  0  7G31G15G11G14G22G25G19
  24625215.791    -3051608.08949  -2358138.68045  24625215.038    24625225.581
  23146556.001     8165159.90449   6370918.63746  23146554.933    23146563.916
  22197920.034   -16966693.44349 -13212728.16747  22197919.480    22197924.877
  21250279.193   -17519086.89249 -13629009.58647  21250278.508    21250283.585
  22669291.692     6726559.27449   5245552.61246  22669291.236    22669295.919
  21033145.610   -22419814.43349 -17453327.44948  21033145.177    21033151.305
  24037859.645    -8586165.73049  -6669933.29045  24037858.377    24037866.409
 04  4 21  1  2 30.0000000  0  7G31G15G11G14G22G25G19
  24639023.369    -2979049.45249  -2301599.64945  24639022.719    24639033.253
  23167804.053     8276818.81549   6457925.47446  23167803.023    23167811.999
  22187246.679   -17022782.33149 -13256433.76747  22187246.109    22187251.495
  21261057.127   -17462448.37249 -13584875.68147  21261056.457    21261061.526
  22680275.357     6784279.00249   5290528.97946  22680274.932    22680279.684
  21023189.187   -22472135.46049 -17494097.03748  21023188.769    21023194.893
  24052007.209    -8511819.89349  -6612001.62645  24052005.993    24052014.066
 04  4 21  1  3  0.0000000  0  7G31G15G11G14G22G25G19
  24652847.943    -2906401.32749  -2244990.89845  24652847.309    24652857.955
  23189088.525     8388669.74449   6545081.92346  23189087.618    23189096.594
  22176659.021   -17078420.74749 -13299788.34947  22176658.449    22176663.826
  21271872.046   -17405615.58649 -13540590.40047  21271871.360    21271876.442
  22691294.308     6842183.62149   5335649.42746  22691293.904    22691298.624
  21013323.576   -22523979.58049 -17534495.00848  21013323.169    21013329.248
  24066179.737    -8437343.34349  -6553968.09445  24066178.551    24066186.649
 04  4 21  1  3 30.0000000  0  7G31G15G11G14G22G25G19
  24666689.071    -2833666.47949  -2188314.57945  24666688.457    24666699.134
  23210409.166     8500710.01149   6632385.91446  23210408.268    23210417.293
  22166157.459   -17133606.84149 -13342790.47247  22166156.889    22166162.221
  21282723.611   -17348590.23149 -13496155.06847  21282722.937    21282728.018
  22702348.566     6900273.58549   5380914.30246  22702348.132    22702352.854
  21003549.053   -22575344.75449 -17574519.77448  21003548.636    21003554.710
  24080376.605    -8362738.99349  -6495834.97645  24080375.433    24080383.495
 04  4 21  1  4  0.0000000  0  7G31G15G11G14G22G25G19
  24680546.079    -2760848.15649  -2131573.18645  24680545.394    24680556.165
  23231765.314     8612936.85049   6719835.27846  23231764.405    23231773.399
  22155742.243   -17188339.19249 -13385439.02947  22155741.669    22155746.984
  21293611.437   -17291374.33649 -13451571.26347  21293610.770    21293615.826
  22713437.944     6958548.89149   5426323.59446  22713437.564    22713442.254
  20993865.903   -22626229.96549 -17614170.54148  20993865.499    20993871.569
  24094597.176    -8288010.41549  -6437605.06345  24094596.008    24094604.060
 04  4 21  1  4 30.0000000  0  7G31G15G11G14G22G25G19
  24694418.462    -2687949.05249  -2074768.86145  24694417.740    24694428.600
  23253156.586     8725348.08849   6807428.33546  23253155.625    23253164.730
  22145413.738   -17242615.55049 -13427732.26447  22145413.180    22145418.523
  21304535.318   -17233969.09849 -13406839.91947  21304534.638    21304539.697
  22724562.848     7017010.05049   5471877.70946  22724562.452    22724567.098
  20984274.413   -22676633.49249 -17653445.97148  20984273.989    20984280.053
  24108840.830    -8213160.28849  -6379280.42845  24108839.657    24108847.761
 04  4 21  1  5  0.0000000  0  7G31G15G11G14G22G25G19
  24708305.481    -2614972.09549  -2017903.89945  24708304.785    24708315.901
  23274582.340     8837941.16549   6895163.07546  23274581.393    23274590.582
  22135172.335   -17296434.17349 -13469668.82847  22135171.790    22135177.195
  21315494.880   -17176376.35949 -13361962.47147  21315494.190    21315499.233
  22735723.054     7075657.22249   5517576.77346  22735722.657    22735727.252
  20974774.815   -22726554.05149 -17692345.06448  20974774.406    20974780.455
  24123107.093    -8138191.65949  -6320863.45545  24123105.851    24123113.906
 04  4 21  1  5 30.0000000  0  7G31G15G11G14G22G25G19
  24722206.761    -2541920.45149  -1960980.73345  24722206.133    24722217.310
  23296042.361     8950713.84849   6983037.78146  23296041.496    23296050.558
  22125018.384   -17349793.32049 -13511247.36247  22125017.819    22125023.245
  21326489.768   -17118597.71649 -13316940.16047  21326489.079    21326494.121
  22746918.779     7134490.63849   5563420.96046  22746918.336    22746922.875
  20965367.478   -22775989.81149 -17730866.39148  20965367.068    20965373.090
  24137395.155    -8063107.55149  -6262356.51145  24137393.909    24137402.099
 04  4 21  1  6  0.0000000  0  7G31G15G11G14G22G25G19
  24736121.901    -2468796.02349  -1904000.82545  24736121.389    24736132.538
  23317536.046     9063663.63649   7071050.49545  23317535.186    23317544.302
  22114952.281   -17402691.08749 -13552466.38147  22114951.738    22114957.138
  21337519.798   -17060634.75549 -13271774.23047  21337519.093    21337524.104
  22758149.896     7193510.57949   5609410.49846  22758149.491    22758154.010
  20956052.611   -22824939.50849 -17769008.97048  20956052.217    20956058.225
  24151704.795    -7987910.62449  -6203761.65345  24151703.583    24151711.668
 04  4 21  1  6 30.0000000  0  7G31G15G11G14G22G25G19
  24750050.011    -2395603.84149  -1846968.13645  24750049.307    24750060.639
  23339062.776     9176786.64649   7159198.18245  23339061.853    23339070.968
  22104974.073   -17455126.91849 -13593325.43947  22104973.535    22104978.930
  21348584.319   -17002490.25749 -13226466.83447  21348583.633    21348588.640
  22769416.329     7252716.24949   5655544.75546  22769415.961    22769420.548
  20946830.282   -22873402.91249 -17806772.61448  20946829.892    20946835.898
  24166034.918    -7912605.55049  -6145082.52945  24166033.693    24166041.895
 04  4 21  1  7  0.0000000  0  7G31G15G11G14G22G25G19
  24763990.942    -2322345.27149  -1789883.70645  24763990.306    24764001.302
  23360622.099     9290081.61249   7247479.85645  23360621.199    23360630.334
  22095084.282   -17507097.87149 -13633822.26347  22095083.762    22095089.168
  21359683.380   -16944164.42949 -13181018.15047  21359682.699    21359687.687
  22780718.391     7312109.06149   5701824.82546  22780717.987    22780722.651
  20937701.057   -22921377.04249 -17844155.00548  20937700.672    20937706.668
  24180385.477    -7837193.80149  -6086320.26445  24180384.248    24180392.367
 04  4 21  1  7 30.0000000  0  7G31G15G11G14G22G25G19
  24777943.813    -2249023.48849  -1732749.99845  24777943.087    24777954.239
  23382213.795     9403545.83849   7335893.42945  23382212.851    23382221.938
  22085283.224   -17558602.49949 -13673955.71647  22085282.717    22085288.118
  21370816.511   -16885659.43549 -13135429.85447  21370815.822    21370820.851
  22792056.162     7371688.88149   5748250.62546  22792055.768    22792060.406
  20928665.114   -22968861.12549 -17881155.54348  20928664.717    20928670.713
  24194755.619    -7761678.97349  -6027477.69145  24194754.360    24194762.599
 04  4 21  1  8  0.0000000  0  7G31G15G11G14G22G25G19
  24791907.993    -2175641.35349  -1675569.29845  24791907.369    24791918.541
  23403837.215     9517176.92749   7424437.01045  23403836.271    23403845.355
  22075571.362   -17609638.82049 -13713724.25547  22075570.820    22075576.218
  21381983.479   -16826976.56349 -13089702.95247  21381982.811    21381987.849
  22803429.487     7431456.15149   5794822.48046  22803429.055    22803433.728
  20919722.779   -23015853.31649 -17917772.79548  20919722.368    20919728.344
  24209144.769    -7686063.79749  -5968556.92045  24209143.558    24209151.892
 04  4 21  1  8 30.0000000  0  7G31G15G11G14G22G25G19
  24805883.212    -2102202.20449  -1618344.12645  24805882.604    24805893.501
  23425491.714     9630971.82149   7513108.23045  23425490.790    23425499.919
  22065948.792   -17660205.44949 -13753126.80147  22065948.292    22065953.659
  21393183.899   -16768117.99349 -13043839.14047  21393183.238    21393188.262
  22814838.514     7491410.73549   5841540.30446  22814838.066    22814842.677
  20910874.201   -23062352.72049 -17954006.05548  20910873.793    20910879.754
  24223552.337    -7610351.84749  -5909560.74745  24223551.114    24223559.592
 04  4 21  1  9  0.0000000  0  7G31G15G11G14G22G25G19
  24819868.939    -2028708.06149  -1561076.12345  24819868.253    24819879.152
  23447177.058     9744928.58649   7601905.56245  23447176.087    23447185.258
  22056416.035   -17710300.20049 -13792161.64847  22056415.541    22056420.884
  21404417.583   -16709084.50549 -12997839.02847  21404416.901    21404421.965
  22826283.290     7551553.37849   5888404.65146  22826282.863    22826287.503
  20902119.646   -23108357.79349 -17989854.12048  20902119.244    20902125.219
  24237977.829    -7534545.63749  -5850491.13445  24237976.628    24237985.251
 04  4 21  1  9 30.0000000  0  7G31G15G11G14G22G25G19
  24833864.230    -1955162.91349  -1503768.39645  24833863.454    24833874.534
  23468892.560     9859044.17849   7690826.65945  23468891.634    23468900.965
  22046973.245   -17759922.37249 -13830828.25947  22046972.748    22046978.063
  21415684.052   -16649878.78749 -12951704.71347  21415683.381    21415688.431
  22837763.780     7611883.20649   5935414.85146  22837763.345    22837767.972
  20893459.418   -23153867.44949 -18025316.14448  20893458.999    20893464.982
  24252420.645    -7458648.70049  -5791350.83245  24252419.469    24252428.090
 04  4 21  1 10  0.0000000  0  7G31G15G11G14G22G25G19
  24847868.844    -1881568.53349  -1446422.27745  24847868.009    24847879.208
  23490637.960     9973316.93749   7779870.23645  23490637.071    23490646.589
  22037620.857   -17809069.43149 -13869124.64447  22037620.373    22037625.653
  21426983.190   -16590501.37549 -12905436.61047  21426982.519    21426987.587
  22849280.141     7672401.94649   5982572.26946  22849279.703    22849284.303
  20884893.844   -23198879.72149 -18060390.59648  20884893.429    20884899.397
  24266880.360    -7382663.23049  -5732141.53245  24266879.168    24266887.852
 04  4 21  1 10 30.0000000  0  7G31G15G11G14G22G25G19
  24861882.284    -1807928.69949  -1389040.76745  24861881.358    24861892.563
  23512412.578    10087743.34749   7869033.53345  23512411.796    23512421.419
  22028359.159   -17857740.35449 -13907050.01447  22028358.595    22028363.868
  21438314.596   -16530954.61749 -12859036.55347  21438313.914    21438318.974
  22860832.253     7733108.64249   6029876.14346  22860831.845    22860836.465
  20876422.993   -23243394.03749 -18095077.03348  20876422.583    20876428.558
  24281356.262    -7306593.12949  -5672866.29645  24281354.967    24281363.664
 04  4 21  1 11  0.0000000  0  7G31G15G11G14G22G25G19
  24875903.625    -1734246.24349  -1331626.05045  24875902.690    24875913.929
  23534216.058    10202320.99149   7958314.66445  23534215.281    23534224.935
  22019188.252   -17905933.53649 -13944603.11947  22019187.733    22019192.970
  21449677.887   -16471240.14849 -12812505.80147  21449677.207    21449682.278
  22872420.148     7794003.41749   6077326.55746  22872419.713    22872424.383
  20868047.159   -23287409.14149 -18129374.46848  20868046.752    20868052.723
  24295847.476    -7230441.34049  -5613527.40445  24295846.275    24295854.994
 04  4 21  1 11 30.0000000  0  7G31G15G11G14G22G25G19
  24889932.742    -1660523.81549  -1274180.18945  24889931.788    24889943.112
  23556048.090    10317047.78449   8047712.02645  23556047.198    23556056.865
  22010108.653   -17953647.10249 -13981782.50347  22010108.119    22010113.341
  21461072.850   -16411359.19049 -12765845.32647  21461072.159    21461077.257
  22884043.991     7855086.98349   6124924.09046  22884043.586    22884048.292
  20859766.583   -23330923.66149 -18163281.84348  20859766.184    20859772.120
  24310353.816    -7154210.68849  -5554127.07445  24310352.592    24310361.377
 04  4 21  1 12  0.0000000  0  6G15G11G14G22G25G19
  23577908.293    10431922.73149   8137224.83145  23577907.304    23577916.961
  22001120.963   -18000877.71149 -14018585.55347  22001120.441    22001125.653
  21472499.511   -16351311.66949 -12719055.05947  21472498.818    21472503.903
  22895704.100     7916361.13149   6172670.13246  22895703.694    22895708.423
  20851581.810   -23373934.87149 -18196797.02648  20851581.391    20851587.337
  24324874.978    -7077902.41749  -5494666.24345  24324873.710    24324882.531
 04  4 21  1 12 30.0000000  0  6G15G11G14G22G25G19
  23599796.977    10546947.62549   8226854.47845  23599795.971    23599805.583
  21992226.288   -18047619.40249 -14055007.63447  21992225.769    21992230.964
  21483958.370   -16291094.74949 -12672132.80147  21483957.706    21483962.823
  22907401.333     7977830.32649   6220568.15546  22907400.956    22907405.647
  20843493.914   -23416436.85449 -18229915.41848  20843493.490    20843499.427
  24339411.192    -7001514.99849  -5435143.76245  24339409.847    24339418.717
 04  4 21  1 13  0.0000000  0  6G15G11G14G22G25G19
  23621711.772    10662109.98249   8316591.23645  23621710.730    23621720.415
  21983423.069   -18093880.67049 -14091055.36347  21983422.513    21983427.705
  21495447.288   -16230720.16849 -12625087.68047  21495446.622    21495451.737
  22919133.846     8039484.65549   6268610.44946  22919133.444    22919138.106
  20835501.250   -23458438.51449 -18262643.94748  20835500.823    20835506.737
  24353959.923    -6925061.82949  -5375570.03645  24353958.495    24353967.456
 04  4 21  1 13 30.0000000  0  6G15G11G14G22G25G19
  23643652.544    10777409.19949   8406434.65045  23643651.540    23643661.235
  21974711.935   -18139658.13049 -14126726.09447  21974711.354    21974716.528
  21506966.327   -16170187.20649 -12577919.14747  21506965.647    21506970.791
  22930901.975     8101326.51149   6316798.86946  22930901.607    22930906.324
  20827604.328   -23499936.87349 -18294980.29248  20827603.900    20827609.805
  24368520.898    -6848543.68649  -5315945.69945  24368519.505    24368528.457
 04  4 21  1 14  0.0000000  0  6G15G11G14G22G25G19
  23665619.078    10892843.97149   8496383.68045  23665618.164    23665627.813
  21966093.378   -18184948.76849 -14162017.48747  21966092.811    21966098.007
  21518515.462   -16109496.17949 -12530627.44747  21518514.802    21518519.933
  22942706.038     8163357.28049   6365134.48746  22942705.665    22942710.413
  20819803.658   -23540929.44849 -18326922.51748  20819803.230    20819809.131
  24383093.979    -6771962.33649  -5256272.11845  24383092.516    24383101.550
 04  4 21  1 14 30.0000000  0  6G15G11G14G22G25G19
  23687610.920    11008411.55749   8586436.19345  23687609.988    23687619.640
  21957567.733   -18229751.20149 -14196928.45247  21957567.173    21957572.339
  21530094.360   -16048648.87749 -12483213.97747  21530093.696    21530098.820
  22954546.042     8225576.90149   6413617.26146  22954545.638    22954550.465
  20812099.395   -23581415.39849 -18358469.97148  20812098.964    20812104.868
  24397678.425    -6695321.11049  -5196551.88845  24397676.999    24397686.067
 04  4 21  1 15  0.0000000  0  6G15G11G14G22G25G19
  23709627.718    11124110.06849   8676590.74245  23709626.806    23709636.482
  21949135.323   -18274063.91249 -14231457.82447  21949134.770    21949139.893
  21541702.763   -15987646.53749 -12435679.69747  21541702.070    21541707.183
  22966422.108     8287985.99449   6462247.68446  22966421.677    22966426.535
  20804491.858   -23621393.25549 -18389621.51448  20804491.440    20804497.309
  24412273.649    -6618622.40749  -5136786.86345  24412272.305    24412281.537
 04  4 21  1 15 30.0000000  0  6G15G11G14G22G25G19
  23731668.898    11239936.74349   8766845.13545  23731667.968    23731677.595
  21940796.368   -18317885.31849 -14265604.36047  21940795.813    21940800.925
  21553340.352   -15926490.79549 -12388025.88547  21553339.653    21553344.761
  22978334.199     8350584.44649   6511025.66146  22978333.751    22978338.682
  20796981.201   -23660861.81649 -18420376.20548  20796980.770    20796986.632
  24426879.542    -6541869.48649  -5076979.60845  24426878.144    24426887.297
 04  4 21  1 16  0.0000000  0  6G15G11G14G22G25G19
  23753734.056    11355889.38249   8857197.68945  23753733.232    23753742.762
  21932551.334   -18361213.34549 -14299366.44547  21932550.751    21932555.862
  21565006.986   -15865182.45849 -12340253.16947  21565006.277    21565011.356
  22990282.443     8413372.92449   6559951.69646  22990281.999    22990286.943
  20789567.765   -23699819.56849 -18450732.85448  20789567.322    20789573.180
  24441495.153    -6465064.84449  -5017132.04545  24441493.766    24441502.867
 04  4 21  1 16 30.0000000  0  6G15G11G14G22G25G19
  23775822.678    11471965.45149   8947646.42345  23775821.881    23775831.409
  21924400.401   -18404046.51149 -14332742.92547  21924399.864    21924404.931
  21576702.306   -15803723.14149 -12292362.80447  21576701.610    21576706.685
  23002266.948     8476351.74849   6609026.06146  23002266.502    23002271.486
  20782251.661   -23738265.77849 -18480690.90448  20782251.227    20782257.078
  24456120.054    -6388211.42449  -4957246.46445  24456118.631    24456127.781
 04  4 21  1 17  0.0000000  0  6G15G11G14G22G25G19
  23797934.365    11588162.30349   9038189.27345  23797933.513    23797943.146
  21916343.856   -18446383.76949 -14365732.98147  21916343.311    21916348.435
  21588426.036   -15742114.59149 -12244356.15047  21588425.344    21588430.415
  23014287.753     8539520.80849   6658248.65946  23014287.240    23014292.264
  20775033.131   -23776199.24949 -18510249.41748  20775032.684    20775038.549
  24470753.555    -6311312.20849  -4897325.19445  24470752.190    24470761.329
 04  4 21  1 17 30.0000000  0  7G15G11G14G22G25G19G20
  23820067.800    11704473.32249   9128821.08345  23820066.940    23820076.559
  21908381.203   -18488227.75249 -14398338.66647  21908380.664    21908385.779
  21600177.111   -15680362.27749 -12196237.47447  21600176.399    21600181.490
  23026343.796     8602876.20749   6707616.44446  23026343.373    23026348.470
  20767911.594   -23813623.06649 -18539410.80148  20767911.154    20767917.004
  24485394.483    -6234374.40849  -4837373.87445  24485393.105    24485402.350
  24693221.939    -3379543.10849  -2093242.37045  24693220.810    24693229.338
 04  4 21  1 18  0.0000000  0  7G15G11G14G22G25G19G20
  23842223.199    11820900.47149   9219543.38445  23842222.483    23842232.065
  21900513.537   -18529572.32149 -14430555.19847  21900513.010    21900518.167
  21611956.168   -15618463.05749 -12148004.32747  21611955.474    21611960.514
  23038436.344     8666422.51849   6757133.00546  23038435.902    23038441.016
  20760888.079   -23850531.73449 -18568170.76648  20760887.647    20760893.480
  24500043.127    -6157396.25749  -4777391.09545  24500041.774    24500050.971
  24676418.254    -3467846.82049  -2162050.35645  24676417.171    24676425.465
 04  4 21  1 18 30.0000000  0  7G15G11G14G22G25G19G20
  23864400.472    11937442.30149   9310355.05445  23864399.770    23864409.325
  21892741.343   -18570415.22049 -14462380.82047  21892740.831    21892746.033
  21623763.018   -15556417.48149 -12099657.13947  21623762.341    21623767.420
  23050565.413     8730161.04949   6806799.33746  23050564.936    23050570.066
  20753962.895   -23886923.78949 -18596528.17048  20753962.451    20753968.266
  24514698.970    -6080379.99649  -4717378.63545  24514697.568    24514706.875
  24659606.810    -3556191.83849  -2230890.51045  24659605.681    24659613.828
 04  4 21  1 19  0.0000000  0  7G15G11G14G22G25G19G20
  23886599.085    12054096.23049   9401254.05045  23886598.312    23886607.989
  21885064.813   -18610755.50949 -14493814.79447  21885064.316    21885069.537
  21635597.468   -15494227.01049 -12051197.04747  21635596.778    21635601.853
  23062731.021     8794091.71749   6856615.39146  23062730.584    23062735.758
  20747136.211   -23922798.01149 -18624482.07648  20747135.777    20747141.579
  24529361.475    -6003328.70949  -4657338.89245  24529360.187    24529369.507
  24642787.536    -3644577.34149  -2299762.23045  24642786.524    24642794.459
 04  4 21  1 19 30.0000000  0  7G15G11G14G22G25G19G20
  23908818.387    12170858.88349   9492237.78445  23908817.530    23908827.389
  21877484.048   -18650592.62849 -14524856.68947  21877483.533    21877488.773
  21647459.008   -15431894.19149 -12002626.03347  21647458.316    21647463.407
  23074933.109     8858213.56949   6906580.43646  23074932.646    23074937.808
  20740408.079   -23958154.40949 -18652032.47948  20740407.645    20740413.434
  24544029.982    -5926246.08349  -4597274.71645  24544028.572    24544037.991
  24625960.556    -3733003.48349  -2368665.62045  24625959.713    24625967.499
 04  4 21  1 20  0.0000000  0  7G15G11G14G22G25G19G20
  23931057.921    12287727.53449   9583304.12045  23931057.074    23931066.869
  21869999.390   -18689924.77149 -14555505.10147  21869998.875    21870004.114
  21659347.353   -15369420.44849 -11953945.20447  21659346.686    21659351.768
  23087171.486     8922526.81649   6956694.60146  23087171.064    23087176.216
  20733778.661   -23992992.11249 -18679178.70748  20733778.214    20733783.994
  24558703.945    -5849135.11349  -4537188.46745  24558702.554    24558712.055
  24609125.767    -3821469.60049  -2437600.15245  24609124.938    24609132.880
 04  4 21  1 20 30.0000000  0  7G15G11G14G22G25G19G20
  23953317.134    12404699.45349   9674450.88645  23953316.204    23953326.093
  21862610.853   -18728751.40049 -14585759.60347  21862610.380    21862615.611
  21671262.242   -15306807.37349 -11905155.80647  21671261.548    21671266.658
  23099446.379     8987031.41549   7006957.87846  23099445.916    23099451.038
  20727248.070   -24027310.47549 -18705920.25348  20727247.635    20727253.399
  24573382.679    -5771999.01449  -4477082.64745  24573381.252    24573390.751
  24592283.723    -3909975.19649  -2506565.41245  24592282.796    24592290.675
 04  4 21  1 21  0.0000000  0  7G15G11G14G22G25G19G20
  23975595.361    12521771.56749   9765675.77245  23975594.461    23975604.401
  21855318.781   -18767071.57749 -14615619.46847  21855318.268    21855323.507
  21683203.210   -15244057.14249 -11856259.53547  21683202.521    21683207.651
  23111757.565     9051726.82249   7057369.83146  23111757.104    23111762.201
  20720816.306   -24061109.44049 -18732257.07548  20720815.868    20720821.625
  24588065.486    -5694841.19349  -4416959.91445  24588064.077    24588073.768
  24575434.233    -3998520.01249  -2575561.26745  24575433.182    24575441.186
 04  4 21  1 21 30.0000000  0  7G15G11G14G22G25G19G20
  23997892.350    12638942.63749   9856977.72345  23997891.535    23997901.471
  21848123.555   -18804882.72049 -14645082.68447  21848123.049    21848128.252
  21695170.276   -15181169.77449 -11807256.40847  21695169.607    21695174.727
  23124105.314     9116614.40049   7107931.52946  23124104.835    23124109.925
  20714483.804   -24094386.76249 -18758187.42348  20714483.382    20714489.123
  24602751.956    -5617663.57249  -4356821.73545  24602750.730    24602760.294
  24558577.442    -4087101.86449  -2644585.97645  24558576.362    24558584.490
 04  4 21  1 22  0.0000000  0  7G15G11G14G22G25G19G20
  24020207.465    12756208.39549   9948353.47045  24020206.617    24020216.599
  21841025.187   -18842184.89849 -14674149.30347  21841024.663    21841029.876
  21707162.810   -15118148.45449 -11758148.89447  21707162.134    21707167.269
  23136489.297     9181692.57149   7158641.75046  23136488.872    23136493.871
  20708250.429   -24127143.26649 -18783711.93848  20708250.007    20708255.731
  24617441.505    -5540470.38149  -4296671.41245  24617440.351    24617449.799
  24541713.706    -4175721.62149  -2713640.21645  24541712.715    24541720.590
 04  4 21  1 22 30.0000000  0  8G15G11G14G30G22G25G19G20
  24042540.273    12873567.40749  10039801.88345  24042539.406    24042549.438
  21834023.974   -18878976.45649 -14702818.04447  21834023.480    21834028.685
  21719180.840   -15054993.51549 -11708937.26747  21719180.154    21719185.269
  24405560.898    -1170784.26849   -908081.47645  24405560.602    24405569.585
  23148909.724     9246962.64249   7209501.49146  23148909.323    23148914.405
  20702116.530   -24159377.02649 -18808829.11848  20702116.113    20702121.816
  24632133.521    -5463263.71549  -4236510.60045  24632132.429    24632141.768
  24524842.934    -4264377.70949  -2782722.77845  24524841.865    24524849.964
 04  4 21  1 23  0.0000000  0  8G15G11G14G30G22G25G19G20
  24064890.833    12991019.53949  10131322.86545  24064889.944    24064900.019
  21827120.665   -18915253.69949 -14731086.01447  21827120.169    21827125.354
  21731224.489   -14991703.76749 -11659620.58747  21731223.797    21731228.873
  24398747.712    -1206587.28049   -935979.77745  24398747.489    24398756.458
  23161367.314     9312427.12349   7260512.72946  23161366.879    23161371.967
  20696082.698   -24191084.78949 -18833536.42848  20696082.280    20696087.961
  24646828.156    -5386043.85949  -4176339.54345  24646827.017    24646836.547
  24507965.885    -4353066.56149  -2851830.85045  24507964.859    24507972.847
 04  4 21  1 23 30.0000000  0  7G15G11G14G30G22G25G20
  24087257.953    13108559.61449  10222912.34845  24087257.149    24087267.384
  21820314.962   -18951017.96149 -14758954.26047  21820314.451    21820319.620
  21743293.023   -14928283.30849 -11610202.05747  21743292.322    21743297.414
  24392009.765    -1241995.57649   -963570.56945  24392009.323    24392018.263
  23173861.378     9378083.28749   7311673.33246  23173860.880    23173865.860
  20690148.554   -24222268.89649 -18857835.69848  20690148.139    20690153.801
  24491082.322    -4441790.37449  -2920966.19145  24491081.157    24491089.230
 04  4 21  1 24  0.0000000  0  7G15G11G14G30G22G25G20
  24109641.729    13226185.47049  10314568.69645  24109640.713    24109651.052
  21813607.176   -18986267.55349 -14786421.46447  21813606.664    21813611.821
  21755386.218   -14864733.25249 -11560682.54147  21755385.500    21755390.609
  24385347.451    -1277006.41149   -990851.63245  24385347.154    24385355.707
  23186391.893     9443931.69449   7362983.73246  23186391.485    23186396.515
  20684314.209   -24252928.47549 -18881726.24548  20684313.788    20684319.447
  24474192.226    -4530547.65749  -2990127.59945  24474191.160    24474199.134
 04  4 21  1 24 30.0000000  0  7G15G11G14G30G22G25G20
  24132040.705    13343892.41949  10406288.22145  24132039.697    24132050.036
  21806997.173   -19021003.42549 -14813488.36547  21806996.621    21807001.780
  21767503.408   -14801056.98249 -11511064.68247  21767502.701    21767507.803
  24378760.826    -1311619.73549  -1017822.99145  24378760.605    24378768.653
  23198958.723     9509970.31749   7414442.35046  23198958.255    23198963.274
  20678579.498   -24283064.40949 -18905208.75448  20678579.088    20678584.734
  24457295.560    -4619339.85749  -3059316.21445  24457294.558    24457302.418
 04  4 21  1 25  0.0000000  0  7G15G11G14G30G22G25G20
  24154454.792    13461678.64849  10498069.52645  24154453.740    24154464.171
  21800485.220   -19055223.74849 -14840153.54247  21800484.679    21800489.850
  21779644.514   -14737255.06549 -11461348.91247  21779643.816    21779648.920
  24372250.291    -1345832.53449  -1044482.22345  24372250.062    24372257.989
  23211561.722     9576199.68849   7466049.61246  23211561.271    23211566.310
  20672944.670   -24312675.56049 -18928282.34348  20672944.269    20672949.889
  24440392.424    -4708165.35949  -3128530.78245  24440391.350    24440399.293
 04  4 21  1 25 30.0000000  0  7G15G11G14G30G22G25G20
  24176883.571    13579542.39249  10589911.22145  24176882.532    24176892.935
  21794071.745   -19088926.78949 -14866415.64247  21794071.188    21794076.347
  21791809.439   -14673328.21849 -11411535.79547  21791808.715    21791813.845
  24365816.628    -1379641.70949  -1070826.96945  24365816.326    24365824.092
  23224201.195     9642620.83049   7517806.29646  23224200.770    23224205.917
  20667410.048   -24341760.13149 -18950945.61248  20667409.640    20667415.237
  24423483.491    -4797022.36049  -3197769.92445  24423482.445    24423490.320
 04  4 21  1 26  0.0000000  0  7G15G11G14G30G22G25G20
  24199326.583    13697480.39649  10681810.78645  24199325.515    24199336.054
  21787756.835   -19122111.98749 -14892274.22947  21787756.300    21787761.406
  21803997.677   -14609278.58649 -11361626.99847  21803996.967    21804002.087
  24359459.946    -1413045.89749  -1096856.14545  24359459.956    24359467.284
  23236877.260     9709233.14649   7569711.96646  23236876.755    23236881.877
  20661975.524   -24370318.49749 -18973198.84748  20661975.112    20661980.712
  24406568.555    -4885910.89149  -3267033.61745  24406567.465    24406575.261
 04  4 21  1 26 30.0000000  0  7G15G11G14G30G22G25G20
  24221783.419    13815491.35249  10773767.18145  24221782.388    24221792.957
  21781540.838   -19154777.27949 -14917727.69347  21781540.313    21781545.391
  21816209.236   -14545106.43349 -11311622.73347  21816208.533    21816213.667
  24353180.999    -1446041.93849  -1122567.31245  24353181.133    24353188.362
  23249589.637     9776037.51149   7621767.27046  23249589.224    23249594.334
  20656641.483   -24398348.83549 -18995040.63448  20656641.075    20656646.692
  24389647.828    -4974829.22949  -3336320.55645  24389646.819    24389654.559
 04  4 21  1 27  0.0000000  0  7G15G11G14G30G22G25G20
  24244253.648    13933572.53549  10865778.31745  24244252.623    24244263.117
  21775423.910   -19186921.91449 -14942775.45247  21775423.378    21775428.449
  21828443.817   -14480813.20249 -11261524.12347  21828443.103    21828448.250
  24346979.988    -1478627.48949  -1147958.52345  24346980.166    24346987.764
  23262338.734     9843034.00749   7673972.29746  23262338.238    23262343.366
  20651408.011   -24425850.89049 -19016470.77548  20651407.598    20651413.203
  24372721.481    -5063776.65249  -3405630.14745  24372720.488    24372728.250
 04  4 21  1 27 30.0000000  0  7G15G11G14G30G22G25G20
  24266736.869    14051721.34349  10957842.14745  24266735.808    24266746.249
  21769406.253   -19218544.73549 -14967416.60547  21769405.704    21769410.816
  21840701.160   -14416400.37749 -11211332.32247  21840700.458    21840705.630
  24340857.401    -1510800.54049  -1173028.30945  24340857.644    24340865.602
  23275124.353     9910222.69149   7726327.07346  23275123.867    23275129.029
  20646275.168   -24452824.22549 -19037488.92748  20646274.731    20646280.311
  24355789.872    -5152751.84149  -3474961.38145  24355788.928    24355796.694
 04  4 21  1 28  0.0000000  0  7G15G11G14G30G22G25G20
  24289232.274    14169935.21749  11049956.65545  24289231.225    24289241.885
  21763488.100   -19249644.81549 -14991650.42847  21763487.551    21763492.667
  21852980.985   -14351869.42749 -11161048.48047  21852980.287    21852985.463
  24334813.977    -1542559.03649  -1197775.08445  24334814.229    24334822.116
  23287946.478     9977603.35249   7778831.43546  23287946.030    23287951.184
  20641243.033   -24479268.22249 -19058094.61148  20641242.585    20641248.139
  24338853.276    -5241754.41049  -3544313.95845  24338852.233    24338859.912
 04  4 21  1 28 30.0000000  0  7G15G11G14G30G22G25G20
  24311739.424    14288211.55349  11142119.85045  24311738.713    24311749.390
  21757669.547   -19280221.34849 -15015476.29047  21757668.999    21757674.128
  21865283.043   -14287221.58749 -11110673.55147  21865282.360    21865287.545
  24328849.790    -1573900.81849  -1222197.16345  24328849.968    24328857.933
  23300805.123    10045175.78649   7831485.24346  23300804.599    23300809.852
  20636311.623   -24505182.84649 -19078287.79648  20636311.179    20636316.711
  24321911.423    -5330783.48049  -3613687.20545  24321910.402    24321918.137
 04  4 21  1 29  0.0000000  0  7G15G11G14G30G22G25G20
  24334258.312    14406548.23049  11234330.03645  24334257.574    24334268.266
  21751950.986   -19310272.66749 -15038892.89147  21751950.448    21751955.544
  21877607.160   -14222457.83649 -11060208.30947  21877606.498    21877611.675
  24322965.244    -1604823.48449  -1246292.65845  24322965.461    24322973.346
  23313700.301    10112940.58649   7884288.91746  23313699.861    23313705.200
  20631481.131   -24530567.05649 -19098067.67548  20631480.703    20631486.229
  24304964.845    -5419837.59049  -3683079.93945  24304963.855    24304971.670
 04  4 21  1 29 30.0000000  0  7G15G11G14G30G22G25G20
  24356788.148    14524942.07449  11326584.77545  24356787.246    24356797.996
  21746332.283   -19339799.09849 -15061900.48747  21746331.758    21746336.841
  21889952.984   -14157580.18949 -11009654.31247  21889952.321    21889957.484
  24317160.873    -1635325.50649  -1270060.38945  24317160.961    24317169.045
  23326631.999    10180897.09449   7937242.01846  23326631.549    23326636.854
  20626751.659   -24555420.68549 -19117434.10748  20626751.207    20626756.728
  24288013.510    -5508916.62649  -3752492.14045  24288012.669    24288020.401
 04  4 21  1 30  0.0000000  0  7G15G11G14G30G22G25G20
  24379328.357    14643390.73049  11418882.24845  24379327.493    24379338.273
  21740813.800   -19368798.86949 -15084497.69547  21740813.268    21740818.388
  21902320.316   -14092589.56449 -10959012.28647  21902319.620    21902324.767
  24311436.867    -1665404.51949  -1293498.49545  24311436.862    24311444.961
  23339600.243    10249045.54249   7990344.63146  23339599.771    23339605.162
  20622123.211   -24579743.04749 -19136386.56948  20622122.772    20622128.289
  24271057.830    -5598019.25049  -3821922.68345  24271057.066    24271064.648
 04  4 21  1 30 30.0000000  0  7G15G11G14G30G22G25G20
  24401878.425    14761891.44249  11511220.26445  24401877.531    24401888.323
  21735395.686   -19397271.18649 -15106683.90547  21735395.169    21735400.270
  21914708.885   -14027487.24549 -10908283.22547  21914708.213    21914713.328
  24305793.998    -1695058.48849  -1316605.43545  24305793.969    24305801.965
  23352605.046    10317385.67449   8043596.65546  23352604.588    23352609.853
  20617595.931   -24603533.99749 -19154924.94448  20617595.486    20617600.989
  24254097.789    -5687144.79149  -3891371.05245  24254096.998    24254104.669
 04  4 21  1 31  0.0000000  0  7G15G11G14G30G22G25G20
  24424437.968    14880442.14849  11603597.19945  24424437.143    24424448.049
  21730078.114   -19425215.14749 -15128458.40947  21730077.600    21730082.695
  21927118.491   -13962274.55849 -10857468.16947  21927117.782    21927122.904
  24300232.315    -1724285.22349  -1339379.45545  24300232.319    24300240.285
  23365646.319    10385917.81949   8096998.27946  23365645.880    23365651.125
  20613169.859   -24626793.10249 -19173048.89648  20613169.410    20613174.896
  24237133.692    -5776291.97049  -3960836.34745  24237132.812    24237140.409
 04  4 21  1 31 30.0000000  0  7G15G11G14G30G22G25G20
  24447006.534    14999040.19649  11696011.07745  24447005.740    24447016.717
  21724861.178   -19452630.06349 -15149820.67147  21724860.702    21724865.797
  21939548.784   -13896952.99049 -10806568.27147  21939548.087    21939553.218
  24294752.151    -1753082.89549  -1361819.13245  24294752.203    24294760.179
  23378724.258    10454641.87549   8150549.44346  23378723.767    23378728.939
  20608845.022   -24649520.13849 -19190758.24648  20608844.564    20608850.044
  24220165.633    -5865460.06549  -4030317.91045  24220164.600    24220172.151
 04  4 21  1 32  0.0000000  0  8G15G11G14G30G22G25G 1G20
  24469583.238    15117680.69949  11788457.99845  24469582.430    24469593.528
  21719744.713   -19479517.41149 -15170771.83947  21719744.194    21719749.314
  21951999.126   -13831525.99349 -10755586.21847  21951998.408    21952003.568
  24289353.841    -1781451.66849  -1383924.59645  24289353.910    24289361.607
  23391838.042    10523555.20949   8204248.10546  23391837.598    23391842.718
  20604621.009   -24671717.15549 -19208054.59248  20604620.558    20604626.029
  24603413.821    -4109026.24949  -3027657.68045  24603413.222    24603424.632
  24203193.167    -5954650.55649  -4099816.91445  24203192.148    24203199.654
 04  4 21  1 32 30.0000000  0  8G15G11G14G30G22G25G 1G20
  24492168.068    15236363.07849  11880937.55745  24492167.215    24492178.323
  21714729.117   -19505874.47649 -15191309.79947  21714728.596    21714733.703
  21964469.713   -13765992.66349 -10704521.30747  21964469.014    21964474.178
  24284037.823    -1809387.58049  -1405692.80345  24284037.750    24284045.397
  23404988.256    10592660.18449   8258096.06546  23404987.774    23404993.134
  20600498.305   -24693381.84349 -19224936.13848  20600497.872    20600503.367
  24588724.146    -4186220.59549  -3087808.84345  24588723.362    24588734.842
  24186217.065    -6043860.32949  -4169330.94045  24186216.130    24186223.558
 04  4 21  1 33  0.0000000  0  8G15G11G14G30G22G25G 1G20
  24514760.746    15355086.76749  11973449.29545  24514759.715    24514770.898
  21709815.097   -19531698.02749 -15211432.03147  21709814.568    21709819.646
  21976960.638   -13700352.58049 -10653373.22147  21976959.927    21976965.110
  24278804.840    -1836886.63449  -1427120.56145  24278804.783    24278812.428
  23418175.370    10661958.59949   8312094.80046  23418174.895    23418180.134
  20596477.398   -24714511.64349 -19241400.88648  20596476.966    20596482.470
  24574062.640    -4263265.56949  -3147843.63045  24574061.962    24574073.113
  24169237.953    -6133086.49149  -4238857.74845  24169237.016    24169244.326
 04  4 21  1 33 30.0000000  0  8G15G11G14G30G22G25G 1G20
  24537360.420    15473848.50549  12065990.67045  24537359.479    24537370.572
  21705002.519   -19556988.20949 -15231138.65347  21705001.990    21705007.067
  21989471.495   -13634607.62349 -10602143.40847  21989470.806    21989475.980
  24273655.312    -1863947.63349  -1448207.00045  24273655.198    24273662.960
  23431399.054    10731449.44849   8366243.46546  23431398.650    23431403.893
  20592558.127   -24735107.33549 -19257449.44448  20592557.699    20592563.209
  24559429.489    -4340161.71749  -3207762.41245  24559428.762    24559440.197
  24152255.673    -6222328.79549  -4308397.13445  24152254.792    24152262.027
 04  4 21  1 34  0.0000000  0  8G15G11G14G30G22G25G 1G20
  24559966.796    15592645.56849  12158559.61645  24559965.849    24559977.117
  21700291.470   -19581744.86249 -15250429.54147  21700290.931    21700296.006
  22002002.059   -13568759.43049 -10550833.15447  22002001.341    22002006.483
  24268589.360    -1890568.92149  -1468950.79045  24268589.305    24268596.989
  23444659.388    10801132.58649   8420541.96846  23444658.911    23444664.145
  20588740.573   -24755168.51549 -19273081.50348  20588740.162    20588745.674
  24544824.762    -4416909.26149  -3267565.44245  24544823.892    24544835.181
  24135270.451    -6311586.63849  -4377948.61945  24135269.551    24135276.772
 04  4 21  1 34 30.0000000  0  8G15G11G14G30G22G25G 1G20
  24582579.270    15711475.55849  12251154.14445  24582578.305    24582589.875
  21695682.103   -19605967.05749 -15269303.96647  21695681.582    21695686.662
  22014552.046   -13502808.90349 -10499443.15447  22014551.333    22014556.469
  24263607.413    -1916748.44349  -1489350.31745  24263607.364    24263614.988
  23457956.376    10871008.02749   8474990.33246  23457955.945    23457961.131
  20585024.767   -24774695.05949 -19288296.96548  20585024.364    20585029.856
  24530248.389    -4493507.67549  -3327252.24345  24530247.503    24530258.735
  24118282.482    -6400858.85349  -4447511.31045  24118281.561    24118288.793
 04  4 21  1 35  0.0000000  0  8G15G11G14G30G22G25G 1G20
  24605197.733    15830335.37549  12343771.96245  24605196.857    24605208.415
  21691174.471   -19629654.52049 -15287761.72047  21691173.973    21691179.092
  22027121.139   -13436757.83749 -10447974.81247  22027120.442    22027125.567
  24258709.899    -1942484.74949  -1509404.47845  24258709.824    24258717.400
  23471289.666    10941075.24949   8529588.11746  23471289.254    23471294.444
  20581410.605   -24793687.50949 -19303096.24748  20581410.196    20581415.660
  24515700.430    -4569957.51649  -3386823.29545  24515699.474    24515710.626
  24101291.791    -6490144.74349  -4517084.63645  24101290.954    24101298.227
 04  4 21  1 35 30.0000000  0  7G11G14G30G22G25G 1G20
  21686769.005   -19652805.26149 -15305801.24647  21686768.513    21686773.629
  22039709.382   -13370606.29149 -10396428.17947  22039708.667    22039713.794
  24253897.278    -1967774.88149  -1529110.97345  24253897.197    24253904.896
  23484659.810    11011335.09449   8584336.01246  23484659.279    23484664.506
  20577898.415   -24812144.09649 -19317477.97548  20577897.998    20577903.446
  24501180.722    -4646257.50449  -3446277.57545  24501179.827    24501190.825
  24084298.904    -6579442.47649  -4586667.18045  24084297.978    24084305.253
 04  4 21  1 36  0.0000000  0  7G11G14G30G22G25G 1G20
  21682465.715   -19675419.31749 -15323422.57547  21682465.212    21682470.302
  22052316.357   -13304356.20649 -10344804.75547  22052315.660    22052320.753
  24249169.532    -1992617.65549  -1548468.89945  24249169.559    24249177.350
  23498066.259    11081786.91649   8639233.49946  23498065.808    23498071.010
  20574488.029   -24830065.64549 -19331442.79148  20574487.609    20574493.045
  24486689.759    -4722407.98349  -3505615.37845  24486688.908    24486699.601
  24067303.947    -6668751.34749  -4656258.42945  24067302.973    24067310.236
 04  4 21  1 36 30.0000000  0  7G11G14G30G22G25G 1G20
  21678264.459   -19697497.01249 -15340625.96047  21678263.940    21678269.023
  22064941.670   -13238009.83149 -10293106.30247  22064940.969    22064946.097
  24244527.567    -2017011.82549  -1567477.28045  24244527.583    24244535.208
  23511509.187    11152429.86749   8694279.90146  23511508.661    23511514.007
  20571179.406   -24847452.70849 -19344991.12748  20571178.979    20571184.387
  24472226.830    -4798409.67249  -3564837.22945  24472226.041    24472236.740
  24050306.641    -6758071.42649  -4725858.37945  24050305.720    24050313.164
 04  4 21  1 37  0.0000000  0  7G11G14G30G22G25G 1G20
  21674165.520   -19719037.25149 -15357410.55047  21674164.968    21674170.040
  22077585.160   -13171567.90649 -10241333.39247  22077584.456    22077589.589
  24239971.262    -2040955.47849  -1586134.57745  24239971.198    24239978.810
  23524988.521    11223263.87149   8749475.18546  23524988.050    23524993.321
  20567972.477   -24864304.94849 -19358122.71248  20567972.079    20567977.477
  24457792.320    -4874262.25249  -3623942.91445  24457791.653    24457802.307
  24033307.711    -6847401.28849  -4795465.96645  24033306.818    24033314.302
 04  4 21  1 37 30.0000000  0  7G11G14G30G22G25G 1G20
  21670168.880   -19740039.58449 -15373775.99047  21670168.325    21670173.399
  22090246.628   -13105031.53649 -10189486.88747  22090245.921    22090251.075
  24235500.953    -2064446.71949  -1604439.36645  24235500.872    24235508.578
  23538504.074    11294289.07649   8804819.45146  23538503.682    23538508.926
  20564867.390   -24880622.13049 -19370837.37148  20564866.979    20564872.393
  24443386.255    -4949965.72349  -3682932.42245  24443385.477    24443396.229
  24016307.071    -6936740.00049  -4865080.45945  24016306.118    24016313.491
 04  4 21  1 38  0.0000000  0  7G11G14G30G22G25G 1G20
  21666274.735   -19760503.29049 -15389721.72447  21666274.181    21666279.257
  22102925.891   -13038401.68149 -10137567.53847  22102925.173    22102930.298
  24231117.178    -2087483.66849  -1622390.14945  24231117.166    24231124.931
  23552056.181    11365505.51149   8860312.72346  23552055.761    23552060.980
  20561864.088   -24896404.53649 -19383135.32748  20561863.668    20561869.081
  24429008.444    -5025519.75249  -3741805.43545  24429007.760    24429018.801
  23999304.909    -7026086.29649  -4934700.83145  23999304.077    23999311.359
 04  4 21  1 38 30.0000000  0  7G11G14G30G22G25G 1G20
  21662483.241   -19780427.72449 -15405247.24647  21662482.675    21662487.743
  22115622.737   -12971679.49449 -10085576.24847  22115622.023    22115627.177
  24226820.227    -2110064.39449  -1639985.44645  24226820.222    24226827.794
  23565644.594    11436913.07549   8915954.93346  23565644.213    23565649.384
  20558962.554   -24911652.04249 -19395016.47848  20558962.157    20558967.541
  24414659.361    -5100924.06649  -3800561.88045  24414658.644    24414669.474
  23982301.603    -7115438.90049  -5004326.13545  23982300.789    23982308.062
 04  4 21  1 39  0.0000000  0  7G11G14G30G22G25G 1G20
  21658794.388   -19799812.68149 -15420352.39747  21658793.829    21658798.913
  22128336.794   -12904866.65549 -10033514.31547  22128336.082    22128341.220
  24222610.240    -2132187.51449  -1657224.15845  24222610.227    24222617.823
  23579269.369    11508511.31849   8971745.70546  23579268.892    23579274.220
  20556162.840   -24926364.50449 -19406480.70948  20556162.425    20556167.793
  24400338.715    -5176179.05849  -3859201.91245  24400337.858    24400348.716
  23965297.086    -7204797.23349  -5073955.89045  23965296.271    23965303.615
 04  4 21  1 39 30.0000000  0  7G11G14G30G22G25G 1G20
  21655208.361   -19818657.31849 -15435036.52047  21655207.792    21655212.883
  22141068.010   -12837963.89949  -9981382.32247  22141067.308    22141072.452
  24218487.507    -2153851.03449  -1674104.70345  24218487.590    24218495.351
  23592930.356    11580300.28349   9027685.14246  23592929.914    23592935.192
  20553465.013   -24940541.68849 -19417527.84548  20553464.583    20553469.937
  24386046.550    -5251284.23949  -3917725.26145  24386045.782    24386056.436
  23948291.819    -7294159.92649  -5143589.06545  23948290.993    23948298.365
 04  4 21  1 40  0.0000000  0  7G11G14G30G22G25G 1G20
  21651725.321   -19836960.70549 -15449298.89647  21651724.743    21651729.831
  22153816.116   -12770972.08249  -9929180.92647  22153815.433    22153820.596
  24214452.613    -2175052.69249  -1690625.39045  24214452.804    24214460.756
  23606627.684    11652280.24449   9083773.34446  23606627.192    23606632.702
  20550869.066   -24954183.40149 -19428157.73048  20550868.630    20550873.990
  24371782.905    -5326239.11949  -3976131.46745  24371782.267    24371792.643
  23931286.033    -7383525.39849  -5213224.38545  23931285.106    23931292.589
 04  4 21  1 40 30.0000000  0  7G11G14G30G22G25G 1G20
  21648345.293   -19854722.90649 -15463139.57347  21648344.713    21648349.778
  22166580.943   -12703892.49249  -9876911.14147  22166580.236    22166585.463
  24210506.223    -2195790.98849  -1706785.01745  24210506.335    24210514.219
  23620361.389    11724450.98649   9140010.24746  23620360.934    23620366.313
  20548374.947   -24967289.99649 -19438370.64048  20548374.516    20548379.880
  24357547.887    -5401043.83249  -4034420.68845  24357547.181    24357557.658
  23914279.971    -7472893.00549  -5282861.38145  23914278.969    23914286.455
 04  4 21  1 41  0.0000000  0  7G11G14G30G22G25G 1G20
  21645068.250   -19871943.81349 -15476558.46247  21645067.682    21645072.764
  22179362.136   -12636726.83549  -9824574.28347  22179361.418    22179366.666
  24206648.244    -2216065.05049  -1722582.91145  24206648.316    24206656.144
  23634131.189    11796811.61849   9196395.09046  23634130.751    23634136.102
  20545982.553   -24979861.90849 -19448166.91148  20545982.123    20545987.490
  24343341.355    -5475699.15549  -4092593.47445  24343340.716    24343351.024
  23897273.606    -7562262.13649  -5352499.58445  23897272.632    23897279.895
 04  4 21  1 41 30.0000000  0  7G11G14G30G22G25G 1G20
  21641894.355   -19888622.54549 -15489554.87247  21641893.799    21641898.895
  22192159.670   -12569475.56949  -9772170.72147  22192158.958    22192164.161
  24202879.083    -2235872.29449  -1738017.03545  24202879.056    24202886.944
  23647937.267    11869362.62049   9252928.26746  23647936.814    23647942.099
  20543692.010   -24991898.77249 -19457546.26048  20543691.568    20543696.937
  24329163.348    -5550204.13149  -4150649.13345  24329162.771    24329173.038
  23880267.271    -7651630.77249  -5422137.40145  23880266.315    23880273.525
 04  4 21  1 42  0.0000000  0  7G11G14G30G22G25G 1G20
  21638823.705   -19904758.73549 -15502128.53447  21638823.155    21638828.275
  22204973.248   -12502139.95949  -9719701.43047  22204972.547    22204977.732
  24199198.981    -2255211.43149  -1753086.43845  24199198.933    24199206.678
  23661779.517    11942103.65049   9309609.56346  23661779.081    23661784.209
  20541503.281   -25003400.71849 -19466508.79448  20541502.844    20541508.184
  24315014.070    -5624558.89749  -4208587.74145  24315013.497    24315023.519
  23863261.249    -7740998.06449  -5491774.16045  23863260.239    23863267.425
 04  4 21  1 42 30.0000000  0  7G11G14G30G22G25G 1G20
  21635856.507   -19920351.57249 -15514278.80247  21635855.958    21635861.080
  22217802.654   -12434720.97649  -9667167.17847  22217801.946    22217807.152
  24195608.318    -2274080.57949  -1767789.57645  24195608.279    24195615.970
  23675657.903    12015034.94249   9366439.07046  23675657.423    23675662.644
  20539416.321   -25014367.73049 -19475054.50148  20539415.868    20539421.197
  24300893.361    -5698763.06249  -4266408.99545  24300892.712    24300902.756
  23846255.681    -7830362.66849  -5561408.85445  23846254.712    23846261.694
 04  4 21  1 43  0.0000000  0  7G11G14G30G22G25G 1G20
  21632992.661   -19935401.34149 -15526005.89947  21632992.091    21632997.202
  22230647.632   -12367220.13849  -9614569.14347  22230646.933    22230652.166
  24192107.223    -2292478.37049  -1782125.45145  24192107.313    24192114.864
  23689572.327    12088155.61449   9423416.15746  23689571.870    23689577.041
  20537431.067   -25024800.05149 -19483183.56348  20537430.623    20537435.936
  24286801.193    -5772817.09849  -4324113.24645  24286800.439    24286810.627
  23829250.751    -7919723.84949  -5631040.87745  23829249.735    23829256.729
 04  4 21  1 43 30.0000000  0  7G11G14G30G22G25G 1G20
  21630232.339   -19949907.09849 -15537309.09447  21630231.772    21630236.869
  22243508.105   -12299637.71849  -9561907.53547  22243507.430    22243512.693
  24188696.193    -2310402.73349  -1796092.41445  24188696.244    24188703.770
  23703523.014    12161466.38549   9480541.38446  23703522.513    23703527.709
  20535547.660   -25034697.54649 -19490895.87248  20535547.207    20535552.515
  24272737.784    -5846720.24549  -4381699.97645  24272737.054    24272747.183
  23812246.843    -8009079.94849  -5700668.93245  23812245.805    23812252.693
 04  4 21  1 44  0.0000000  0  7G11G14G30G22G25G 1G20
  21627575.480   -19963868.93149 -15548188.45247  21627574.941    21627580.008
  22256383.787   -12231975.48149  -9509183.73247  22256383.096    22256388.425
  24185375.557    -2327852.63349  -1809689.66045  24185375.533    24185382.933
  23717509.575    12234966.33249   9537814.01146  23717509.051    23717514.320
  20533765.826   -25044061.03649 -19498192.07548  20533765.370    20533770.699
  24258702.932    -5920473.13049  -4439169.58245  24258702.220    24258712.289
  23795244.069    -8098430.22049  -5770292.45445  23795243.066    23795249.859
 04  4 21  1 44 30.0000000  0  7G11G14G30G22G25G 1G20
  21625022.374   -19977285.62749 -15558643.02847  21625021.819    21625026.904
  22269274.642   -12164233.60749  -9456397.87347  22269273.932    22269279.288
  24182145.760    -2344825.63349  -1822915.32745  24182145.749    24182153.015
  23731532.307    12308656.11449   9595234.59146  23731531.842    23731537.056
  20532085.733   -25052889.86949 -19505071.66448  20532085.273    20532090.607
  24244696.876    -5994074.86049  -4496521.43645  24244696.176    24244706.172
  23778242.567    -8187772.71149  -5839909.92245  23778241.646    23778248.414
 04  4 21  1 45  0.0000000  0  7G11G14G30G22G25G 1G20
  21622572.797   -19990158.12149 -15568673.55547  21622572.275    21622577.341
  22282180.268   -12096414.17149  -9403551.57147  22282179.548    22282184.957
  24179006.614    -2361321.30049  -1835769.00345  24179006.632    24179013.985
  23745590.905    12382534.68449   9652802.21546  23745590.470    23745596.067
  20530507.183   -25061185.24349 -19511535.56948  20530506.726    20530512.035
  24230719.352    -6067526.30149  -4553756.13545  24230718.703    24230728.638
  23761242.859    -8277106.98249  -5909520.96845  23761241.865    23761248.690
 04  4 21  1 45 30.0000000  0  7G11G14G30G22G25G 1G20
  21620226.948   -20002485.55149 -15578279.35147  21620226.439    21620231.481
  22295100.593   -12028517.41349  -9350645.01447  22295099.873    22295105.275
  24175958.782    -2377337.32449  -1848248.95945  24175958.792    24175966.328
  23759685.650    12456602.56849   9710517.42846  23759685.212    23759690.674
  20529030.269   -25068946.41349 -19517583.20948  20529029.828    20529035.107
  24216770.605    -6140826.76849  -4610873.23445  24216769.940    24216779.850
  23744245.026    -8366431.16749  -5979124.16545  23744244.052    23744250.769
 04  4 21  1 46  0.0000000  0  7G11G14G30G22G25G 1G20
  21617984.835   -20014268.28249 -15587460.70947  21617984.281    21617989.347
  22308035.251   -11960545.07249  -9297679.56347  22308034.579    22308039.982
  24173002.595    -2392872.82049  -1860354.46245  24173002.589    24173009.846
  23773816.130    12530858.59149   9768379.18646  23773815.670    23773821.220
  20527654.818   -25076174.32549 -19523215.32448  20527654.371    20527659.629
  24202850.392    -6213976.93449  -4667873.21245  24202849.816    24202859.490
  23727249.233    -8455744.89049  -6048719.21145  23727248.178    23727254.891
 04  4 21  1 46 30.0000000  0  7G11G14G30G22G25G 1G20
  21615846.549   -20025504.99549 -15596216.59847  21615846.021    21615851.032
  22320984.282   -11892497.28849  -9244655.32147  22320983.615    22320989.040
  24170138.138    -2407925.21549  -1872083.53345  24170138.082    24170145.288
  23787982.767    12605303.74549   9826388.37546  23787982.283    23787987.779
  20526380.939   -25082868.64549 -19528431.65648  20526380.483    20526385.726
  24188959.160    -6286975.73549  -4724755.23545  24188958.583    24188968.271
  23710255.709    -8545045.86049  -6118304.32345  23710254.702    23710261.415
 04  4 21  1 47  0.0000000  0  7G11G14G30G22G25G 1G20
  21613812.078   -20036196.59649 -15604547.71947  21613811.520    21613816.482
  22333947.288   -11824376.22749  -9191573.98547  22333946.621    22333952.027
  24167365.482    -2422494.25749  -1883435.94345  24167365.522    24167372.787
  23802184.701    12679936.76149   9884543.91546  23802184.370    23802189.995
  20525208.312   -25089030.62049 -19533233.17248  20525207.874    20525213.098
  24175096.384    -6359824.43249  -4781520.30045  24175095.809    24175105.442
  23693264.730    -8634333.94849  -6187879.37645  23693263.705    23693270.356
 04  4 21  1 47 30.0000000  0  7G11G14G30G22G25G 1G20
  21611881.549   -20046341.63449 -15612452.94947  21611880.996    21611885.937
  22346924.351   -11756181.45749  -9138435.21047  22346923.657    22346929.094
  24164685.173    -2436577.44549  -1894409.74645  24164685.127    24164692.923
  23816422.958    12754758.40849   9942846.47846  23816422.535    23816428.149
  20524137.159   -25094659.41849 -19537619.22648  20524136.706    20524141.943
  24161262.513    -6432521.56549  -4838167.26645  24161261.876    24161271.480
  23676276.633    -8723606.70649  -6257442.50045  23676275.636    23676282.277
 04  4 21  1 48  0.0000000  0  7G11G14G30G22G25G 1G20
  21610054.892   -20055940.70249 -15619932.74847  21610054.341    21610059.303
  22359915.082   -11687914.74949  -9085240.36947  22359914.383    22359919.824
  24162097.655    -2450173.97849  -1905004.35345  24162097.579    24162105.369
  23830696.676    12829767.99349  10001295.44245  23830696.342    23830702.090
  20523167.227   -25099756.34949 -19541590.84248  20523166.787    20523172.028
  24147457.397    -6505067.92549  -4894696.76545  24147456.664    24147466.182
  23659291.472    -8812863.56149  -6326993.22945  23659290.514    23659297.217
 04  4 21  1 48 30.0000000  0  7G11G14G30G22G25G 1G20
  21608332.194   -20064993.59549 -15626986.96147  21608331.633    21608336.605
  22372919.321   -11619576.99849  -9031990.17746  22372918.600    22372924.024
  24159602.937    -2463282.34849  -1915218.61345  24159602.984    24159610.715
  23845006.114    12904965.23549  10059890.63945  23845005.697    23845011.680
  20522298.485   -25104321.38449 -19545147.99148  20522298.059    20522303.300
  24133680.658    -6577463.42349  -4951108.69345  24133680.071    24133689.614
  23642309.688    -8902103.18049  -6396530.52245  23642308.751    23642315.424
 04  4 21  1 49  0.0000000  0  7G11G14G30G22G25G 1G20
  21606713.474   -20073500.15749 -15633615.45947  21606712.914    21606717.852
  22385936.982   -11551168.93949  -8978685.19946  22385936.259    22385941.683
  24157201.676    -2475900.88049  -1925051.16245  24157201.677    24157209.355
  23859351.355    12980350.10349  10118632.04945  23859350.995    23859356.922
  20521530.964   -25108354.70549 -19548290.81848  20521530.540    20521535.784
  24119932.876    -6649707.72549  -5007402.82745  24119932.279    24119941.855
  23625331.428    -8991324.14949  -6466053.26945  23625330.494    23625337.222
 04  4 21  1 49 30.0000000  0  7G11G14G30G22G25G 1G20
  21605198.527   -20081461.42649 -15639819.05247  21605197.933    21605202.910
  22398967.490   -11482692.89449  -8925327.23846  22398966.808    22398972.187
  24154893.764    -2488029.37249  -1934501.84245  24154893.616    24154901.368
  23873732.170    13055921.13549  10177518.54245  23873731.799    23873737.587
  20520864.297   -25111857.83049 -19551020.50548  20520863.872    20520869.114
  24106213.662    -6721802.13549  -5063580.16945  24106213.027    24106222.635
  23608356.834    -9080526.16049  -6535561.25745  23608355.885    23608362.636
 04  4 21  1 50  0.0000000  0  7G11G14G30G22G25G 1G20
  21603787.572   -20088875.99349 -15645596.64647  21603786.979    21603791.922
  22412011.154   -11414148.32549  -8871915.89146  22412010.448    22412015.832
  24152679.605    -2499665.19949  -1943568.63345  24152679.518    24152687.237
  23888148.529    13131679.45149  10236550.95045  23888148.060    23888153.960
  20520298.647   -25114830.19849 -19553336.61948  20520298.223    20520303.482
  24092523.295    -6793745.51549  -5119639.84245  24092522.614    24092532.091
  23591386.265    -9169706.75749  -6605052.53045  23591385.264    23591392.061
 04  4 21  1 50 30.0000000  0  7G11G14G30G22G25G 1G20
  21602480.514   -20095744.52449 -15650948.75747  21602479.934    21602484.927
  22425067.445   -11345537.02949  -8818452.55046  22425066.739    22425072.087
  24150559.249    -2510807.90349  -1952251.18645  24150559.245    24150566.825
  23902600.370    13207623.91249  10295728.37846  23902599.944    23902605.885
  20519833.820   -25117272.82749 -19555239.94848  20519833.395    20519838.641
  24078861.486    -6865538.33949  -5175582.18245  24078860.792    24078870.258
  23574419.847    -9258865.28849  -6674526.60545  23574418.920    23574425.698
 04  4 21  1 51  0.0000000  0  7G11G14G30G22G25G 1G20
  21601277.463   -20102066.59449 -15655875.05647  21601276.877    21601281.866
  22438136.348   -11276859.42349  -8764937.51946  22438135.682    22438140.991
  24148532.981    -2521455.78149  -1960548.18945  24148532.899    24148540.475
  23917087.768    13283754.65649  10355051.03846  23917087.384    23917093.005
  20519469.810   -25119185.70049 -19556730.47848  20519469.377    20519474.613
  24065228.454    -6937180.35949  -5231407.06045  24065227.720    24065237.112
  23557458.113    -9347999.99549  -6743982.13045  23557457.132    23557463.841
 04  4 21  1 51 30.0000000  0  7G11G14G30G22G25G 1G20
  21600178.349   -20107842.43149 -15660375.71947  21600177.778    21600182.774
  22451217.658   -11208116.72149  -8711371.78346  22451216.956    22451222.352
  24146601.033    -2531607.50049  -1968458.54245  24146601.037    24146608.568
  23931610.410    13360071.63749  10414518.70645  23931609.950    23931615.739
  20519206.476   -25120569.39149 -19557808.66148  20519206.039    20519211.270
  24051624.131    -7008671.59049  -5287114.42445  24051623.418    24051632.689
  23540500.907    -9437109.65849  -6813418.14345  23540499.992    23540506.677
 04  4 21  1 52  0.0000000  0  7G11G14G30G22G25G 1G20
  21599183.249   -20113071.57849 -15664450.39147  21599182.697    21599187.706
  22464311.259   -11139309.17849  -8657755.51746  22464310.561    22464315.953
  24144763.677    -2541261.48549  -1975981.05845  24144763.519    24144771.226
  23946168.609    13436574.70849  10474131.49545  23946168.093    23946173.634
  20519043.811   -25121424.05549 -19558474.61348  20519043.362    20519048.599
  24038048.381    -7080011.83249  -5342704.13445  24038047.737    24038056.973
  23523548.938    -9526192.39249  -6882833.17545  23523548.067    23523554.739
 04  4 21  1 52 30.0000000  0  7G11G14G30G22G25G 1G20
  21598292.171   -20117754.25049 -15668099.23947  21598291.624    21598296.637
  22477417.008   -11070437.76749  -8604089.48546  22477416.318    22477421.741
  24143021.219    -2550416.61149  -1983114.84645  24143021.124    24143028.991
  23960762.047    13513263.42549  10533888.88746  23960761.609    23960767.212
  20518981.651   -25121750.53949 -19558728.99948  20518981.215    20518986.471
  24024501.418    -7151201.16549  -5398176.24845  24024500.715    24024510.048
  23506602.386    -9615247.03249  -6952226.30246  23506601.469    23506608.181
 04  4 21  1 53  0.0000000  0  7G11G14G30G22G25G 1G20
  21597505.067   -20121890.51449 -15671322.31447  21597504.509    21597509.552
  22490534.766   -11001503.70349  -8550374.63646  22490534.037    22490539.426
  24141373.820    -2559071.84249  -1989859.10145  24141373.815    24141381.981
  23975390.655    13590137.34349  10593790.61745  23975390.193    23975395.668
  20519019.865   -25121549.58149 -19558572.38948  20519019.429    20519024.697
  24010983.060    -7222239.76049  -5453530.91745  24010982.403    24010991.698
  23489661.288    -9704272.48349  -7021596.70746  23489660.407    23489667.088
 04  4 21  1 53 30.0000000  0  7G11G14G30G22G25G 1G20
  21596822.017   -20125480.24549 -15674119.51747  21596821.442    21596826.479
  22503664.296   -10932507.43249  -8496611.31046  22503663.588    22503669.011
  24139822.105    -2567225.50749  -1996212.55645  24139822.068    24139830.280
  23990054.454    13667196.80449  10653836.84145  23990053.912    23990059.864
  20519158.397   -25120821.44149 -19558004.98948  20519157.953    20519163.225
  23997493.465    -7293127.09449  -5508767.68245  23997492.821    23997502.302
  23472726.074    -9793266.86549  -7090942.89245  23472725.121    23472731.843
 04  4 21  1 54  0.0000000  0  7G11G14G30G22G25G 1G20
  21596242.669   -20128524.62249 -15676491.76247  21596242.103    21596247.153
  22516805.334   -10863450.98649  -8442801.09946  22516804.630    22516810.001
  24138366.239    -2574877.53749  -2002175.12145  24138366.236    24138374.136
  24004753.544    13744440.13949  10714026.52245  24004753.125    24004758.669
  20519397.013   -25119567.54549 -19557027.91548  20519396.567    20519401.820
  23984032.490    -7363864.54349  -5563887.69545  23984031.791    23984041.242
  23455796.935    -9882229.97649  -7160264.72046  23455795.950    23455802.696
 04  4 21  1 54 30.0000000  0  7G11G14G30G22G25G 1G20
  21595767.182   -20131023.33849 -15678438.82247  21595766.652    21595771.671
  22529957.730   -10794334.89849  -8388944.41046  22529957.025    22529962.379
  24137005.997    -2582026.52649  -2007745.68745  24137005.948    24137013.609
  24019487.403    13821867.49849  10774359.39845  24019486.984    24019492.770
  20519735.639   -25117788.07349 -19555641.29348  20519735.183    20519740.406
  23970600.069    -7434451.80349  -5618890.66145  23970599.470    23970608.779
  23438874.018    -9971160.12149  -7229560.86846  23438873.006    23438879.694
 04  4 21  1 55  0.0000000  0  7G11G14G30G22G25G 1G20
  21595395.510   -20132976.62349 -15679960.86547  21595394.939    21595399.980
  22543121.280   -10725160.02249  -8335041.91946  22543120.552    22543125.929
  24135741.534    -2588671.28049  -2012923.36845  24135741.534    24135749.112
  24034256.603    13899478.42449  10834835.49845  24034256.091    24034261.534
  20520174.178   -25115483.53149 -19553845.52948  20520173.719    20520178.927
  23957196.384    -7504888.86049  -5673776.59445  23957195.729    23957204.858
  23421957.631   -10060055.79949  -7298830.16446  23421956.697    23421963.328
 04  4 21  1 55 30.0000000  0  7G11G14G30G22G25G 1G20
  21595127.579   -20134384.40249 -15681057.84147  21595127.035    21595132.076
  22556295.906   -10655926.98649  -8281094.10646  22556295.192    22556300.557
  24134573.414    -2594810.39049  -2017707.03545  24134573.442    24134580.891
  24049060.184    13977273.12549  10895454.66545  24049059.802    24049065.482
  20520712.430   -25112654.74949 -19551641.26748  20520711.987    20520717.187
  23943821.164    -7575175.40249  -5728545.25245  23943820.538    23943829.583
  23405048.166   -10148915.43449  -7368071.37746  23405047.303    23405053.865
 04  4 21  1 56  0.0000000  0  7G11G14G30G22G25G 1G20
  21594963.492   -20135246.80149 -15681729.83947  21594962.948    21594967.993
  22569481.464   -10586636.32349  -8227101.39246  22569480.754    22569486.134
  24133501.823    -2600442.50849  -2022095.64545  24133501.794    24133509.084
  24063899.022    14055251.28449  10956216.83845  24063898.580    24063904.184
  20521350.426   -25109301.92749 -19549028.65648  20521350.015    20521355.216
  23930474.677    -7645311.36349  -5783196.54045  23930474.068    23930483.159
  23388145.829   -10237737.30049  -7437283.16446  23388144.994    23388151.486
 04  4 21  1 56 30.0000000  0  7G11G14G30G22G25G 1G20
  21594903.066   -20135564.22649 -15681977.18447  21594902.520    21594907.567
  22582677.784   -10517289.35149  -8173064.79746  22582677.048    22582682.414
  24132526.629    -2605567.01249  -2026088.71545  24132526.670    24132533.649
  24078772.635    14133412.19749  11017121.40445  24078772.224    24078777.784
  20522087.931   -25105426.24549 -19546008.62048  20522087.504    20522092.724
  23917156.670    -7715297.30449  -5837730.93545  23917156.018    23917165.176
  23371251.021   -10326520.20449  -7506464.59746  23371250.170    23371256.627
 04  4 21  1 57  0.0000000  0  7G11G14G30G22G25G 1G20
  21594946.292   -20135337.15049 -15681800.24047  21594945.760    21594950.781
  22595884.666   -10447886.77849  -8118984.88146  22595883.935    22595889.246
  24131648.216    -2610183.01549  -2029685.56245  24131648.228    24131654.834
  24093680.813    14211755.43449  11078168.06845  24093680.372    24093685.916
  20522924.820   -25101028.26749 -19542581.60348  20522924.385    20522929.598
  23903867.355    -7785133.32649  -5892148.48445  23903866.698    23903875.713
  23354363.813   -10415262.78149  -7575614.61546  23354363.011    23354369.407
 04  4 21  1 57 30.0000000  0  7G11G14G30G22G25G 1G20
  21595093.138   -20134565.33649 -15681198.82247  21595092.598    21595097.643
  22609102.098   -10378428.96849  -8064861.93046  22609101.355    22609106.662
  24130866.620    -2614288.75549  -2032884.76145  24130866.520    24130873.252
  24108623.772    14290281.35049  11139356.98645  24108623.298    24108629.162
  20523861.062   -25096108.35849 -19538747.88348  20523860.617    20523865.824
  23890606.722    -7854818.65049  -5946448.65845  23890605.948    23890614.952
  23337484.652   -10503963.15449  -7644731.74546  23337483.777    23337490.277
 04  4 21  1 58  0.0000000  0  7G11G14G30G22G25G 1G20
  21595343.588   -20133249.21749 -15680173.27347  21595343.055    21595348.100
  22622329.766   -10308917.25049  -8010696.96946  22622328.988    22622334.293
  24130182.103    -2617883.94549  -2035686.17645  24130182.153    24130188.473
  24123601.485    14368989.08749  11200687.71545  24123601.058    24123606.698
  20524896.282   -25090668.09949 -19534508.69848  20524895.850    20524901.047
  23877374.403    -7924353.97549  -6000631.89745  23877373.758    23877382.751
  23320613.695   -10592620.14949  -7713815.08546  23320612.886    23320619.288
 04  4 21  1 58 30.0000000  0  7G11G14G30G22G25G 1G20
  21595697.538   -20131389.23249 -15678723.93247  21595697.010    21595702.060
  22635567.602   -10239352.11249  -7956490.38246  22635566.823    22635572.113
  24129595.009    -2620967.35249  -2038088.77245  24129595.110    24129601.465
  24138613.589    14447878.32849  11262159.75445  24138613.205    24138618.968
  20526030.470   -25084707.74549 -19529864.24148  20526030.045    20526035.242
  23864170.693    -7993739.39349  -6054698.33945  23864169.959    23864179.100
  23303751.242   -10681232.48049  -7782863.62246  23303750.420    23303756.832
 04  4 21  1 59  0.0000000  0  7G11G14G30G22G25G 1G20
  21596154.948   -20128985.70749 -15676851.05547  21596154.393    21596159.426
  22648815.365   -10169734.30349  -7902242.76146  22648814.642    22648819.917
  24129105.652    -2623537.85449  -2040091.70645  24129105.818    24129112.281
  24153660.342    14526948.60149  11323772.94745  24153659.770    24153665.560
  20527263.502   -25078227.97249 -19524815.04648  20527263.072    20527268.266
  23850995.552    -8062974.83649  -6108647.91545  23850994.870    23851003.900
  23286897.646   -10769798.43249  -7851876.00146  23286896.757    23286903.240
 04  4 21  1 59 30.0000000  0  7G11G14G30G22G25G 1G20
  21596715.644   -20126039.44549 -15674555.26647  21596715.075    21596720.088
  22662072.980   -10100065.22049  -7847955.18146  22662072.234    22662077.517
  24128714.286    -2625594.99349  -2041694.62845  24128714.328    24128720.638
  24168740.996    14606199.35249  11385526.68445  24168740.469    24168746.585
  20528595.124   -25071230.19049 -19519362.20648  20528594.690    20528599.889
  23837848.784    -8132060.90149  -6162481.09245  23837848.122    23837857.112
  23270053.149   -10858316.78749  -7920851.32046  23270052.248    23270058.678
 04  4 21  2  0  0.0000000  0  7G11G14G30G22G25G 1G20
  21597379.588   -20122550.58849 -15671836.67947  21597378.986    21597383.998
  22675340.223   -10030345.42549  -7793628.08646  22675339.479    22675344.792
  24128421.116    -2627137.83549  -2042896.79645  24128421.131    24128427.110
  24183856.303    14685630.28749  11447420.86245  24183855.716    24183861.882
  20530025.211   -25063714.82949 -19513506.05748  20530024.780    20530029.987
  23824730.486    -8200997.41249  -6216197.72945  23824729.842    23824738.900
  23253218.019   -10946785.98349  -7989788.31246  23253217.023    23253223.508
 04  4 21  2  0 30.0000000  0  7G11G14G30G22G25G 1G20
  21598146.627   -20118519.74949 -15668695.77047  21598146.005    21598151.036
  22688617.029    -9960575.70349  -7739262.08946  22688616.288    22688621.527
  24128226.127    -2628165.34049  -2043697.42845  24128226.046    24128231.777
  24199005.791    14765241.02649  11509455.19245  24199005.305    24199011.296
  20531553.590   -25055683.08949 -19507247.53648  20531553.162    20531558.372
  23811640.640    -8269784.69049  -6269798.10545  23811639.935    23811649.005
  23236392.487   -11035204.37449  -8058685.72346  23236391.531    23236398.053
 04  4 21  2  1  0.0000000  0  7G11G14G30G22G25G 1G20
  21599016.675   -20113947.44349 -15665132.94047  21599016.082    21599021.115
  22701903.055    -9890757.13149  -7684858.01446  22701902.360    22701907.538
  24128129.240    -2628677.19649  -2044096.23845  24128129.173    24128134.757
  24214189.476    14845030.57149  11571628.77745  24214188.836    24214194.798
  20533179.998   -25047136.23249 -19500587.62348  20533179.566    20533184.796
  23798579.117    -8338423.05349  -6323282.41845  23798578.407    23798587.452
  23219576.738   -11123571.10549  -8127542.87546  23219575.822    23219582.317
 04  4 21  2  1 30.0000000  0  7G11G14G30G22G25G 1G20
  21599989.675   -20108834.11149 -15661148.53447  21599989.099    21599994.155
  22715198.317    -9820890.27549  -7630416.31846  22715197.636    22715202.750
  24128130.445    -2628672.40149  -2044092.46345  24128130.373    24128135.918
  24229406.941    14924998.72149  11633941.59845  24229406.361    24229412.157
  20534904.322   -25038074.74449 -19493526.69948  20534903.882    20534909.081
  23785545.921    -8406912.53149  -6376650.72345  23785545.180    23785554.269
  23202771.267   -11211884.50649  -8196358.45146  23202770.297    23202776.817
 04  4 21  2  2  0.0000000  0  7G11G14G30G22G25G 1G20
  21601065.698   -20103179.59549 -15656742.42947  21601065.144    21601070.169
  22728502.761    -9750975.03149  -7575936.91446  22728502.075    22728507.213
  24128230.004    -2628149.23949  -2043684.74345  24128229.935    24128235.653
  24244658.442    15005146.06049  11696393.97745  24244657.902    24244663.820
  20536726.578   -25028498.69849 -19486064.82548  20536726.140    20536731.319
  23772541.250    -8475252.53449  -6429902.56545  23772540.503    23772549.395
  23185976.398   -11300141.96849  -8265130.44046  23185975.474    23185981.949
 04  4 21  2  2 30.0000000  0  7G11G14G30G22G25G 1G20
  21602244.649   -20096984.23549 -15651914.88547  21602244.088    21602249.085
  22741816.234    -9681012.62849  -7521420.76346  22741815.499    22741820.604
  24128428.053    -2627107.35849  -2042872.87445  24128428.057    24128434.034
  24259944.145    15085471.68049  11758985.39545  24259943.650    24259949.280
  20538646.445   -25018409.71049 -19478203.25348  20538645.991    20538651.167
  23759564.840    -8543443.47349  -6483038.23745  23759564.117    23759572.950
  23169192.427   -11388342.30949  -8333857.91446  23169191.482    23169197.985
 04  4 21  2  3  0.0000000  0  7G11G14G30G22G25G 1G20
  21603526.303   -20090249.09549 -15646666.73947  21603525.750    21603530.742
  22755138.554    -9611003.52549  -7466868.21146  22755137.796    22755142.899
  24128724.783    -2625545.82849  -2041656.02245  24128724.812    24128731.215
  24275263.322    15165975.26249  11821715.38245  24275262.805    24275268.496
  20540663.773   -25007808.42749 -19469942.49048  20540663.335    20540668.491
  23746616.815    -8611485.16149  -6536057.63445  23746616.170    23746624.864
  23152419.600   -11476484.05149  -8402539.71746  23152418.644    23152425.153
 04  4 21  2  3 30.0000000  0  7G11G14G30G22G25G 1G20
  21604910.569   -20082974.73349 -15640998.41947  21604910.022    21604914.998
  22768469.559    -9540948.39449  -7412279.80646  22768468.797    22768473.882
  24129120.897    -2623463.73349  -2040033.59745  24129120.887    24129127.594
  24290616.573    15246656.44349  11884583.85245  24290616.136    24290621.696
  20542778.417   -24996695.81349 -19461283.28448  20542777.981    20542783.123
  23733697.202    -8679377.65849  -6588960.76845  23733696.594    23733705.228
  23135658.270   -11564565.44949  -8471174.50746  23135657.238    23135663.751
 04  4 21  2  4  0.0000000  0  7G11G14G30G22G25G 1G20
  21606397.283   -20075162.07649 -15634910.64647  21606396.743    21606401.707
  22781809.039    -9470849.10149  -7357656.98046  22781808.262    22781813.331
  24129616.251    -2620861.33949  -2038005.73845  24129616.095    24129622.978
  24306003.189    15327513.87149  11947589.57645  24306002.684    24306008.178
  20544990.014   -24985073.74549 -19452227.10248  20544989.560    20544994.709
  23720805.758    -8747122.36749  -6641748.74745  23720805.128    23720813.800
  23118908.511   -11652585.90849  -8539761.80346  23118907.504    23118913.976
 04  4 21  2  4 30.0000000  0  7G11G14G30G22G25G 1G20
  21607986.460   -20066811.11049 -15628403.41947  21607985.912    21607990.895
  22795156.951    -9400705.36049  -7302999.52546  22795156.182    22795161.271
  24130210.139    -2617737.35649  -2035571.37745  24130209.955    24130217.649
  24321423.587    15408547.82849  12010732.91545  24321423.079    24321428.509
  20547298.532   -24972942.35449 -19442774.04548  20547298.062    20547303.207
  23707942.574    -8814718.56149  -6694420.99745  23707941.903    23707950.606
  23102170.735   -11740542.91149  -8608299.64846  23102169.781    23102176.194
 04  4 21  2  5  0.0000000  0  7G11G14G30G22G25G 1G20
  21609677.897   -20057922.55649 -15621477.28847  21609677.322    21609682.349
  22808513.161    -9330517.88149  -7248307.99346  22808512.425    22808517.504
  24130903.630    -2614090.73549  -2032729.80845  24130903.554    24130911.616
  24336877.396    15489757.82749  12074013.41145  24336876.831    24336882.349
  20549703.792   -24960302.48449 -19432924.77248  20549703.337    20549708.478
  23695107.561    -8882166.18049  -6746977.50245  23695106.889    23695115.546
  23085445.457   -11828434.67649  -8676786.66346  23085444.499    23085450.897
 04  4 21  2  5 30.0000000  0  7G11G14G30G22G25G 1G20
  21611471.442   -20048497.44249 -15614133.06547  21611470.890    21611475.880
  22821877.543    -9260287.55849  -7193583.06246  22821876.793    22821881.907
  24131697.159    -2609921.52549  -2029481.04745  24131697.113    24131704.591
  24352364.624    15571143.15349  12137430.50245  24352364.010    24352369.567
  20552205.515   -24947155.65049 -19422680.46248  20552205.055    20552210.216
  23682300.738    -8949465.77449  -6799418.62245  23682300.145    23682308.860
  23068732.752   -11916260.26749  -8745222.10646  23068731.819    23068738.200
 04  4 21  2  6  0.0000000  0  7G11G14G30G22G25G 1G20
  21613367.023   -20038536.37649 -15606371.21547  21613366.438    21613371.419
  22835249.968    -9190015.03149  -7138825.25146  22835249.246    22835254.353
  24132590.675    -2605228.98649  -2025824.52645  24132590.464    24132597.200
  24367884.755    15652703.34049  12200983.87845  24367884.184    24367889.850
  20554803.557   -24933502.89449 -19412041.92748  20554803.096    20554808.231
  23669522.142    -9016617.60649  -6851744.62345  23669521.532    23669530.179
  23052032.969   -12004018.02349  -8813604.68846  23052032.010    23052038.318
 04  4 21  2  6 30.0000000  0  7G11G14G30G22G25G 1G20
  21615364.414   -20028040.08749 -15598192.30847  21615363.845    21615368.811
  22848630.303    -9119700.92749  -7084035.04846  22848629.523    22848634.690
  24133583.439    -2600012.51849  -2021759.70845  24133583.179    24133589.811
  24383438.290    15734437.67249  12264672.92145  24383437.757    24383443.624
  20557497.640   -24919345.25049 -19401009.97548  20557497.181    20557502.296
  23656771.580    -9083621.80849  -6903955.59145  23656770.889    23656779.586
  23035346.362   -12091706.33249  -8881933.17246  23035345.422    23035351.716
 04  4 21  2  7  0.0000000  0  7G11G14G30G22G25G 1G20
  21617463.624   -20017008.76949 -15589596.49047  21617463.052    21617467.985
  22862018.413    -9049345.75549  -7029212.83946  22862017.674    22862022.854
  24134675.352    -2594271.01149  -2017285.71045  24134675.163    24134682.662
  24399025.051    15816346.40949  12328497.88545  24399024.367    24399030.364
  20560287.667   -24904683.47149 -19389585.18848  20560287.209    20560292.313
  23644049.182    -9150477.86549  -6956051.11345  23644048.546    23644057.131
  23018673.487   -12179322.86449  -8950205.72146  23018672.535    23018678.763
 04  4 21  2  7 30.0000000  0  7G11G14G30G22G25G 1G20
  21619664.454   -20005443.52349 -15580584.62647  21619663.868    21619668.808
  22875414.181    -8978950.51949  -6974359.43046  22875413.441    22875418.651
  24135867.729    -2588004.31749  -2012402.50045  24135867.697    24135875.546
  24414644.753    15898428.56949  12392457.97345  24414644.045    24414650.032
  20563173.322   -24889519.15149 -19377768.81248  20563172.872    20563177.965
  23631354.906    -9217186.52049  -7008031.79145  23631354.224    23631362.745
  23002014.378   -12266866.57549  -9018421.52846  23002013.467    23002019.627
 04  4 21  2  8  0.0000000  0  7G11G14G30G22G25G 1G20
  21621966.660   -19993345.18449 -15571157.36547  21621966.114    21621971.047
  22888817.461    -8908515.75549  -6919475.20246  22888816.752    22888821.909
  24137160.506    -2581211.84549  -2007109.64445  24137160.392    24137168.295
  24430297.390    15980683.47349  12456552.67145  24430296.747    24430302.734
  20566154.348   -24873853.62549 -19365561.88648  20566153.898    20566159.003
  23618688.592    -9283747.93349  -7059897.72145  23618687.924    23618696.460
  22985369.491   -12354335.96749  -9086579.42846  22985368.560    22985374.644
 04  4 21  2  8 30.0000000  0  7G11G14G30G22G25G 1G20
  21624370.195   -19980714.76549 -15561315.50347  21624369.610    21624374.581
  22902228.120    -8838042.33249  -6864560.85846  22902227.398    22902232.565
  24138553.179    -2573893.53949  -2001407.02845  24138553.137    24138560.674
  24445982.637    16063110.63749  12520781.56845  24445982.059    24445988.012
  20569230.535   -24857687.91749 -19352965.21348  20569230.088    20569235.187
  23606050.294    -9350162.53249  -7111649.25446  23606049.612    23606058.089
  22968739.059   -12441729.47249  -9154678.21146  22968738.084    22968744.167
 04  4 21  2  9  0.0000000  0  7G11G14G30G22G25G 1G20
  21626874.861   -19967552.62849 -15551059.31047  21626874.277    21626879.272
  22915646.113    -8767530.41949  -6809616.50746  22915645.399    22915650.565
  24140046.185    -2566048.29249  -1995293.79245  24140046.053    24140053.555
  24461700.763    16145709.60949  12585144.38645  24461700.307    24461706.176
  20572401.841   -24841022.58849 -19339979.22148  20572401.383    20572406.477
  23593439.865    -9416430.22049  -7163286.33146  23593439.242    23593447.682
  22952123.489   -12529044.70749  -9222715.99146  22952122.487    22952128.559
 04  4 21  2  9 30.0000000  0  7G11G14G30G22G25G 1G20
  21629480.451   -19953860.21749 -15540389.92147  21629479.853    21629484.855
  22929071.158    -8696981.05049  -6754642.98846  22929070.485    22929075.615
  24141639.611    -2557676.01049  -1988769.91645  24141639.510    24141646.698
  24477451.500    16228479.74449  12649640.57145  24477450.905    24477456.921
  20575667.788   -24823859.68549 -19326605.51048  20575667.342    20575672.449
  23580857.297    -9482551.41649  -7214809.23846  23580856.633    23580865.101
  22935522.996   -12616280.68049  -9290692.02346  22935521.959    22935528.085
 04  4 21  2 10  0.0000000  0  7G11G14G30G22G25G 1G20
  21632186.862   -19939637.83149 -15529307.55847  21632186.279    21632191.297
  22942503.356    -8626394.65349  -6699640.60746  22942502.626    22942507.781
  24143333.300    -2548776.23549  -1981834.99345  24143333.068    24143340.059
  24493234.607    16311420.75049  12714269.89745  24493234.157    24493240.157
  20579028.252   -24806200.15649 -19312844.81948  20579027.796    20579032.915
  23568302.548    -9548526.05949  -7266217.95545  23568301.954    23568310.414
  22918937.924   -12703435.21349  -9358604.60046  22918936.970    22918943.071
 04  4 21  2 10 30.0000000  0  7G11G14G30G22G25G 1G20
  21634993.987   -19924886.27049 -15517812.85547  21634993.416    21634998.453
  22955942.436    -8555771.83049  -6644609.85746  22955941.702    22955946.854
  24145127.151    -2539348.41749  -1974488.62745  24145126.887    24145133.714
  24509050.292    16394531.89449  12779031.77345  24509049.778    24509055.862
  20582483.052   -24788044.98349 -19298697.91448  20582482.604    20582487.717
  23555775.762    -9614354.55049  -7317512.79145  23555775.097    23555783.557
  22902368.784   -12790506.86249  -9426452.59846  22902367.781    22902373.844
 04  4 21  2 11  0.0000000  0  7G11G14G30G22G25G 1G20
  21637901.593   -19909606.66349 -15505906.68647  21637901.033    21637906.076
  22969388.364    -8485112.83549  -6589550.91546  22969387.634    22969392.903
  24147021.575    -2529392.11349  -1966730.41945  24147021.425    24147028.217
  24524898.063    16477812.89049  12843926.00545  24524897.667    24524903.757
  20586031.982   -24769395.13249 -19284165.54448  20586031.527    20586036.628
  23543276.757    -9680036.70749  -7368693.60646  23543276.099    23543284.580
  22885815.650   -12877493.78549  -9494234.57546  22885814.660    22885820.720
 04  4 21  2 11 30.0000000  0  7G11G14G30G22G25G 1G20
  21640909.561   -19893799.69349 -15493589.58547  21640908.981    21640914.040
  22982841.111    -8414418.46549  -6534464.40246  22982840.350    22982845.556
  24149016.840    -2518906.95049  -1958560.13645  24149016.713    24149023.553
  24540778.113    16561263.19849  12908952.21745  24540777.674    24540783.842
  20589674.781   -24750251.99349 -19269248.79248  20589674.345    20589679.426
  23530805.536    -9745572.70449  -7419760.53246  23530804.893    23530813.413
  22869278.997   -12964394.17549  -9561949.12446  22869277.989    22869284.009
 04  4 21  2 12  0.0000000  0  7G11G14G30G22G25G 1G20
  21644017.686   -19877466.46149 -15480862.41047  21644017.119    21644022.209
  22996300.408    -8343689.44849  -6479350.90246  22996299.643    22996304.884
  24151112.681    -2507892.73149  -1949977.60945  24151112.522    24151119.414
  24556690.128    16644881.96449  12974109.61545  24556689.797    24556696.032
  20593411.179   -24730617.08349 -19253948.84248  20593410.738    20593415.813
  23518362.151    -9810962.92649  -7470713.87946  23518361.467    23518370.069
  22852759.110   -13051206.39549  -9629594.97146  22852758.145    22852764.172
 04  4 21  2 12 30.0000000  0  7G11G14G30G22G25G 1G20
  21647225.643   -19860608.56749 -15467726.41147  21647225.088    21647230.162
  23009766.163    -8272926.63949  -6424211.06646  23009765.371    23009770.618
  24153309.270    -2496349.69149  -1940983.00145  24153309.142    24153316.069
  24572634.339    16728668.24949  13039397.64145  24572633.870    24572639.934
  20597240.774   -24710492.26649 -19238267.14748  20597240.337    20597245.409
  23505946.484    -9876208.02049  -7521554.13646  23505945.742    23505954.282
  22836256.271   -13137929.23549  -9697171.17046  22836255.300    22836261.342
 04  4 21  2 13  0.0000000  0  7G11G14G30G22G25G 1G20
  21650533.372   -19843226.44249 -15454181.91447  21650532.808    21650537.891
  23023238.273    -8202130.28349  -6369045.07746  23023237.494    23023242.733
  24155606.582    -2484276.86249  -1931575.54645  24155606.442    24155613.310
  24588610.159    16812622.05849  13104816.21145  24588609.710    24588615.531
  20601163.448   -24689878.33949 -19222204.32748  20601163.002    20601168.064
  23493558.419    -9941307.83949  -7572281.20246  23493557.679    23493566.054
  22819770.862   -13224560.50349  -9764676.01346  22819769.862    22819775.906
 04  4 21  2 13 30.0000000  0  7G11G14G30G22G25G 1G20
  21653940.745   -19825320.85249 -15440229.52847  21653940.159    21653945.214
  23036716.709    -8131300.61249  -6313853.14446  23036715.944    23036721.214
  24158004.661    -2471673.98449  -1921755.10445  24158004.531    24158011.575
  24604617.777    16896742.72949  13170364.73545  24604617.348    24604623.348
  20605179.023   -24668776.38549 -19205761.22548  20605178.582    20605183.605
  23481197.833   -10006262.44449  -7622895.09446  23481197.085    23481205.546
  22803303.289   -13311098.19649  -9832107.93746  22803302.272    22803308.328
 04  4 21  2 14  0.0000000  0  7G11G14G30G22G25G 1G20
  21657447.480   -19806893.04849 -15425870.21747  21657446.862    21657451.884
  23050201.277    -8060438.71449  -6258636.08346  23050200.529    23050205.728
  24160503.698    -2458540.91549  -1911521.49145  24160503.552    24160510.660
  24620657.089    16981029.64449  13236042.78345  24620656.625    24620662.788
  20609287.198   -24647187.71149 -19188938.86148  20609286.758    20609291.773
  23468864.868   -10071072.27949  -7673396.18646  23468864.133    23468872.535
  22786853.774   -13397540.81549  -9899465.77046  22786852.740    22786858.776
 04  4 21  2 14 30.0000000  0  7G11G14G30G22G25G 1G20
  21661053.783   -19787941.93449 -15411103.13447  21661053.185    21661058.192
  23063692.328    -7989542.59949  -6203392.36746  23063691.559    23063696.879
  24163104.196    -2444875.25749  -1900872.89545  24163104.061    24163111.156
  24636728.114    17065484.16249  13301851.44745  24636727.668    24636733.886
  20613488.140   -24625111.63149 -19171736.70148  20613487.699    20613492.720
  23456559.820   -10135735.06349  -7723782.69546  23456559.142    23456567.558
  22770423.110   -13483884.31349  -9966746.36746  22770422.114    22770428.111
 04  4 21  2 15  0.0000000  0  7G11G14G30G22G25G 1G20
  21664758.890   -19768471.51249 -15395931.38947  21664758.290    21664763.310
  23077189.186    -7918615.87249  -6148124.79446  23077188.465    23077193.762
  24165805.134    -2430679.97549  -1889811.62145  24165805.111    24165812.202
  24652830.693    17150102.69249  13367787.97745  24652830.241    24652836.324
  20617780.945   -24602552.74249 -19154158.32548  20617780.488    20617785.517
  23444282.166   -10200254.34849  -7774057.38946  23444281.491    23444289.842
  22754011.022   -13570130.09449 -10033950.81446  22754010.027    22754016.061
 04  4 21  2 15 30.0000000  0  7G11G14G30G22G25G 1G20
  21668562.575   -19748483.15249 -15380356.06247  21668561.977    21668566.971
  23090691.733    -7847659.29749  -6092833.96946  23090691.028    23090696.331
  24168607.535    -2415954.95249  -1878337.57645  24168607.511    24168614.412
  24668964.292    17234884.65249  13433851.81345  24668963.762    24668969.778
  20622165.280   -24579512.67849 -19136205.01048  20622164.832    20622169.837
  23432031.785   -10264630.60149  -7824220.62746  23432031.073    23432039.337
  22737617.855   -13656276.51249 -10101077.85046  22737616.836    22737622.844
 04  4 21  2 16  0.0000000  0  7G11G14G30G22G25G 1G20
  21672464.739   -19727977.16049 -15364377.38447  21672464.155    21672469.151
  23104200.114    -7776672.64649  -6037519.70246  23104199.385    23104204.650
  24171510.256    -2400699.30849  -1866449.98845  24171510.183    24171517.643
  24685128.869    17319829.95349  13500042.91845  24685128.400    24685134.326
  20626641.154   -24555991.78349 -19117877.02248  20626640.694    20626645.689
  23419808.674   -10328862.98649  -7874271.75246  23419807.954    23419816.214
  22721244.123   -13742320.87449 -10168125.34146  22721243.111    22721249.082
 04  4 21  2 16 30.0000000  0  7G11G14G30G22G25G 1G20
  21676465.175   -19706954.68649 -15347996.25747  21676464.606    21676469.606
  23117714.095    -7705656.30749  -5982182.30546  23117713.320    23117718.626
  24174514.333    -2384912.76349  -1854148.78445  24174514.212    24174521.687
  24701324.329    17404938.14149  13566360.99845  24701323.889    24701329.873
  20631208.273   -24531991.32249 -19099175.34648  20631207.802    20631212.780
  23407612.866   -10392951.84449  -7924211.05446  23407612.128    23407620.417
  22704890.131   -13828261.44949 -10235091.97346  22704889.162    22704895.080
 04  4 21  2 17  0.0000000  0  6G11G14G30G25G 1G20
  21680564.123   -19685414.35149 -15331211.59247  21680563.588    21680568.594
  23131234.090    -7634608.41749  -5926820.31446  23131233.300    23131238.619
  24177620.146    -2368592.81949  -1841431.91645  24177619.942    24177627.256
  20635866.884   -24507510.22849 -19080099.14948  20635866.427    20635871.364
  23395444.874   -10456894.88949  -7974036.72846  23395444.171    23395452.434
  22688556.755   -13914093.86949 -10301974.32146  22688555.780    22688561.654
 04  4 21  2 17 30.0000000  0  6G11G14G30G25G 1G20
  21684760.888   -19663360.23949 -15314026.59047  21684760.353    21684765.347
  23144759.450    -7563532.14149  -5871436.22046  23144758.647    23144763.954
  24180826.570    -2351742.26749  -1828301.53545  24180826.502    24180833.791
  20640616.110   -24482552.92449 -19060651.87848  20640615.639    20640620.569
  23383304.066   -10520695.20349  -8023751.18746  23383303.346    23383311.551
  22672243.778   -13999819.18649 -10368773.20646  22672242.753    22672248.622
 04  4 21  2 18  0.0000000  0  6G11G14G30G25G 1G20
  21689055.162   -19640793.85049 -15296442.40547  21689054.590    21689059.647
  23158290.023    -7492428.51249  -5816030.79146  23158289.270    23158294.562
  24184133.994    -2334361.47249  -1814758.02445  24184133.974    24184141.026
  20645455.544   -24457121.25049 -19040834.97448  20645455.089    20645460.029
  23371190.279   -10584353.41049  -8073354.90546  23371189.562    23371197.694
  22655951.414   -14085435.83249 -10435487.42346  22655950.402    22655956.284
 04  4 21  2 18 30.0000000  0  6G11G14G30G25G 1G20
  21693446.805   -19617715.67149 -15278459.42747  21693446.230    21693451.323
  23171825.833    -7421297.31249  -5760603.89646  23171825.109    23171830.437
  24187542.281    -2316449.70549  -1800800.76745  24187542.193    24187549.533
  20650385.102   -24431216.13449 -19020649.15048  20650384.646    20650389.618
  23359103.587   -10647869.27449  -8122847.72546  23359102.860    23359110.915
  22639680.201   -14170941.37749 -10502115.06046  22639679.197    22639685.083
 04  4 21  2 19  0.0000000  0  6G11G14G30G25G 1G20
  21697935.570   -19594126.88049 -15260078.56547  21697935.022    21697940.150
  23185366.896    -7350138.56449  -5705155.51746  23185366.126    23185371.486
  24191051.791    -2298006.72149  -1786429.59545  24191051.594    24191058.952
  20655404.525   -24404838.70949 -19000095.29148  20655404.071    20655409.055
  23347043.995   -10711242.65649  -8172229.50246  23347043.259    23347051.329
  22623430.498   -14256333.73349 -10568654.49446  22623429.526    22623435.407
 04  4 21  2 19 30.0000000  0  7G11G16G14G30G25G 1G20
  21702520.401   -19570033.67749 -15241304.65347  21702519.828    21702524.993
  24643826.863    -3852518.67449  -2990524.89345  24643826.085    24643835.176
  23198912.098    -7278957.80849  -5649690.00646  23198911.348    23198916.769
  24194661.334    -2279037.42849  -1771648.27945  24194661.234    24194668.534
  20660512.581   -24377995.70749 -18979178.64948  20660512.125    20660517.099
  23335010.576   -10774478.61749  -8221504.20546  23335009.799    23335017.808
  22607201.783   -14341616.02549 -10635108.17646  22607200.811    22607206.688
 04  4 21  2 20  0.0000000  0  7G11G16G14G30G25G 1G20
  21707202.067   -19545431.37549 -15222134.04247  21707201.507    21707206.686
  24626641.241    -3942828.27549  -3060895.77545  24626640.572    24626649.436
  23212462.588    -7207749.53049  -5594203.04446  23212461.847    23212467.233
  24198372.201    -2259536.03049  -1756452.36145  24198372.255    24198379.426
  20665710.142   -24350682.33349 -18957895.48448  20665709.697    20665714.643
  23323004.317   -10837571.51749  -8270667.42246  23323003.560    23323011.611
  22590995.482   -14426780.39549 -10701469.97146  22590994.530    22591000.383
 04  4 21  2 20 30.0000000  0  7G11G16G14G30G25G 1G20
  21711980.542   -19520320.31049 -15202566.99347  21711979.969    21711985.161
  24609440.454    -4033217.68949  -3131328.83445  24609439.731    24609448.638
  23226018.270    -7136513.68049  -5538694.60646  23226017.532    23226023.026
  24202184.840    -2239501.99549  -1740841.40745  24202184.805    24202191.896
  20670997.015   -24322899.61449 -18936246.59548  20670996.567    20671001.506
  23311025.369   -10900521.25049  -8319719.08546  23311024.594    23311032.539
  22574812.123   -14511824.42649 -10767737.99946  22574811.154    22574817.009
 04  4 21  2 21  0.0000000  0  7G11G16G14G30G25G 1G20
  21716855.357   -19494703.08349 -15182605.53247  21716854.794    21716859.984
  24592224.877    -4123684.93849  -3201822.55945  24592224.148    24592232.855
  23239579.163    -7065251.29749  -5483165.46446  23239578.445    23239583.837
  24206098.623    -2218936.07749  -1724815.95545  24206098.616    24206105.663
  20676372.784   -24294649.64949 -18914233.62248  20676372.315    20676377.260
  23299073.430   -10963328.63049  -8368659.83646  23299072.708    23299080.688
  22558651.850   -14596746.90349 -10833911.31346  22558650.911    22558656.725
 04  4 21  2 21 30.0000000  0  7G11G16G14G30G25G 1G20
  21721826.178   -19468581.12449 -15162250.77047  21721825.613    21721830.791
  24574995.216    -4214227.57149  -3272375.04945  24574994.396    24575003.017
  23253144.887    -6993963.12949  -5427616.26046  23253144.153    23253149.602
  24210113.336    -2197838.77149  -1708376.46545  24210113.328    24210119.998
  20681837.085   -24265934.34549 -18891858.04848  20681836.642    20681841.579
  23287148.480   -11025994.31949  -8417490.17346  23287147.743    23287155.731
  22542515.050   -14681546.17049 -10899988.61346  22542514.092    22542519.897
 04  4 21  2 22  0.0000000  0  7G11G16G14G30G25G 1G20
  21726892.801   -19441955.90049 -15141503.85847  21726892.255    21726897.428
  24557751.501    -4304843.09649  -3342984.32045  24557750.774    24557759.334
  23266715.395    -6922649.75749  -5372047.40446  23266714.619    23266720.059
  24214229.053    -2176210.22649  -1691523.00145  24214229.028    24214235.590
  20687389.579   -24236755.52949 -18869121.29448  20687389.149    20687394.100
  23275250.485   -11088518.59649  -8466210.31646  23275249.700    23275257.722
  22526401.975   -14766220.66249 -10965968.67546  22526400.997    22526406.793
 04  4 21  2 22 30.0000000  0  7G11G16G14G30G25G 1G20
  21732054.802   -19414829.37949 -15120366.31847  21732054.262    21732059.416
  24540494.280    -4395529.08649  -3413648.51445  24540493.630    24540502.125
  23280290.469    -6851312.27349  -5316459.75146  23280289.700    23280295.022
  24218445.780    -2154051.35849  -1674256.30645  24218445.819    24218452.119
  20693029.911   -24207115.36849 -18846025.04448  20693029.484    20693034.442
  23263379.150   -11150902.23149  -8514820.87946  23263378.428    23263386.455
  22510312.936   -14850768.88149 -11031850.34846  22510311.975    22510317.766
 04  4 21  2 23  0.0000000  0  7G11G16G14G30G25G 1G20
  21737312.130   -19387202.36449 -15098838.78947  21737311.562    21737316.676
  24523224.335    -4486282.65149  -3484365.37745  24523223.716    24523232.067
  23293870.225    -6779950.18849  -5260852.93446  23293869.470    23293874.792
  24222763.516    -2131361.51449  -1656575.85845  24222763.510    24222769.895
  20698757.811   -24177015.14749 -18822570.31148  20698757.359    20698762.310
  23251534.692   -11213144.71849  -8563321.45446  23251533.989    23251542.017
  22494248.478   -14935188.10349 -11097631.50546  22494247.487    22494253.278
 04  4 21  2 23 30.0000000  0  7G11G16G14G30G25G 1G20
  21742664.232   -19359077.02249 -15076922.95647  21742663.647    21742668.760
  24505942.038    -4577101.33149  -3555132.96445  24505941.290    24505949.662
  23307454.416    -6708564.70449  -5205227.88646  23307453.685    23307459.003
  24227182.073    -2108141.46249  -1638482.30345  24227181.991    24227188.419
  20704572.912   -24146456.45549 -18798758.32948  20704572.463    20704577.409
  23239716.962   -11275246.96149  -8611712.74146  23239716.249    23239724.326
  22478208.788   -15019477.24249 -11163311.29746  22478207.791    22478213.528
 04  4 21  2 24  0.0000000  0  7G11G16G14G30G25G 1G20
  21748110.960   -19330454.17149 -15054619.44647  21748110.376    21748115.534
  24488647.785    -4667982.17149  -3625949.00345  24488647.203    24488655.445
  23321043.011    -6637155.89049  -5149584.66246  23321042.328    23321047.619
  24231701.466    -2084391.57649  -1619975.85945  24231701.481    24231707.710
  20710474.903   -24115441.25449 -18774590.62348  20710474.457    20710479.400
  23227925.901   -11337209.23949  -8659994.96346  23227925.182    23227933.258
  22462194.200   -15103634.27149 -11228888.15446  22462193.197    22462198.928
 04  4 21  2 24 30.0000000  0  7G11G16G14G30G25G 1G20
  21753651.914   -19301336.04249 -15031930.00647  21753651.361    21753656.527
  24471342.272    -4758922.84649  -3696811.69045  24471341.583    24471349.727
  23334635.982    -6565724.50949  -5093923.84746  23334635.228    23334640.607
  24236321.886    -2060112.32549  -1601056.91245  24236321.862    24236327.849
  20716463.435   -24083971.32349 -18750068.58048  20716462.981    20716467.919
  23216161.369   -11399032.08349  -8708168.54046  23216160.677    23216168.643
  22446205.120   -15187657.17049 -11294360.47746  22446204.146    22446209.820
 04  4 21  2 25  0.0000000  0  7G11G16G14G30G25G 1G20
  21759286.878   -19271724.06749 -15008855.75447  21759286.330    21759291.529
  24454025.742    -4849920.62649  -3767718.85245  24454025.081    24454033.190
  23348233.144    -6494270.93049  -5038245.73846  23348232.375    23348237.802
  24241042.774    -2035303.85049  -1581725.60745  24241042.596    24241048.787
  20722538.228   -24052048.08049 -18725193.31348  20722537.766    20722542.696
  23204423.318   -11460715.74449  -8756233.66046  23204422.573    23204430.545
  22430241.841   -15271544.39849 -11359727.09646  22430240.847    22430246.490
 04  4 21  2 25 30.0000000  0  7G11G16G14G30G25G 1G20
  21765015.673   -19241619.23849 -14985397.45647  21765015.104    21765020.309
  24436699.003    -4940972.24449  -3838667.98045  24436698.476    24436706.395
  23361834.525    -6422795.20949  -4982550.36946  23361833.769    23361839.190
  24245864.109    -2009966.32449  -1561982.04045  24245864.037    24245870.455
  20728699.021   -24019672.86649 -18699965.85748  20728698.551    20728703.465
  23192711.806   -11522260.15149  -8804190.28246  23192711.050    23192718.925
  22414304.953   -15355293.29649 -11424985.91246  22414303.940    22414309.558
 04  4 21  2 26  0.0000000  0  7G11G16G14G30G25G 1G20
  21770837.891   -19211023.30049 -14961556.48347  21770837.333    21770842.515
  24419362.632    -5032075.08849  -3909657.04245  24419361.898    24419369.902
  23375440.106    -6351297.78949  -4926838.09646  23375439.289    23375444.712
  24250786.321    -1984099.94049  -1541826.39945  24250786.250    24250792.656
  20734945.468   -23986847.61449 -18674387.71948  20734945.016    20734949.892
  23181026.624   -11583665.68949  -8852038.68746  23181025.900    23181033.743
  22398394.615   -15438902.27049 -11490135.70546  22398393.625    22398399.187
 04  4 21  2 26 30.0000000  0  7G11G16G14G30G25G 1G20
  21776753.436   -19179937.36649 -14937333.69947  21776752.858    21776758.006
  24402016.949    -5123226.06249  -3980683.60645  24402016.375    24402024.315
  23389049.669    -6279778.78749  -4871108.99646  23389048.868    23389054.223
  24255809.137    -1957704.84549  -1521258.74745  24255809.133    24255815.290
  20741277.304   -23953573.63449 -18648459.93048  20741276.833    20741281.685
  23169367.959   -11644932.33349  -8899778.85346  23169367.201    23169375.059
  22382511.396   -15522369.07949 -11555174.71546  22382510.401    22382515.916
 04  4 21  2 27  0.0000000  0  7G11G16G14G30G25G 1G20
  21782761.672   -19148363.86649 -14912730.98747  21782761.098    21782766.262
  24384662.584    -5214423.06649  -4051746.02845  24384661.971    24384669.895
  23402663.183    -6208239.30049  -4815363.94046  23402662.493    23402667.757
  24260932.209    -1930782.13849  -1500279.98245  24260932.326    24260938.713
  20747694.036   -23919853.44849 -18622184.44748  20747693.571    20747698.396
  23157735.553   -11706060.97249  -8947411.48746  23157734.744    23157742.588
  22366655.531   -15605692.05449 -11620101.64446  22366654.557    22366660.011
 04  4 21  2 27 30.0000000  0  7G11G16G14G30G25G 1G20
  21788862.548   -19116303.68449 -14887749.05247  21788861.965    21788867.157
  24367300.159    -5305662.82549  -4122841.78745  24367299.550    24367307.283
  23416280.561    -6136679.01949  -4759602.69146  23416279.887    23416285.242
  24266155.750    -1903331.67049  -1478890.00045  24266155.860    24266162.496
  20754195.418   -23885688.34249 -18595562.26848  20754194.960    20754199.800
  23146129.301   -11767051.49149  -8994936.48946  23146128.609    23146136.414
  22350827.464   -15688868.93349 -11684914.74346  22350826.505    22350831.917
 04  4 21  2 28  0.0000000  0  7G11G16G14G30G25G 1G20
  21795055.613   -19083758.95049 -14862389.54047  21795055.027    21795060.265
  24349930.033    -5396942.66349  -4193968.77645  24349929.245    24349937.112
  23429901.777    -6065098.66749  -4703825.80146  23429901.097    23429906.510
  24271479.683    -1875354.31749  -1457089.43045  24271479.694    24271486.479
  20760781.057   -23851080.42849 -18568595.04648  20760780.601    20760785.442
  23134549.316   -11827904.52749  -9042354.34646  23134548.635    23134556.361
  22335027.516   -15771898.00849 -11749612.65546  22335026.523    22335031.912
 04  4 21  2 28 30.0000000  0  7G11G16G14G30G25G 1G20
  21801340.559   -19050731.22649 -14836653.67647  21801339.986    21801345.218
  24332552.650    -5488259.95549  -4265124.91645  24332551.955    24332559.912
  23443526.817    -5993498.59649  -4648033.53746  23443526.115    23443531.479
  24276903.931    -1846850.44149  -1434878.58445  24276903.978    24276910.475
  20767450.662   -23816031.31749 -18541284.03548  20767450.223    20767455.055
  23122995.472   -11888620.45949  -9089665.38746  23122994.724    23123002.385
  22319256.056   -15854777.62349 -11814194.11546  22319255.011    22319260.417
 04  4 21  2 29  0.0000000  0  7G11G16G14G30G25G 1G20
  21807717.214   -19017221.99149 -14810542.60647  21807716.632    21807721.870
  24315168.835    -5579611.81449  -4336308.02745  24315168.130    24315176.031
  23457155.586    -5921878.78649  -4592225.90446  23457154.900    23457160.289
  24282428.257    -1817820.35349  -1412257.70045  24282428.215    24282434.617
  20774203.978   -23780542.42749 -18513630.34048  20774203.518    20774208.357
  23111467.520   -11949199.39749  -9136869.67346  23111466.835    23111474.532
  22303513.411   -15937505.37249 -11878657.23146  22303512.350    22303517.784
 04  4 21  2 29 30.0000000  0  7G11G16G14G30G25G 1G20
  21814185.228   -18983232.67149 -14784057.44547  21814184.614    21814189.830
  24297779.068    -5670995.14349  -4407515.62545  24297778.248    24297786.066
  23470788.027    -5850239.72749  -4536403.26846  23470787.322    23470792.721
  24288052.551    -1788264.55649  -1389227.16845  24288052.591    24288058.765
  20781040.614   -23744615.63449 -18485635.42048  20781040.155    20781044.987
  23099965.784   -12009641.52049  -9183967.34146  23099965.057    23099972.688
  22287800.050   -16020078.98249 -11943000.23946  22287799.038    22287804.500
 04  4 21  2 30  0.0000000  0  7G11G16G14G30G25G 1G20
  21820744.144   -18948765.29349 -14757199.77247  21820743.544    21820748.748
  24280383.784    -5762407.33449  -4478745.73245  24280383.111    24280390.765
  23484424.108    -5778581.81549  -4480565.92446  23484423.382    23484428.789
  24293776.877    -1758183.43249  -1365787.29245  24293776.888    24293783.040
  20787960.210   -23708252.75949 -18457300.69948  20787959.755    20787964.584
  23088489.941   -12069947.12649  -9230958.63146  23088489.221    23088496.836
  22272116.442   -16102496.55049 -12007221.65846  22272115.445    22272120.902
 04  4 21  2 30 30.0000000  0  7G11G16G14G30G25G 1G20
  21827393.779   -18913821.33149 -14729970.73847  21827393.140    21827398.366
  24262983.576    -5853845.50049  -4549996.09745  24262982.827    24262990.454
  23498063.707    -5706905.18649  -4424714.03046  23498062.870    23498068.445
  24299600.676    -1727577.63149  -1341938.59145  24299600.707    24299606.903
  20794962.442   -23671455.61349 -18428627.58248  20794961.987    20794966.827
  23077040.057   -12130116.49649  -9277843.77546  23077039.328    23077046.895
  22256462.841   -16184756.37249 -12071320.16547  22256461.842    22256467.321
 04  4 21  2 31  0.0000000  0  7G11G16G14G30G25G 1G20
  21834133.720   -18878402.60449 -14702371.75747  21834133.124    21834138.350
  24245578.999    -5945306.55949  -4621264.26245  24245578.046    24245585.812
  23511706.793    -5635209.97649  -4368847.64046  23511706.044    23511711.552
  24305524.372    -1696447.62149  -1317681.40445  24305524.416    24305530.507
  20802047.066   -23634225.53349 -18399617.11548  20802046.623    20802051.463
  23065616.088   -12190149.76449  -9324622.85846  23065615.317    23065622.814
  22240839.798   -16266855.75949 -12135293.65747  22240838.808    22240844.286
 04  4 21  2 31 30.0000000  0  7G11G16G14G30G25G 1G20
  21840963.664   -18842511.11549 -14674404.38947  21840963.046    21840968.281
  24228170.614    -6036787.72749  -4692548.12445  24228169.618    24228177.256
  23525353.441    -5563496.82049  -4312967.26245  23525352.687    23525358.042
  24311547.745    -1664794.39949  -1293016.50345  24311547.676    24311553.904
  20809213.600   -23596564.84749 -18370271.10748  20809213.162    20809218.016
  23054217.886   -12250047.48249  -9371296.32446  23054217.108    23054224.507
  22225247.502   -16348793.48949 -12199141.18247  22225246.522    22225252.006
 04  4 21  2 32  0.0000000  0  7G11G16G14G30G25G 1G20
  21847883.313   -18806148.05949 -14646069.56247  21847882.715    21847887.993
  24210758.837    -6128286.22049  -4763845.48145  24210757.831    24210765.565
  23539003.462    -5491765.75749  -4257072.94345  23539002.717    23539008.062
  24317670.574    -1632618.03549  -1267943.95545  24317670.516    24317676.793
  20816461.889   -23558474.81449 -18340590.54548  20816461.454    20816466.284
  23042845.463   -12309809.66549  -9417864.17146  23042844.691    23042852.035
  22209686.504   -16430566.78349 -12262860.58547  22209685.535    22209691.021
 04  4 21  2 32 30.0000000  0  7G11G16G14G30G25G 1G20
  21854892.310   -18769315.60149 -14617368.97547  21854891.733    21854896.976
  24193344.214    -6219799.32749  -4835154.21945  24193343.367    24193350.974
  23552656.807    -5420017.34049  -4201165.06745  23552656.046    23552661.269
  24323892.950    -1599919.43249  -1242464.52245  24323892.889    24323899.020
  20823791.445   -23519957.81149 -18310577.28048  20823791.009    20823795.812
  23031498.717   -12369436.92349  -9464326.88646  23031497.946    23031505.279
  22194157.124   -16512173.94749 -12326450.53547  22194156.155    22194161.628
 04  4 21  2 33  0.0000000  0  7G11G16G14G30G25G 1G20
  21861990.418   -18732015.14249 -14588303.70647  21861989.810    21861995.023
  24175927.611    -6311323.71249  -4906471.77145  24175926.834    24175934.363
  23566313.347    -5348251.40649  -4145243.58945  23566312.621    23566317.854
  24330214.514    -1566699.09749  -1216578.50945  24330214.423    24330220.658
  20831201.921   -23481015.48749 -18280232.59448  20831201.479    20831206.265
  23020177.620   -12428929.28849  -9510684.48546  23020176.833    23020184.150
  22178659.894   -16593612.36949 -12389909.00547  22178658.884    22178664.382
 04  4 21  2 33 30.0000000  0  7G11G16G14G30G25G 1G20
  21869177.129   -18694248.68349 -14558875.32047  21869176.534    21869181.782
  24158509.415    -6402856.57149  -4977795.91045  24158508.572    24158516.177
  23579973.173    -5276468.29749  -4089308.69845  23579972.434    23579977.680
  24336635.325    -1532957.58349  -1190286.39745  24336635.268    24336641.463
  20838693.080   -23441649.32749 -18249557.64648  20838692.623    20838697.410
  23008882.122   -12488287.14549  -9556937.27446  23008881.323    23008888.657
  22163195.020   -16674880.44249 -12453234.73647  22163194.040    22163199.545
 04  4 21  2 34  0.0000000  0  7G11G16G14G30G25G 1G20
  21876452.096   -18656018.37349 -14529085.49347  21876451.508    21876456.806
  24141089.918    -6494395.71649  -5049124.92745  24141089.202    24141096.829
  23593636.272    -5204668.86049  -4033361.07546  23593635.506    23593640.633
  24343155.134    -1498696.29949  -1163589.23645  24343155.074    24343161.170
  20846264.336   -23401861.89649 -18218554.43548  20846263.892    20846268.680
  22997612.024   -12547511.18449  -9603085.79446  22997611.205    22997618.594
  22147762.924   -16755976.46649 -12516426.41147  22147761.934    22147767.423
 04  4 21  2 34 30.0000000  0  6G11G16G14G25G 1G20
  21883815.038   -18617325.73049 -14498935.40447  21883814.460    21883819.798
  24123669.980    -6585937.75449  -5120456.22445  24123669.291    24123676.766
  23607302.282    -5132852.93249  -3977400.66445  23607301.456    23607306.761
  20853915.449   -23361654.98349 -18187224.35248  20853914.995    20853919.785
  22986367.470   -12606601.32349  -9649129.97346  22986366.680    22986374.104
  22132364.089   -16836897.86449 -12579482.02047  22132363.084    22132368.545
 04  4 21  2 35  0.0000000  0  6G11G16G14G25G 1G20
  21891265.619   -18578172.53649 -14468426.44447  21891265.053    21891270.412
  24106250.070    -6677479.54549  -5191787.33445  24106249.421    24106256.848
  23620971.533    -5061020.61249  -3921427.42345  23620970.692    23620975.986
  20861646.127   -23321029.91449 -18155568.43648  20861645.673    20861650.455
  22975148.364   -12665557.84149  -9695070.03246  22975147.567    22975155.002
  22116998.859   -16917642.40849 -12642399.82247  22116997.861    22117003.317
 04  4 21  2 35 30.0000000  0  6G11G16G14G25G 1G20
  21898803.533   -18538560.81449 -14437560.18947  21898802.954    21898808.315
  24088830.705    -6769018.24349  -5263116.01945  24088830.030    24088837.594
  23634643.993    -4989172.14649  -3865441.60845  23634643.167    23634648.272
  20869455.947   -23279988.88349 -18123588.39748  20869455.497    20869460.295
  22963954.553   -12724381.06149  -9740906.22946  22963953.756    22963961.259
  22101667.762   -16998207.89749 -12705178.09947  22101666.755    22101672.166
 04  4 21  2 36  0.0000000  0  6G11G16G14G25G 1G20
  21906428.268   -18498492.96449 -14406338.50647  21906427.656    21906433.007
  24071412.354    -6860551.42849  -5334440.44045  24071411.759    24071419.213
  23648319.314    -4917308.16449  -3809443.72745  23648318.480    23648323.619
  20877344.479   -23238534.02649 -18091285.89348  20877344.046    20877348.874
  22952785.988   -12783071.71549  -9786639.12446  22952785.248    22952792.717
  22086370.980   -17078592.76249 -12767815.62847  22086369.964    22086375.377
 04  4 21  2 36 30.0000000  0  6G11G16G14G25G 1G20
  21914139.442   -18457970.40249 -14374762.50147  21914138.847    21914144.207
  24053995.648    -6952076.07849  -5405758.16745  24053995.036    24054002.543
  23661997.538    -4845428.64149  -3753433.73945  23661996.710    23662001.846
  20885311.440   -23196667.20049 -18058662.37548  20885311.010    20885315.839
  22941642.644   -12841629.99849  -9832268.87046  22941641.912    22941649.323
  22071109.003   -17158794.93649 -12830310.80647  22071108.000    22071113.399
 04  4 21  2 37  0.0000000  0  6G11G16G14G25G 1G20
  21921936.853   -18416994.83449 -14342833.50347  21921936.229    21921941.606
  24036581.211    -7043588.78549  -5477066.64245  24036580.552    24036587.998
  23675678.799    -4773533.48149  -3697411.53845  23675678.009    23675683.014
  20893356.520   -23154389.77849 -18025718.91148  20893356.091    20893360.931
  22930524.528   -12900055.74749  -9877795.34846  22930523.789    22930531.184
  22055882.281   -17238811.74549 -12892661.53847  22055881.271    22055886.706
 04  4 21  2 37 30.0000000  0  6G11G16G14G25G 1G20
  21929820.069   -18375568.32749 -14310553.12447  21929819.452    21929824.800
  24019169.593    -7135086.73749  -5548363.58845  24019168.915    24019176.271
  23689362.928    -4701623.19249  -3641377.54845  23689362.046    23689367.077
  20901479.431   -23111703.72249 -17992457.03748  20901478.997    20901483.805
  22919431.565   -12958349.28249  -9923218.81246  22919430.848    22919438.247
  22040691.243   -17318641.09549 -12954866.20847  22040690.248    22040695.649
 04  4 21  2 38  0.0000000  0  6G11G16G14G25G 1G20
  21937788.730   -18333692.92549 -14277922.95847  21937788.105    21937793.426
  24001761.334    -7226567.33749  -5619647.03645  24001760.566    24001767.779
  23703049.764    -4629698.28049  -3585332.16246  23703048.911    23703053.965
  20909679.576   -23068611.64849 -17958878.78248  20909679.130    20909683.919
  22908363.643   -13016511.23549  -9968539.73646  22908362.961    22908370.272
  22025536.287   -17398281.04649 -13016923.28347  22025535.289    22025540.671
 04  4 21  2 38 30.0000000  0  6G11G16G14G25G 1G20
  21945842.478   -18291370.25249 -14244944.26747  21945841.860    21945847.162
  23984357.055    -7318027.08449  -5690914.21045  23984356.366    23984363.336
  23716739.509    -4557758.05149  -3529274.86146  23716738.773    23716743.873
  20917956.722   -23025114.85649 -17924985.16448  20917956.270    20917961.068
  22897320.664   -13074541.66149 -10013758.17546  22897320.016    22897327.337
  22010417.758   -17477729.25249 -13078830.94847  22010416.776    22010422.131
 04  4 21  2 39  0.0000000  0  6G11G16G14G25G 1G20
  21953980.842   -18248602.80249 -14211618.99347  21953980.265    21953985.551
  23966957.186    -7409463.50449  -5762163.21745  23966956.361    23966963.491
  23730432.015    -4485803.42349  -3473206.33246  23730431.264    23730436.453
  20926310.453   -22981215.49649 -17890777.85248  20926310.007    20926314.823
  22886302.603   -13132441.20149 -10058874.63046  22886301.963    22886309.364
  21995336.110   -17556983.85049 -13140587.74047  21995335.136    21995340.459
 04  4 21  2 39 30.0000000  0  6G11G16G14G25G 1G20
  21962203.550   -18205392.38349 -14177948.54847  21962202.973    21962208.266
  23949562.394    -7500873.47649  -5833391.65045  23949561.574    23949568.580
  23744127.358    -4413834.42149  -3417126.59345  23744126.532    23744131.666
  20934740.500   -22936915.37149 -17856258.25748  20934740.051    20934744.862
  22875309.527   -13190209.98049 -10103889.18846  22875308.863    22875316.249
  21980291.677   -17636042.65549 -13202191.96747  21980290.681    21980296.029
 04  4 21  2 40  0.0000000  0  6G11G16G14G25G 1G20
  21970510.121   -18161741.19749 -14143934.64647  21970509.523    21970514.805
  23932173.005    -7592254.19249  -5904597.23245  23932172.162    23932179.389
  23757825.254    -4341851.27049  -3361035.85145  23757824.460    23757829.677
  20943246.337   -22892216.78249 -17821428.17348  20943245.903    20943250.690
  22864341.210   -13247848.54049 -10148802.28446  22864340.527    22864347.954
  21965284.903   -17714903.50249 -13263641.93747  21965283.941    21965289.274
 04  4 21  2 40 30.0000000  0  6G11G16G14G25G 1G20
  21978900.249   -18117650.70349 -14109578.43047  21978899.684    21978904.949
  23914790.121    -7683602.04749  -5975777.24145  23914789.306    23914796.424
  23771525.989    -4269853.54249  -3304933.72245  23771525.246    23771530.440
  20951827.812   -22847120.91949 -17786288.52848  20951827.362    20951832.140
  22853397.764   -13305356.53449 -10193613.62746  22853397.063    22853404.471
  21950316.401   -17793563.53349 -13324935.42147  21950315.433    21950320.757
 04  4 21  2 41  0.0000000  0  6G11G16G14G25G 1G20
  21987373.445   -18073123.81049 -14074882.15547  21987372.878    21987378.164
  23897413.612    -7774915.23149  -6046930.22745  23897412.816    23897419.829
  23785229.131    -4197842.55749  -3248821.28345  23785228.350    23785233.716
  20960484.197   -22801631.12249 -17750841.92148  20960483.739    20960488.509
  22842478.960   -13362735.16049 -10238324.17546  22842478.241    22842485.608
  21935386.297   -17872021.71049 -13386071.61647  21935385.299    21935390.623
 04  4 21  2 41 30.0000000  0  6G11G16G14G25G 1G20
  21995929.452   -18028161.63449 -14039846.70347  21995928.905    21995934.205
  23880044.604    -7866189.45949  -6118052.87945  23880043.869    23880050.706
  23798934.952    -4125817.37549  -3192697.78245  23798934.171    23798939.714
  20969215.453   -22755748.12649 -17715088.92648  20969214.995    20969219.753
  22831584.869   -13419983.57949 -10282933.26346  22831584.134    22831591.499
  21920495.170   -17950274.69949 -13447047.92447  21920494.208    21920499.518
 04  4 21  2 42  0.0000000  0  6G11G16G14G25G 1G20
  22004567.843   -17982766.79649 -14004474.11047  22004567.275    22004572.575
  23862683.524    -7957422.40249  -6189143.36145  23862682.828    23862689.509
  23812643.449    -4053778.62249  -3136563.68345  23812642.681    23812648.007
  20978020.992   -22709474.64749 -17679031.66348  20978020.539    20978025.275
  22820715.338   -13477102.73249 -10327441.61046  22820714.688    22820722.045
  21905643.427   -18028321.02249 -13507863.19547  21905642.459    21905647.772
 04  4 21  2 42 30.0000000  0  6G11G16G14G25G 1G20
  22013288.062   -17936941.83349 -13968766.35547  22013287.478    22013292.794
  23845330.749    -8048611.39849  -6260199.59545  23845330.031    23845336.680
  23826354.568    -3981726.63049  -3080419.28345  23826353.818    23826359.105
  20986900.436   -22662812.73849 -17642671.72048  20986899.991    20986904.714
  22809870.394   -13534093.35949 -10371849.79946  22809869.676    22809876.987
  21890831.347   -18106158.81449 -13568515.97247  21890830.354    21890835.689
 04  4 21  2 43  0.0000000  0  6G11G16G14G25G 1G20
  22022089.740   -17890688.79249 -13932725.03147  22022089.165    22022094.483
  23827986.875    -8139753.29649  -6331219.12345  23827986.149    23827992.722
  23840068.124    -3909661.78949  -3024264.86045  23840067.315    23840072.500
  20995853.445   -22615764.37849 -17606010.64948  20995853.003    20995857.709
  22799049.796   -13590955.72849 -10416158.05746  22799049.067    22799056.379
  21876059.360   -18183785.87049 -13629004.53647  21876058.390    21876063.713
 04  4 21  2 43 30.0000000  0  6G11G16G14G25G 1G20
  22030972.522   -17844009.47649 -13896351.55347  22030971.916    22030977.261
  23810652.435    -8230845.00549  -6402199.54045  23810651.739    23810658.432
  23853783.952    -3837583.80949  -2968100.23945  23853783.139    23853788.550
  21004879.686   -22568331.15149 -17569049.68248  21004879.225    21004883.909
  22788253.525   -13647689.89849 -10460366.42146  22788252.861    22788260.124
  21861328.036   -18261199.45949 -13689326.76747  21861327.058    21861332.381
 04  4 21  2 44  0.0000000  0  6G11G16G14G25G 1G20
  22039936.101   -17796905.49449 -13859647.16347  22039935.510    22039940.843
  23793328.366    -8321882.82349  -6473137.96845  23793327.712    23793334.434
  23867502.619    -3765492.35949  -2911925.06545  23867501.842    23867506.992
  21013978.867   -22520514.57149 -17531789.99348  21013978.416    21013983.096
  22777481.719   -13704295.47049 -10504474.56146  22777481.058    22777488.361
  21846637.841   -18338397.01449 -13749480.65347  21846636.848    21846642.147
 04  4 21  2 44 30.0000000  0  6G11G16G14G25G 1G20
  22048979.953   -17749379.92349 -13822614.25947  22048979.349    22048984.675
  23776015.033    -8412864.93749  -6544033.00145  23776014.388    23776021.138
  23881223.592    -3693388.50849  -2855740.25445  23881222.694    23881227.912
  21023150.402   -22472317.77749 -17494234.03548  21023149.926    21023154.623
  22766734.216   -13760773.83349 -10548483.58146  22766733.519    22766740.828
  21831988.995   -18415377.18449 -13809465.15247  21831987.999    21831993.269
 04  4 21  2 45  0.0000000  0  6G11G16G14G25G 1G20
  22058103.679   -17701434.52549 -13785254.21647  22058103.093    22058108.387
  23758712.966    -8503787.49649  -6614881.61545  23758712.335    23758719.043
  23894946.908    -3621271.74349  -2799545.39545  23894946.033    23894951.287
  21032393.991   -22423742.18549 -17456382.91348  21032393.517    21032398.237
  22756010.980   -13817124.73449 -10592393.28146  22756010.232    22756017.539
  21817382.069   -18492137.04449 -13869277.99047  21817381.061    21817386.291
 04  4 21  2 45 30.0000000  0  6G11G16G14G25G 1G20
  22067306.807   -17653071.57749 -13747568.80747  22067306.212    22067311.516
  23741422.718    -8594647.97549  -6685681.84545  23741422.106    23741428.700
  23908672.695    -3549142.59649  -2743340.87045  23908671.921    23908677.036
  21041709.217   -22374790.22149 -17418238.50848  21041708.748    21041713.493
  22745311.878   -13873348.64649 -10636204.02446  22745311.169    22745318.396
  21802817.345   -18568674.92949 -13928917.85647  21802816.364    21802821.549
 04  4 21  2 46  0.0000000  0  6G11G16G14G25G 1G20
  22076588.968   -17604293.50249 -13709559.92847  22076588.376    22076593.717
  23724144.948    -8685443.39149  -6756431.40045  23724144.287    23724150.739
  23922400.737    -3477001.07249  -2687126.70645  23922399.957    23922405.051
  21051095.651   -22325464.03449 -17379802.50448  21051095.200    21051099.943
  22734636.909   -13929446.13549 -10679916.26246  22734636.129    22734643.316
  21788295.303   -18644988.75749 -13988383.14147  21788294.318    21788299.473
 04  4 21  2 46 30.0000000  0  6G11G16G14G25G 1G20
  22085949.837   -17555101.80549 -13671228.74047  22085949.236    22085954.628
  23706880.162    -8776170.10149  -6827127.41345  23706879.459    23706885.861
  23936131.246    -3404846.80649  -2630902.59345  23936130.541    23936135.647
  21060553.095   -22275764.90749 -17341075.90048  21060552.633    21060557.382
  22723985.968   -13985416.83549 -10723529.69946  22723985.202    22723992.322
  21773816.459   -18721075.41449 -14047671.40747  21773815.481    21773820.614
 04  4 21  2 47  0.0000000  0  6G11G16G14G25G 1G20
  22095388.965   -17505498.87849 -13632577.11947  22095388.341    22095393.770
  23689628.864    -8866825.21349  -6897767.63845  23689628.242    23689634.588
  23949864.094    -3332679.91049  -2574668.68145  23949863.384    23949868.547
  21070081.066   -22225695.01249 -17302060.38448  21070080.597    21070085.360
  22713359.093   -14041261.16749 -10767044.67246  22713358.330    22713365.407
  21759381.223   -18796932.89949 -14106781.09947  21759380.244    21759385.372
 04  4 21  2 47 30.0000000  0  6G11G16G14G25G 1G20
  22104905.834   -17455487.27249 -13593607.04447  22104905.203    22104910.662
  23672391.802    -8957406.20049  -6968350.09045  23672391.125    23672397.504
  23963599.419    -3260501.04849  -2518425.38045  23963598.656    23963603.736
  21079679.036   -22175257.11749 -17262758.11148  21079678.582    21079683.384
  22702756.074   -14096980.02949 -10810461.88046  22702755.319    22702762.360
  21744989.943   -18872559.42649 -14165710.82547  21744988.937    21744994.072
 04  4 21  2 48  0.0000000  0  6G11G16G14G25G 1G20
  22114500.038   -17405069.32049 -13554320.33047  22114499.431    22114504.899
  23655169.353    -9047909.83349  -7038872.28145  23655168.608    23655175.166
  23977336.828    -3188310.20549  -2462172.79945  23977336.086    23977341.159
  21089346.713   -22124453.08149 -17223170.53748  21089346.249    21089351.042
  22692176.894   -14152573.59149 -10853781.45746  22692176.133    22692183.160
  21730643.084   -18947952.59949 -14224458.72347  21730642.050    21730647.195
 04  4 21  2 48 30.0000000  0  6G11G16G14G25G 1G20
  22124171.275   -17354246.59849 -13514718.21747  22124170.645    22124176.126
  23637962.423    -9138332.34149  -7109331.27045  23637961.720    23637968.121
  23991076.620    -3116106.76749  -2405910.39945  23991075.894    23991081.006
  21099083.831   -22073284.16949 -17183298.64548  21099083.359    21099088.129
  22681621.649   -14208041.40249 -10897003.03446  22681620.891    22681627.920
  21716341.153   -19023109.57349 -14283022.57547  21716340.141    21716345.270
 04  4 21  2 49  0.0000000  0  6G11G16G14G25G 1G20
  22133918.925   -17303022.25449 -13474803.14747  22133918.337    22133923.820
  23620771.182    -9228671.54649  -7179725.33045  23620770.511    23620777.053
  24004818.763    -3043891.52049  -2349638.78345  24004817.871    24004823.145
  21108889.823   -22021753.18349 -17143144.61848  21108889.360    21108894.107
  22671090.177   -14263384.53649 -10940127.46846  22671089.392    22671096.405
  21702084.407   -19098028.96549 -14341401.29647  21702083.410    21702088.528
 04  4 21  2 49 30.0000000  0  6G11G16G14G25G 1G20
  22143742.718   -17251397.86449 -13434576.35647  22143742.136    22143747.571
  23603596.658    -9318923.57749  -7250051.48445  23603596.080    23603602.530
  24018563.234    -2971663.98549  -2293357.60245  24018562.385    24018567.573
  21118764.485   -21969861.63049 -17102709.62848  21118764.014    21118768.734
  22660582.441   -14318602.51349 -10983154.37446  22660581.676    22660588.745
  21687873.476   -19172707.71749 -14399592.50347  21687872.478    21687877.587
 04  4 21  2 50  0.0000000  0  6G11G16G14G25G 1G20
  22153642.122   -17199376.23849 -13394040.03247  22153641.543    22153646.974
  23586439.351    -9409086.12249  -7320307.91745  23586438.708    23586445.051
  24032309.962    -2899424.73749  -2237067.26445  24032309.167    24032314.157
  21128707.243   -21917612.06749 -17061995.67248  21128706.781    21128711.473
  22650098.305   -14373696.44549 -11026084.62046  22650097.564    22650104.629
  21673708.730   -19247144.00349 -14457594.78047  21673707.695    21673712.790
 04  4 21  2 50 30.0000000  0  6G11G16G14G25G 1G20
  22163616.694   -17146959.61249 -13353195.91547  22163616.098    22163621.516
  23569299.646    -9499156.29849  -7390492.37945  23569298.994    23569305.107
  24046058.815    -2827173.97549  -2180767.96045  24046058.051    24046063.005
  21138717.628   -21865007.07549 -17021004.76248  21138717.161    21138721.854
  22639637.790   -14428666.73749 -11068918.53446  22639637.015    22639644.029
  21659590.412   -19321335.94949 -14515406.66347  21659589.378    21659594.485
 04  4 21  2 51  0.0000000  0  6G11G16G14G25G 1G20
  22173665.941   -17094150.44349 -13312045.92747  22173665.371    22173670.758
  23552178.061    -9589130.52349  -7460602.06445  23552177.387    23552183.501
  24059809.824    -2754911.40049  -2124459.49945  24059809.052    24059814.214
  21148795.379   -21812048.02849 -16979737.96148  21148794.904    21148799.597
  22629200.848   -14483513.08049 -11111655.87146  22629200.081    22629207.004
  21645519.148   -19395280.76149 -14573025.97447  21645518.120    21645523.239
 04  4 21  2 51 30.0000000  0  6G11G16G14G25G 1G20
  22183789.569   -17040950.62649 -13270591.53247  22183788.982    22183794.366
  23535075.274    -9679005.52249  -7530634.43345  23535074.597    23535080.711
  24073563.355    -2682636.81549  -2068141.63345  24073562.549    24073567.794
  21158940.129   -21758736.96249 -16938196.85848  21158939.661    21158944.359
  22618787.490   -14538235.64349 -11154296.75646  22618786.690    22618793.538
  21631495.344   -19468975.88349 -14630450.72047  21631494.328    21631499.469
 04  4 21  2 52  0.0000000  0  6G11G16G14G25G 1G20
  22193986.867   -16987363.47949 -13228835.32347  22193986.263    22193991.631
  23517991.713    -9768779.25649  -7600587.89945  23517991.134    23517997.178
  24087318.874    -2610351.11949  -2011815.11245  24087318.077    24087323.247
  21169151.212   -21705077.14449 -16896384.00348  21169150.762    21169155.484
  22608397.413   -14592835.72849 -11196842.19646  22608396.643    22608403.400
  21617519.373   -19542420.06849 -14687679.93047  21617518.383    21617523.510
 04  4 21  2 52 30.0000000  0  6G11G16G14G25G 1G20
  22204257.586   -16933390.67949 -13186778.60847  22204256.953    22204262.292
  23500928.359    -9858447.75249  -7670459.37945  23500927.687    23500933.752
  24101076.563    -2538053.60449  -1955479.42245  24101075.782    24101081.092
  21179428.547   -21651069.24849 -16854299.91448  21179428.097    21179432.819
  22598030.680   -14647312.75149 -11239291.76746  22598029.940    22598036.669
  21603591.781   -19615610.14949 -14744711.13947  21603590.755    21603595.860
 04  4 21  2 53  0.0000000  0  6G11G16G14G25G 1G20
  22214601.185   -16879034.53349 -13144423.20247  22214600.572    22214605.897
  23483885.610    -9948008.10449  -7740246.56645  23483884.835    23483890.846
  24114836.525    -2465744.43049  -1899134.60345  24114835.786    24114841.190
  21189771.679   -21596715.82349 -16811946.58448  21189771.217    21189775.932
  22587687.341   -14701667.13949 -11281645.76746  22587686.590    22587693.300
  21589712.905   -19688544.03549 -14801542.71147  21589711.893    21589716.987
 04  4 21  2 53 30.0000000  0  6G11G16G14G25G 1G20
  22225017.336   -16824297.53849 -13101771.00847  22225016.741    22225022.044
  23466863.861   -10037457.36549  -7809947.19445  23466863.118    23466869.090
  24128598.730    -2393423.62349  -1842780.75145  24128597.939    24128603.438
  21200180.135   -21542019.08249 -16769325.73848  21200179.641    21200184.364
  22577367.237   -14755899.34549 -11323904.56846  22577366.475    22577373.185
  21575883.250   -19761219.44049 -14858172.86647  21575882.218    21575887.332
 04  4 21  2 54  0.0000000  0  6G11G16G14G25G 1G20
  22235505.498   -16769182.00449 -13058823.85047  22235504.870    22235510.167
  23449863.953   -10126792.28249  -7879558.74945  23449863.178    23449869.116
  24142363.144    -2321091.21449  -1786417.83145  24142362.391    24142367.962
  21210653.535   -21486980.97949 -16726438.89248  21210653.071    21210657.773
  22567070.360   -14810009.47949 -11366068.23846  22567069.553    22567076.261
  21562103.175   -19833633.83049 -14914599.63247  21562102.187    21562107.286
 04  4 21  2 54 30.0000000  0  6G11G16G14G25G 1G20
  22246065.212   -16713690.34249 -13015583.61047  22246064.600    22246069.924
  23432886.358   -10216009.63149  -7949078.67045  23432885.562    23432891.575
  24156129.618    -2248747.33549  -1730045.99545  24156128.800    24156134.489
  21221191.415   -21431603.88649 -16683287.90148  21221190.955    21221195.635
  22556796.602   -14863997.89149 -11408137.06446  22556795.835    22556802.549
  21548373.196   -19905785.24349 -14970821.48247  21548372.212    21548377.320
 04  4 21  2 55  0.0000000  0  6G11G16G14G25G 1G20
  22256696.090   -16657824.73349 -12972051.98447  22256695.480    22256700.816
  23415931.720   -10305106.16649  -8018504.45646  23415931.018    23415936.988
  24169898.421    -2176391.48749  -1673664.83345  24169897.578    24169903.332
  21231793.543   -21375889.39849 -16639874.00348  21231793.095    21231797.754
  22546546.053   -14917864.55349 -11450111.02946  22546545.311    22546551.988
  21534693.814   -19977670.78449 -15026836.17047  21534692.842    21534697.917
 04  4 21  2 55 30.0000000  0  6G11G16G14G25G 1G20
  22267397.573   -16601588.08849 -12928231.23847  22267396.952    22267402.312
  23399000.626   -10394079.47749  -8087834.21546  23398999.900    23399005.916
  24183669.440    -2104024.23749  -1617274.77245  24183668.644    24183674.358
  21242459.356   -21319840.16449 -16596199.26548  21242458.882    21242463.537
  22536318.535   -14971610.29249 -11491990.76646  22536317.752    22536324.430
  21521065.376   -20049288.77949 -15082642.37047  21521064.387    21521069.461
 04  4 21  2 56  0.0000000  0  6G11G16G14G25G 1G20
  22278169.108   -16544983.07449 -12884123.44947  22278168.505    22278173.863
  23382093.549   -10482926.33649  -8157065.45046  23382092.794    23382098.806
  24197442.608    -2031645.58249  -1560875.84745  24197441.829    24197447.658
  21253188.434   -21263458.39849 -16552265.41047  21253187.954    21253192.609
  22526113.912   -15025235.49549 -11533776.58146  22526113.186    22526119.832
  21507488.191   -20120637.11749 -15138238.45147  21507487.197    21507492.280
 04  4 21  2 56 30.0000000  0  6G11G16G14G25G 1G20
  22289010.371   -16488011.89649 -12839730.34347  22289009.779    22289015.152
  23365211.065   -10571643.68349  -8226195.75146  23365210.372    23365216.400
  24211218.056    -1959255.64649  -1504468.08845  24211217.343    24211223.021
  21263980.424   -21206746.12149 -16508074.01947  21263979.933    21263984.584
  22515932.257   -15078740.09349 -11575468.41246  22515931.525    22515938.179
  21493962.827   -20191713.18849 -15193622.37047  21493961.820    21493966.910
 04  4 21  2 57  0.0000000  0  6G11G16G14G25G 1G20
  22299920.911   -16430676.87449 -12795053.71247  22299920.306    22299925.647
  23348353.927   -10660228.27449  -8295222.61246  23348353.222    23348359.222
  24224995.607    -1886854.25349  -1448051.43845  24224994.815    24225000.646
  21274834.889   -21149705.46949 -16463626.74447  21274834.429    21274839.046
  22505773.482   -15132124.45249 -11617066.55346  22505772.748    22505779.454
  21480489.695   -20262514.82649 -15248792.44647  21480488.687    21480493.791
 04  4 21  2 57 30.0000000  0  6G11G16G14G25G 1G20
  22310900.173   -16372980.36749 -12750095.41447  22310899.605    22310904.948
  23331522.526   -10748677.01849  -8364143.62046  23331521.894    23331527.893
  24238775.426    -1814441.35449  -1391625.78445  24238774.606    24238780.203
  21285751.476   -21092338.33649 -16418925.07247  21285751.011    21285755.618
  22495637.543   -15185388.79849 -11658571.17646  22495636.805    22495643.504
  21467069.230   -20333039.49549 -15303746.70547  21467068.248    21467073.354
 04  4 21  2 58  0.0000000  0  6G11G16G14G25G 1G20
  22321947.725   -16314925.47349 -12704857.84747  22321947.088    22321952.447
  23314717.660   -10836987.01049  -8432956.52046  23314717.047    23314722.962
  24252557.256    -1742017.26449  -1335191.40545  24252556.574    24252562.059
  21296729.659   -21034647.54449 -16373971.19947  21296729.191    21296733.794
  22485524.382   -15238533.67349 -11699982.70946  22485523.636    22485530.317
  21453701.910   -20403285.12749 -15358483.53147  21453700.922    21453706.008
 04  4 21  2 58 30.0000000  0  6G11G16G14G25G 1G20
  22333062.984   -16256514.27949 -12659342.64847  22333062.363    22333067.708
  23297939.893   -10925154.98749  -8501658.76146  23297939.162    23297945.067
  24266341.417    -1669581.57149  -1278748.01445  24266340.652    24266346.114
  21307769.106   -20976634.81549 -16328766.46447  21307768.639    21307773.271
  22475433.879   -15291559.15349 -11741301.20746  22475433.152    22475439.858
  21440388.192   -20473249.12949 -15413000.91147  21440387.209    21440392.286
 04  4 21  2 59  0.0000000  0  6G11G16G14G25G 1G20
  22344245.481   -16197749.99549 -12613552.31647  22344244.842    22344250.207
  23281189.507   -11013178.16049  -8570248.16346  23281188.869    23281194.740
  24280127.560    -1597134.75349  -1222295.94845  24280126.808    24280132.310
  21318869.294   -20918302.69949 -16283312.85747  21318868.824    21318873.459
  22465365.977   -15344465.91149 -11782527.18746  22465365.251    22465371.983
  21427128.392   -20542929.57049 -15467297.33347  21427127.408    21427132.484
 04  4 21  2 59 30.0000000  0  6G11G16G14G25G 1G20
  22355494.879   -16138633.93949 -12567487.87047  22355494.233    22355499.607
  23264467.526   -11101052.55549  -8638721.61946  23264466.845    23264472.759
  24293916.012    -1524675.95049  -1165834.54345  24293915.292    24293920.792
  21330030.140   -20859652.16149 -16237611.12647  21330029.658    21330034.290
  22455320.808   -15397253.34849 -11823660.20046  22455320.095    22455326.816
  21413923.226   -20612323.33549 -15521370.37147  21413922.230    21413927.293
 04  4 21  3  0  0.0000000  0  6G11G16G14G25G 1G20
  22366810.630   -16079169.25649 -12521151.76147  22366810.000    22366815.362
  23247774.357   -11188775.88949  -8707077.37446  23247773.622    23247779.507
  24307706.657    -1452205.82649  -1109364.32645  24307705.816    24307711.340
  21341250.945   -20800686.35149 -16191663.72847  21341250.480    21341255.090
  22445298.152   -15449922.51849 -11864701.05046  22445297.484    22445304.160
  21400772.867   -20681428.80449 -15575218.76247  21400771.874    21400776.920
 04  4 21  3  0 30.0000000  0  6G11G16G14G25G 1G20
  22378192.365   -16019358.05149 -12474545.62847  22378191.730    22378197.089
  23231110.607   -11276344.17749  -8775312.31946  23231109.877    23231115.731
  24321499.535    -1379723.53949  -1052884.61745  24321498.857    24321504.177
  21352531.484   -20741406.72649 -16145471.80347  21352531.020    21352535.627
  22435298.137   -15502472.76549 -11905649.22546  22435297.497    22435304.087
  21387677.996   -20750242.92449 -15628840.12947  21387676.999    21387682.018
 04  4 21  3  1  0.0000000  0  6G11G16G14G25G 1G20
  22389639.355   -15959203.73449 -12427672.14047  22389638.716    22389644.079
  23214476.755   -11363755.51049  -8843424.95046  23214476.012    23214481.851
  24335294.543    -1307230.03849   -996396.15045  24335293.947    24335299.100
  21363871.176   -20681816.27849 -16099037.67447  21363870.700    21363875.303
  22425320.561   -15554905.44549 -11946505.80846  22425319.904    22425326.392
  21374638.746   -20818764.47849 -15682233.52047  21374637.756    21374642.735
 04  4 21  3  1 30.0000000  0  6G11G16G14G25G 1G20
  22401151.204   -15898708.46449 -12380532.97747  22401150.596    22401155.981
  23197873.434   -11451006.39849  -8911412.56446  23197872.657    23197878.463
  24349091.859    -1234725.10249   -939898.78745  24349091.154    24349096.305
  21375269.595   -20621917.06149 -16052362.94947  21375269.129    21375273.755
  22415365.344   -15607220.58949 -11987270.79046  22415364.616    22415371.097
  21361655.711   -20886990.77849 -15735396.84647  21361654.694    21361659.697
 04  4 21  3  2  0.0000000  0  6G11G16G14G25G 1G20
  22412727.460   -15837874.66049 -12333130.02347  22412726.862    22412732.269
  23181301.302   -11538093.38849  -8979272.47346  23181300.480    23181306.282
  24362891.319    -1162208.28249   -883392.20345  24362890.511    24362895.904
  21386726.483   -20561710.72749 -16005448.91347  21386726.028    21386730.630
  22405432.459   -15659418.10049 -12027944.11446  22405431.723    22405438.124
  21348729.312   -20954919.22549 -15788328.07447  21348728.323    21348733.298
 04  4 21  3  2 30.0000000  0  6G11G16G14G25G 1G20
  22424367.644   -15776704.84749 -12285465.24646  22424367.063    22424372.491
  23164760.909   -11625013.24649  -9047002.14546  23164760.111    23164765.941
  24376693.074    -1089679.51649   -826876.23245  24376692.267    24376697.648
  21398241.466   -20501199.21849 -15958297.08147  21398241.006    21398245.582
  22395521.883   -15711498.18249 -12068525.93346  22395521.143    22395527.583
  21335860.107   -21022547.23449 -15841025.20147  21335859.112    21335864.094
 04  4 21  3  3  0.0000000  0  6G11G16G14G25G 1G20
  22436071.345   -15715201.41849 -12237540.50446  22436070.792    22436076.238
  23148252.913   -11711762.98649  -9114599.26646  23148252.108    23148257.910
  24390497.091    -1017138.88349   -770351.08745  24390496.231    24390501.740
  21409814.062   -20440384.91649 -15910909.30247  21409813.575    21409818.166
  22385633.613   -15763461.07549 -12109016.43746  22385632.889    22385639.273
  21323048.526   -21089872.47449 -15893486.39647  21323047.531    21323052.487
 04  4 21  3  3 30.0000000  0  6G11G16G14G25G 1G20
  22447838.030   -15653367.01049 -12189357.85546  22447837.506    22447842.962
  23131777.905   -11798339.23549  -9182061.20146  23131777.114    23131782.866
  24404303.500     -944586.06149   -713816.40045  24404302.672    24404307.934
  21421443.876   -20379269.78149 -15863287.11147  21421443.383    21421447.978
  22375767.562   -15815307.01649 -12149415.81247  22375766.869    22375773.251
  21310294.987   -21156892.64449 -15945709.87447  21310293.991    21310298.944
 04  4 21  3  4  0.0000000  0  6G11G16G14G25G 1G20
  22459667.292   -15591204.26449 -12140919.36446  22459666.716    22459672.147
  23115336.408   -11884739.10349  -9249385.69846  23115335.657    23115341.351
  24418112.132     -872020.98149   -657272.16945  24418111.443    24418116.495
  21433130.430   -20317856.21449 -15815432.37247  21433129.963    21433134.578
  22365923.711   -15867036.38149 -12189724.34347  22365923.014    22365929.443
  21297599.959   -21223605.46349 -15997693.85347  21297598.939    21297603.896
 04  4 21  3  4 30.0000000  0  6G11G16G14G25G 1G20
  22471558.388   -15528716.33249 -12092227.47146  22471557.814    22471563.228
  23098929.148   -11970959.64249  -9316570.47046  23098928.325    23098934.037
  24431922.988     -799444.05549   -600718.73245  24431922.332    24431927.306
  21444873.384   -20256146.53649 -15767346.90347  21444872.904    21444877.520
  22356102.052   -15918649.56649 -12229942.34547  22356101.313    22356107.715
  21284963.763   -21290008.83749 -16049436.71047  21284962.787    21284967.762
 04  4 21  3  5  0.0000000  0  6G11G16G14G25G 1G20
  22483510.858   -15465905.74349 -12043284.16246  22483510.290    22483515.693
  23082556.480   -12056997.90249  -9383613.18746  23082555.690    23082561.395
  24445736.296     -726854.85649   -544155.75345  24445735.460    24445740.614
  21456672.300   -20194142.75849 -15719032.26347  21456671.825    21456676.433
  22346302.427   -15970146.74349 -12270069.95247  22346301.657    22346308.047
  21272386.894   -21356100.45049 -16100936.63147  21272385.904    21272390.902
 04  4 21  3  5 30.0000000  0  6G11G16G14G25G 1G20
  22495524.359   -15402774.50049 -11994090.99246  22495523.783    22495529.191
  23066219.269   -12142850.47349  -9450511.21846  23066218.449    23066224.123
  24459551.814     -654253.33049   -487583.11645  24459551.085    24459556.352
  21468526.821   -20131846.87349 -15670490.00747  21468526.339    21468530.918
  22336524.857   -16021527.83549 -12310107.11247  22336524.086    22336530.491
  21259869.849   -21421877.66149 -16152191.56347  21259868.849    21259873.870
 04  4 21  3  6  0.0000000  0  6G11G16G14G25G 1G20
  22507598.250   -15339325.85549 -11944650.50446  22507597.665    22507603.065
  23049917.931   -12228514.38849  -9517262.24746  23049917.144    23049922.830
  24473369.803     -581639.69449   -431001.07345  24473369.029    24473374.394
  21480436.405   -20069261.45949 -15621722.14947  21480435.934    21480440.520
  22326769.237   -16072793.55849 -12350054.37247  22326768.490    22326774.886
  21247413.038   -21487338.32349 -16203199.83347  21247412.063    21247417.101
 04  4 21  3  6 30.0000000  0  6G11G16G14G25G 1G20
  22519731.975   -15275562.63849 -11894964.88946  22519731.384    22519736.791
  23033652.975   -12313986.90349  -9583864.13246  23033652.244    23033657.907
  24487189.908     -509014.12649   -374409.73745  24487189.062    24487194.671
  21492400.594   -20006389.13649 -15572730.72147  21492400.111    21492404.686
  22317035.570   -16123944.38849 -12389912.11147  22317034.808    22317041.156
  21235016.846   -21552480.55649 -16253959.97447  21235015.855    21235020.902
 04  4 21  3  7  0.0000000  0  6G11G16G14G25G 1G20
  22531925.248   -15211486.50049 -11845035.44846  22531924.663    22531930.050
  23017425.184   -12399263.85249  -9650313.62546  23017424.519    23017430.142
  24501012.367     -436375.51349   -317808.23745  24501011.632    24501017.102
  21504419.157   -19943231.06849 -15523516.63547  21504418.691    21504423.272
  22307323.822   -16174979.48549 -12429679.65947  22307323.082    22307329.451
  21222681.871   -21617300.98249 -16304469.35447  21222680.904    21222685.960
 04  4 21  3  7 30.0000000  0  6G11G16G14G25G 1G20
  22544177.512   -15147100.67249 -11794864.68646  22544176.911    22544182.283
  23001235.184   -12484342.91349  -9716608.92546  23001234.467    23001240.121
  24514837.354     -363724.33649   -261196.93945  24514836.662    24514842.202
  21516491.647   -19879789.62549 -15474081.73547  21516491.173    21516495.768
  22297633.946   -16225899.93149 -12469357.87547  22297633.230    22297639.590
  21210408.459   -21681798.04649 -16354726.76247  21210407.471    21210412.533
 04  4 21  3  8  0.0000000  0  6G11G16G14G25G 1G20
  22556488.155   -15082408.11249 -11744454.90446  22556487.499    22556492.888
  22985083.271   -12569221.22849  -9782747.80446  22985082.529    22985088.301
  24528664.848     -291061.04249   -204576.20145  24528664.169    24528669.556
  21528617.604   -19816067.37649 -15424428.02747  21528617.119    21528621.724
  22287965.792   -16276706.12749 -12508947.07047  22287965.033    22287971.432
  21198197.068   -21745969.30849 -16404730.29947  21198196.064    21198201.114
 04  4 21  3  8 30.0000000  0  6G11G16G14G25G 1G20
  22568856.637   -15017411.42649 -11693808.14546  22568856.016    22568861.337
  22968970.207   -12653895.34249  -9848727.56846  22968969.493    22968975.248
  24542494.609     -218385.24849   -147945.69045  24542493.865    24542499.195
  21540796.597   -19752066.34549 -15374557.08947  21540796.117    21540800.716
  22278319.350   -16327398.02049 -12548447.19247  22278318.661    22278325.028
  21186048.057   -21809812.64649 -16454478.31447  21186047.065    21186052.082
 04  4 21  3  9  0.0000000  0  6G11G16G14G25G 1G20
  22581282.505   -14952113.10549 -11642926.34846  22581281.904    22581287.191
  22952896.613   -12738362.24349  -9914545.86046  22952895.891    22952901.648
  24556326.733     -145696.64349    -91305.28345  24556326.080    24556331.508
  21553028.262   -19687788.56349 -15324470.49347  21553027.759    21553032.377
  22268694.741   -16377975.83449 -12587858.43347  22268694.024    22268700.357
  21173961.970   -21873325.42949 -16503968.75647  21173960.962    21173965.963
 04  4 21  3  9 30.0000000  0  6G11G16G14G25G 1G20
  22593765.384   -14886515.47649 -11591811.32146  22593764.752    22593770.077
  22936863.194   -12822618.40649  -9980199.93846  22936862.441    22936868.180
  24570161.429      -72994.77249    -34654.48845  24570160.782    24570166.361
  21565312.182   -19623236.01349 -15274169.79847  21565311.685    21565316.296
  22259091.724   -16428439.63149 -12627180.82147  22259091.012    22259097.309
  21161939.252   -21936505.00149 -16553199.55247  21161938.255    21161943.231
 04  4 21  3 10  0.0000000  0  6G11G16G14G25G 1G20
  22606304.511   -14820621.86749 -11540465.66646  22606303.841    22606309.203
  22920870.413   -12906661.17449 -10045687.73446  22920869.622    22920875.342
  24583998.660        -280.15449     22006.27045  24583997.983    24584003.489
  21577647.824   -19558411.59449 -15223657.25147  21577647.326    21577651.966
  22249510.380   -16478789.88649 -12666414.73547  22249509.675    22249515.909
  21149980.338   -21999349.57549 -16602169.30847  21149979.324    21149984.276
 04  4 21  3 10 30.0000000  0  6G11G16G14G25G 1G20
  22618899.427   -14754434.77549 -11488891.32946  22618898.822    22618904.200
  22904918.765   -12990487.41949 -10111006.81746  22904917.976    22904923.624
  24597838.185       72447.45649     78677.08945  24597837.581    24597842.952
  21590034.864   -19493316.95949 -15172934.15147  21590034.400    21590039.031
  22239950.696   -16529026.57349 -12705560.16047  22239949.913    22239956.126
  21138085.591   -22061856.81349 -16650876.21147  21138084.579    21138089.516
 04  4 21  3 11  0.0000000  0  6G11G16G14G25G 1G20
  22631549.674   -14687957.07049 -11437090.53446  22631549.115    22631554.509
  22889008.911   -13074094.09949 -10176154.81246  22889008.139    22889013.725
  24611680.438      145188.30649    135358.32745  24611679.618    24611684.924
  21602472.956   -19427954.31149 -15122002.20847  21602472.500    21602477.153
  22230412.466   -16579150.11749 -12744617.42047  22230411.706    22230417.862
  21126255.472   -22124024.34049 -16699318.40547  21126254.469    21126259.382
 04  4 21  3 11 30.0000000  0  6G11G16G14G25G 1G20
  22644254.763   -14621191.49149 -11385065.42746  22644254.189    22644259.605
  22873141.401   -13157478.12849 -10241129.31746  22873140.644    22873146.209
  24625525.064      217942.23449    192049.65945  24625524.264    24625529.736
  21614961.636   -19362325.91249 -15070863.19047  21614961.164    21614965.810
  22220895.658   -16629160.96849 -12783586.86847  22220894.905    22220901.029
  21114490.404   -22185849.97349 -16747494.19247  21114489.403    21114494.293
 04  4 21  3 12  0.0000000  0  6G11G16G14G25G 1G20
  22657014.185   -14554140.51149 -11332817.91846  22657013.616    22657019.015
  22857316.866   -13240636.18049 -10305927.73146  22857316.149    22857321.625
  24639372.453      290709.52549    248751.44545  24639371.697    24639376.983
  21627500.547   -19296433.47849 -15019518.42347  21627500.093    21627504.712
  22211400.333   -16679059.00149 -12822468.40247  22211399.578    22211405.719
  21102790.945   -22247330.89049 -16795401.36747  21102789.963    21102794.831
 04  4 21  3 12 30.0000000  0  6G11G16G14G25G 1G20
  22669827.302   -14486806.89549 -11280350.18746  22669826.766    22669832.193
  22841535.939   -13323565.10549 -10370547.61146  22841535.204    22841540.625
  24653222.207      363490.49649    305463.88545  24653221.371    24653226.733
  21640089.293   -19230279.10349 -14967969.55447  21640088.818    21640093.433
  22201926.463   -16728844.31249 -12861262.10147  22201925.717    22201931.861
  21091157.505   -22308464.90349 -16843038.22747  21091156.516    21091161.375
 04  4 21  3 13  0.0000000  0  6G11G16G14G25G 1G20
  22682693.904   -14419192.70349 -11227663.81746  22682693.298    22682698.738
  22825799.370   -13406261.34749 -10434986.18246  22825798.578    22825803.974
  24667074.530      436285.83049    362187.47445  24667073.722    24667079.235
  21652727.553   -19163864.65449 -14916218.02547  21652727.069    21652731.677
  22192474.135   -16778516.58249 -12899967.72547  22192473.360    22192479.498
  21079590.608   -22369249.02649 -16890402.45147  21079589.624    21079594.469
 04  4 21  3 13 30.0000000  0  6G11G16G14G25G 1G20
  22695613.276   -14351300.87449 -11174761.11046  22695612.674    22695618.150
  22810107.520   -13488722.00749 -10499241.18046  22810106.792    22810112.144
  24680929.696      509095.32849    418922.08545  24680928.957    24680934.370
  21665414.798   -19097192.64749 -14864265.80047  21665414.326    21665418.927
  22183043.185   -16828076.24349 -12938585.59047  22183042.439    22183048.553
  21068090.724   -22429681.27849 -16937492.48847  21068089.745    21068094.577
 04  4 21  3 14  0.0000000  0  6G11G16G14G25G 1G20
  22708584.826   -14283134.86049 -11121644.75946  22708584.224    22708589.738
  22794461.079   -13570944.49049 -10563310.57946  22794460.334    22794465.684
  24694787.658      581918.53449    475667.52345  24694786.785    24694792.069
  21678150.618   -19030265.46849 -14812114.74147  21678150.119    21678154.732
  22173633.565   -16877523.97249 -12977116.24947  22173632.823    22173638.938
  21056658.110   -22489759.88249 -16984306.95847  21056657.120    21056661.941
 04  4 21  3 14 30.0000000  0  6G11G16G14G25G 1G20
  22721608.148   -14214696.97549 -11068316.55446  22721607.519    22721613.034
  22778860.528   -13652925.67749 -10627191.95746  22778859.784    22778865.057
  24708648.191      654755.79349    532423.85545  24708647.449    24708652.352
  21690934.579   -18963085.36149 -14759766.59647  21690934.089    21690938.682
  22164245.229   -16926859.74649 -13015559.65847  22164244.533    22164250.615
  21045293.266   -22549482.38449 -17030843.94847  21045292.267    21045297.094
 04  4 21  3 15  0.0000000  0  6G11G16G14G25G 1G20
  22734682.531   -14145990.41949 -11014778.99746  22734681.977    22734687.483
  22763306.416   -13734662.38749 -10690882.84146  22763305.741    22763311.001
  24722511.271      727607.06749    589191.12745  24722510.194    24722515.475
  21703766.274   -18895654.30849 -14707222.90547  21703765.796    21703770.378
  22154878.141   -16976083.87649 -13053916.07847  22154877.418    22154883.517
  21033996.616   -22608846.53249 -17077101.70247  21033995.628    21034000.449
 04  4 21  3 15 30.0000000  0  5G11G16G25G 1G20
  22747811.406   -14076997.91449 -10961018.62446  22747810.858    22747816.313
  22747803.252   -13816131.79649 -10754365.44946  22747802.584    22747807.796
  21716648.987   -18827954.95649 -14654470.15647  21716648.497    21716653.090
  22145536.017   -17025176.76949 -13092170.23247  22145535.305    22145541.410
  21022772.357   -22667830.35549 -17123063.10347  21022771.358    21022776.187
 04  4 21  3 16  0.0000000  0  5G11G16G25G 1G20
  22760992.528   -14007731.08549 -10907044.48146  22760991.943    22760997.344
  22732349.770   -13897340.12649 -10817644.60246  22732349.023    22732354.290
  21729580.700   -18759998.31649 -14601516.91947  21729580.205    21729584.798
  22136217.121   -17074147.52849 -13130329.22147  22136216.406    22136222.540
  21011619.193   -22726440.34349 -17168733.20147  21011618.219    21011623.043
 04  4 21  3 16 30.0000000  0  5G11G16G25G 1G20
  22774220.520   -13938217.84349 -10852878.34346  22774219.896    22774225.296
  22716941.827   -13978308.94549 -10880737.13146  22716941.099    22716946.403
  21742556.222   -18691811.56249 -14548384.37247  21742555.742    21742560.325
  22126916.729   -17123021.27149 -13168412.61247  22126916.005    22126922.148
  21000532.920   -22784699.13649 -17214129.64648  21000531.934    21000536.750
 04  4 21  3 17  0.0000000  0  5G11G16G25G 1G20
  22787496.100   -13868454.37849 -10798517.22246  22787495.455    22787500.860
  22701581.395   -14059028.50549 -10943635.44246  22701580.653    22701585.951
  21755576.341   -18623390.15649 -14495068.97747  21755575.908    21755580.460
  22117635.997   -17171791.62449 -13206415.44347  22117635.280    22117641.422
  20989515.109   -22842597.96949 -17259245.59948  20989514.112    20989518.953
 04  4 21  3 17 30.0000000  0  5G11G16G25G 1G20
  22800819.229   -13798440.54349 -10743961.00546  22800818.621    22800823.984
  22686269.531   -14139492.78949 -11006334.82646  22686268.753    22686274.089
  21768641.400   -18554732.89949 -14441569.80647  21768640.943    21768645.498
  22108375.515   -17220455.69549 -13244335.45347  22108374.801    22108380.924
  20978566.848   -22900131.48649 -17304076.89248  20978565.851    20978570.702
 04  4 21  3 18  0.0000000  0  5G11G16G25G 1G20
  22814189.901   -13728177.28249 -10689210.43646  22814189.286    22814194.649
  22671007.092   -14219697.10549 -11068831.64846  22671006.359    22671011.644
  21781751.229   -18485840.33349 -14387887.27247  21781750.768    21781755.292
  22099135.580   -17269011.96049 -13282171.46247  22099134.847    22099140.911
  20967688.889   -22957295.42249 -17348620.20148  20967687.902    20967692.754
 04  4 21  3 18 30.0000000  0  5G11G16G25G 1G20
  22827607.824   -13657665.64949 -10634266.31746  22827607.226    22827612.612
  22655795.096   -14299636.56049 -11131122.07646  22655794.380    22655799.662
  21794905.695   -18416713.13649 -14334021.91747  21794905.231    21794909.732
  22089916.423   -17317458.91749 -13319922.29247  22089915.680    22089921.705
  20956881.951   -23014086.00849 -17392872.58948  20956880.973    20956885.817
 04  4 21  3 19  0.0000000  0  5G11G16G25G 1G20
  22841072.714   -13586907.07749 -10579129.77846  22841072.095    22841077.500
  22640634.287   -14379307.09249 -11193202.96646  22640633.555    22640638.790
  21808104.678   -18347352.03049 -14279974.29747  21808104.214    21808108.714
  22080718.172   -17365795.64349 -13357587.22447  22080717.457    22080723.478
  20946146.760   -23070499.95349 -17436831.48648  20946145.765    20946150.601
 04  4 21  3 19 30.0000000  0  5G11G16G25G 1G20
  22854583.921   -13515905.02749 -10523803.52446  22854583.351    22854588.760
  22625525.156   -14458705.66549 -11255071.93546  22625524.426    22625529.645
  21821347.677   -18277759.58249 -14225746.41047  21821347.216    21821351.697
  22071540.924   -17414022.16849 -13395166.28047  22071540.221    22071546.232
  20935483.643   -23126535.00349 -17480495.14448  20935482.637    20935487.450
 04  4 21  3 20  0.0000000  0  5G11G16G25G 1G20
  22868141.057   -13444662.02549 -10468289.52346  22868140.436    22868145.818
  22610468.331   -14537829.56649 -11316726.87046  22610467.649    22610472.876
  21834634.312   -18207937.80649 -14171339.82347  21834633.838    21834638.284
  22062384.582   -17462138.85949 -13432659.75247  22062383.860    22062389.842
  20924892.984   -23182189.05249 -17523861.91348  20924891.989    20924896.773
 04  4 21  3 20 30.0000000  0  5G11G16G25G 1G20
  22881743.445   -13373180.93049 -10412589.97646  22881742.839    22881748.268
  22595464.339   -14616675.73149 -11378165.39846  22595463.676    22595468.869
  21847964.156   -18137889.02349 -14116756.35547  21847963.689    21847968.096
  22053249.109   -17510145.85049 -13470067.75047  22053248.364    22053254.330
  20914375.317   -23237459.77449 -17566929.98748  20914374.310    20914379.100
 04  4 21  3 21  0.0000000  0  5G11G16G25G 1G20
  22895390.638   -13301464.55849 -10356707.10946  22895390.012    22895395.468
  22580513.841   -14695241.00649 -11439385.04846  22580513.166    22580518.317
  21861336.840   -18067615.24849 -14061997.56447  21861336.332    21861340.727
  22044134.485   -17558043.32149 -13507390.40547  22044133.744    22044139.713
  20903930.982   -23292344.80749 -17609697.52248  20903929.991    20903934.765
 04  4 21  3 21 30.0000000  0  5G11G16G25G 1G20
  22909082.150   -13229515.24149 -10300642.72646  22909081.493    22909086.997
  22565617.469   -14773521.70749 -11500382.95546  22565616.799    22565621.947
  21874752.026   -17997117.99049 -14007064.63247  21874751.515    21874755.908
  22035040.766   -17605831.04149 -13544627.53847  22035039.989    22035045.991
  20893560.563   -23346841.63949 -17652162.56448  20893559.590    20893564.324
 04  4 21  3 22  0.0000000  0  5G11G16G25G 1G20
  22922817.375   -13157335.90249 -10244399.10446  22922816.724    22922822.287
  22550775.799   -14851515.16349 -11561157.03946  22550775.123    22550780.228
  21888209.295   -17926399.49649 -13951959.30947  21888208.788    21888213.169
  22025967.934   -17653508.91049 -13581779.07147  22025967.180    22025973.151
  20883264.485   -23400947.86249 -17694323.23548  20883263.508    20883268.237
 04  4 21  3 22 30.0000000  0  5G11G16G25G 1G20
  22936595.891   -13084929.38449 -10187978.45846  22936595.245    22936600.819
  22535989.399   -14929218.36949 -11621704.94646  22535988.670    22535993.758
  21901708.236   -17855462.03349 -13896683.36347  21901707.733    21901712.100
  22016915.924   -17701077.32249 -13618845.31147  22016915.177    22016921.134
  20873043.167   -23454661.27149 -17736177.81848  20873042.184    20873046.889
 04  4 21  3 23  0.0000000  0  5G11G16G25G 1G20
  22950417.278   -13012297.73449 -10131382.37546  22950416.587    22950422.210
  22521258.952   -15006627.36949 -11682023.61446  22521258.207    22521263.291
  21915248.679   -17784306.56049 -13841237.54347  21915248.199    21915252.552
  22007884.920   -17748535.36149 -13655825.54747  22007884.179    22007890.113
  20862897.185   -23507978.85049 -17777723.96348  20862896.188    20862900.874
 04  4 21  3 23 30.0000000  0  5G11G16G25G 1G20
  22964280.728   -12939444.96349 -10074613.99546  22964280.040    22964285.618
  22506584.730   -15083740.49349 -11742111.72246  22506584.006    22506589.096
  21928829.915   -17712936.66249 -13785624.62647  21928829.427    21928833.798
  21998874.595   -17795884.72549 -13692721.09747  21998873.847    21998879.749
  20852826.646   -23560899.71249 -17818960.97548  20852825.659    20852830.359
 04  4 21  3 24  0.0000000  0  5G11G16G25G 1G20
  22978185.714   -12866373.81249 -10017675.45246  22978185.044    22978190.607
  22491967.567   -15160554.22949 -11801966.54046  22491966.805    22491971.862
  21942451.618   -17641354.07149 -13729845.98447  21942451.147    21942455.479
  21989885.015   -17843125.09749 -13729531.72947  21989884.290    21989890.172
  20842832.120   -23613421.19549 -17859886.78248  20842831.138    20842835.834
 04  4 21  3 24 30.0000000  0  5G11G16G25G 1G20
  22992131.883   -12793086.25149  -9960568.27446  22992131.249    22992136.770
  22477407.953   -15237065.38949 -11861585.59346  22477407.205    22477412.227
  21956113.485   -17569560.47449 -13673902.92247  21956112.999    21956117.330
  21980916.257   -17890255.99349 -13766257.04147  21980915.539    21980921.389
  20832914.076   -23665540.63649 -17900499.31048  20832913.095    20832917.802
 04  4 21  3 25  0.0000000  0  5G11G16G25G 1G20
  23006118.452   -12719586.18049  -9903295.50646  23006117.856    23006123.391
  22462906.291   -15313271.62449 -11920967.04246  22462905.594    22462910.624
  21969815.000   -17497558.50249 -13617797.48647  21969814.534    21969818.861
  21971968.195   -17937278.31349 -13802897.75647  21971967.473    21971973.296
  20823072.803   -23717256.66449 -17940797.49148  20823071.827    20823076.540
 04  4 21  3 25 30.0000000  0  5G11G16G25G 1G20
  23020145.149   -12645875.67849  -9845858.77046  23020144.495    23020150.036
  22448463.395   -15389169.30049 -11980108.04646  22448462.713    22448467.733
  21983555.831   -17425349.80449 -13561530.96647  21983555.391    21983559.695
  21963040.877   -17984191.46449 -13839453.39447  21963040.143    21963045.953
  20813308.910   -23768566.22449 -17980778.94448  20813307.927    20813312.629
 04  4 21  3 26  0.0000000  0  5G11G16G25G 1G20
  23034211.284   -12571957.85549  -9788260.48546  23034210.628    23034216.146
  22434079.768   -15464755.80349 -12039006.58646  22434079.040    22434084.062
  21997335.581   -17352936.74149 -13505105.20047  21997335.142    21997339.454
  21954134.323   -18030995.92349 -13875924.34247  21954133.550    21954139.322
  20803622.705   -23819467.39849 -18020442.17548  20803621.732    20803626.427
 04  4 21  3 26 30.0000000  0  5G11G16G25G 1G20
  23048316.394   -12497834.81949  -9730502.28446  23048315.793    23048321.335
  22419756.005   -15540027.22349 -12097659.60946  22419755.327    22419760.357
  22011154.000   -17280320.61449 -13448521.19647  22011153.526    22011157.839
  21945248.509   -18077690.92149 -13912310.00147  21945247.732    21945253.500
  20794014.815   -23869957.39249 -18059785.00348  20794013.824    20794018.501
 04  4 21  3 27  0.0000000  0  5G11G16G25G 1G20
  23062459.952   -12423509.91349  -9672586.78646  23062459.342    23062464.902
  22405492.650   -15614981.33749 -12156065.37946  22405492.011    22405497.026
  22025010.489   -17207504.10449 -13391781.05947  22025010.013    22025014.350
  21936383.337   -18124277.17549 -13948610.92547  21936382.589    21936388.352
  20784485.425   -23920034.78449 -18098806.32348  20784484.431    20784489.062
 04  4 21  3 27 30.0000000  0  5G11G16G25G 1G20
  23076641.403   -12348985.98049  -9614516.20546  23076640.794    23076646.358
  22391290.271   -15689615.11149 -12214221.53646  22391289.643    22391294.637
  22038904.739   -17134489.31249 -13334886.41647  22038904.274    22038908.620
  21927538.908   -18170754.60949 -13984827.05047  21927538.171    21927543.921
  20775035.021   -23969697.04049 -18137504.16048  20775034.003    20775038.628
 04  4 21  3 28  0.0000000  0  5G11G16G25G 1G20
  23090860.156   -12274265.69149  -9556292.61546  23090859.610    23090865.184
  22377149.495   -15763925.37349 -12272125.60346  22377148.852    22377153.836
  22052836.367   -17061278.04549 -13277838.66947  22052835.929    22052840.285
  21918715.190   -18217123.22049 -14020958.38147  21918714.470    21918720.213
  20765664.034   -24018941.73749 -18175876.62648  20765663.031    20765667.642
 04  4 21  3 28 30.0000000  0  5G11G16G25G 1G20
  23105115.716   -12199352.30649  -9497918.57146  23105115.152    23105120.744
  22363070.716   -15837909.73149 -12329775.71946  22363070.059    22363075.002
  22066805.000   -16987872.46849 -13220639.52147  22066804.539    22066808.885
  21909912.038   -18263383.55149 -14057005.34747  21909911.324    21909917.072
  20756372.832   -24067767.23749 -18213922.44748  20756371.823    20756376.426
 04  4 21  3 29  0.0000000  0  5G11G16G25G 1G20
  23119405.512   -12124259.05149  -9439404.37146  23119404.899    23119410.525
  22349052.585   -15911575.55149 -12387177.63046  22349051.913    22349056.849
  22080808.151   -16914285.31649 -13163298.87647  22080807.685    22080812.038
  21901127.583   -18309546.00749 -14092976.04047  21901126.875    21901132.578
  20747159.787   -24116181.82849 -18251648.07948  20747158.801    20747163.388
 04  4 21  3 29 30.0000000  0  5G11G16G25G 1G20
  23133731.787   -12048974.33349  -9380740.96546  23133731.111    23133736.782
  22335098.319   -15984905.49249 -12444317.81646  22335097.644    22335102.606
  22094848.266   -16840504.11749 -13105807.03447  22094847.795    22094852.151
  21892364.530   -18355596.15749 -14128859.22647  21892363.782    21892369.452
  20738028.145   -24164168.99749 -18289040.65748  20738027.163    20738031.729
 04  4 21  3 30  0.0000000  0  5G11G16G25G 1G20
  23148093.667   -11973502.13449  -9321931.47846  23148092.999    23148098.632
  22321208.363   -16057897.49249 -12501194.66646  22321207.719    22321212.684
  22108924.644   -16766532.10749 -13048166.50247  22108924.210    22108928.585
  21883622.571   -18401535.05049 -14164655.71247  21883621.854    21883627.521
  20728978.078   -24211727.26049 -18326099.02248  20728977.088    20728981.653
 04  4 21  3 30 30.0000000  0  5G11G16G25G 1G20
  23162490.485   -11897846.33049  -9262978.91646  23162489.792    23162495.405
  22307383.064   -16130549.73749 -12557806.77346  22307382.431    22307387.380
  22123036.773   -16692372.26249 -12990379.61047  22123036.360    22123040.721
  21874901.641   -18447363.71949 -14200366.31847  21874900.901    21874906.597
  20720009.795   -24258855.83849 -18362822.56548  20720008.806    20720013.374
 04  4 21  3 31  0.0000000  0  5G11G16G25G 1G20
  23176921.607   -11822009.88249  -9203885.59746  23176921.042    23176926.613
  22293622.924   -16202859.80049 -12614152.24646  22293622.276    22293627.207
  22137184.178   -16618027.16249 -12932448.35947  22137183.767    22137188.127
  21866201.612   -18493082.63849 -14235991.40147  21866200.844    21866206.540
  20711123.638   -24305552.81049 -18399209.80048  20711122.648    20711127.214
 04  4 21  3 31 30.0000000  0  5G11G16G25G 1G20
  23191386.411   -11745997.26749  -9144654.98846  23191385.808    23191391.317
  22279928.231   -16274826.02249 -12670229.78646  22279927.517    22279932.435
  22151366.254   -16543499.93749 -12874375.19447  22151365.839    22151370.188
  21857522.120   -18538693.27249 -14271532.10447  21857521.373    21857527.052
  20702319.716   -24351817.55049 -18435260.23048  20702318.733    20702323.305
 04  4 21  3 32  0.0000000  0  5G11G16G25G 1G20
  23205884.183   -11669811.24949  -9085289.27546  23205883.531    23205889.124
  22266299.464   -16346445.77249 -12726037.35846  22266298.752    22266303.623
  22165582.568   -16468792.67949 -12816161.74247  22165582.137    22165586.485
  21848863.239   -18584195.79349 -14306988.56347  21848862.507    21848868.180
  20693598.404   -24397648.12949 -18470972.35248  20693597.431    20693601.990
 04  4 21  3 32 30.0000000  0  5G11G16G25G 1G20
  23220414.354   -11593454.70749  -9025790.68846  23220413.692    23220419.278
  22252737.207   -16417715.77049 -12781572.38546  22252736.481    22252741.362
  22179832.801   -16393907.28249 -12757809.48447  22179832.391    22179836.716
  21840224.962   -18629590.00849 -14342360.63047  21840224.218    21840229.910
  20684960.230   -24443042.02349 -18506344.20048  20684959.271    20684963.807
 04  4 21  3 33  0.0000000  0  5G11G16G25G 1G20
  23234976.520   -11516930.28349  -8966161.29846  23234975.861    23234981.426
  22239242.033   -16488633.29649 -12836832.75747  22239241.294    22239246.186
  22194116.536   -16318845.83049 -12699320.04347  22194116.093    22194120.419
  21831607.308   -18674875.89049 -14377648.28847  21831606.583    21831612.272
  20676405.532   -24487997.08349 -18541374.10248  20676404.563    20676409.103
 04  4 21  3 33 30.0000000  0  5G11G16G25G 1G20
  23249570.015   -11440241.01549  -8906403.43746  23249569.338    23249574.937
  22225814.512   -16559195.39849 -12891816.18447  22225813.809    22225818.654
  22208433.394   -16243610.24049 -12640694.89947  22208432.952    22208437.289
  21823010.255   -18720053.62649 -14412851.67847  21823009.525    21823015.197
  20667934.747   -24532511.32349 -18576060.50548  20667933.777    20667938.311
 04  4 21  3 34  0.0000000  0  5G11G16G25G 1G20
  23264194.413   -11363389.48249  -8846519.15346  23264193.774    23264199.319
  22212455.073   -16629399.41749 -12946520.58747  22212454.388    22212459.235
  22222782.993   -16168202.33949 -12581935.49447  22222782.548    22222786.891
  21814433.785   -18765123.07849 -14447970.69547  21814433.072    21814438.710
  20659548.303   -24576582.43149 -18610401.61148  20659547.323    20659551.850
 04  4 21  3 34 30.0000000  0  5G11G16G25G 1G20
  23278849.052   -11286378.72549  -8786510.79746  23278848.449    23278854.016
  22199164.360   -16699242.41849 -13000943.67747  22199163.679    22199168.511
  22237165.046   -16092624.17149 -12523043.41347  22237164.581    22237168.941
  21805877.970   -18810084.25649 -14483005.34347  21805877.215    21805882.859
  20651246.501   -24620208.62649 -18644396.03548  20651245.530    20651250.030
 04  4 21  3 35  0.0000000  0  5G11G16G25G 1G20
  23293533.415   -11209211.64149  -8726380.62846  23293532.843    23293538.425
  22185942.907   -16768721.47349 -13055083.16447  22185942.222    22185947.024
  22251579.000   -16016878.26349 -12464020.62947  22251578.543    22251582.913
  21797342.695   -18854937.19849 -14517955.65647  21797341.944    21797347.605
  20643029.717   -24663387.97049 -18678042.25748  20643028.749    20643033.233
 04  4 21  3 35 30.0000000  0  5G11G16G25G 1G20
  23308247.143   -11131890.66449  -8666130.54946  23308246.496    23308252.085
  22172791.340   -16837833.26449 -13108936.47147  22172790.647    22172795.487
  22266024.620   -15940965.85149 -12404868.10047  22266024.152    22266028.561
  21788828.135   -18899681.35749 -14552821.20247  21788827.379    21788833.056
  20634898.561   -24706117.57449 -18711338.03348  20634897.578    20634902.055
 04  4 21  3 36  0.0000000  0  5G11G16G25G 1G20
  23322989.456   -11054419.19249  -8605763.19446  23322988.851    23322994.425
  22159709.937   -16906575.92949 -13162502.15147  22159709.263    22159714.130
  22280501.508   -15864889.21649 -12345587.60147  22280501.030    22280505.462
  21780334.081   -18944317.60549 -14587602.66347  21780333.339    21780339.012
  20626853.148   -24748396.45749 -18744282.60048  20626852.177    20626856.605
 04  4 21  3 36 30.0000000  0  5G11G16G25G 1G20
  23337759.897   -10976800.11849  -8545280.82646  23337759.256    23337764.827
  22146699.443   -16974946.26849 -13215777.70447  22146698.779    22146703.690
  22295009.248   -15788650.31249 -12286180.66347  22295008.787    22295013.225
  21771860.672   -18988845.50549 -14622299.69547  21771859.945    21771865.589
  20618893.956   -24790222.23749 -18776874.09548  20618892.967    20618897.380
 04  4 21  3 37  0.0000000  0  5G11G16G25G 1G20
  23352557.838   -10899036.56149  -8484685.87546  23352557.211    23352562.810
  22133760.294   -17042941.89149 -13268761.26547  22133759.637    22133764.528
  22309547.411   -15712251.66749 -12226649.24947  22309546.952    22309551.383
  21763407.814   -19033265.53149 -14656912.67047  21763407.077    21763412.704
  20611021.304   -24831593.33649 -18809111.29648  20611020.328    20611024.706
 04  4 21  3 37 30.0000000  0  5G11G16G25G 1G20
  23367382.818   -10821131.01049  -8423980.27746  23367382.188    23367387.768
  22120892.968   -17110559.81549 -13321450.51347  22120892.325    22120897.230
  22324115.649   -15635695.21449 -12166994.86747  22324115.177    22324119.632
  21754975.503   -19077577.43549 -14691441.39747  21754974.754    21754980.361
  20603235.561   -24872507.57949 -18840992.50848  20603234.588    20603238.960
 04  4 21  3 38  0.0000000  0  5G11G16G25G 1G20
  23382234.264   -10743086.37549  -8363166.29846  23382233.656    23382239.148
  22108098.037   -17177797.21749 -13373843.24547  22108097.413    22108102.363
  22338713.511   -15558982.69749 -12107218.87747  22338713.031    22338717.517
  21746563.825   -19121780.92749 -14725885.63847  21746563.078    21746568.690
  20595537.206   -24912962.64349 -18872515.92048  20595536.217    20595540.609
 04  4 21  3 38 30.0000000  0  5G11G16G25G 1G20
  23397111.654   -10664905.40849  -8302246.09446  23397111.027    23397116.570
  22095376.071   -17244651.40049 -13425937.38347  22095375.450    22095380.375
  22353340.808   -15482115.92949 -12047322.69147  22353340.324    22353344.785
  21738172.729   -19165876.12149 -14760245.49047  21738171.987    21738177.599
  20587926.555   -24952956.72149 -18903680.12448  20587925.576    20587929.971
 04  4 21  3 39  0.0000000  0  5G11G16G25G 1G20
  23412014.382   -10586591.09349  -8241221.96646  23412013.770    23412019.343
  22082727.637   -17311119.52149 -13477730.68047  22082726.966    22082731.882
  22367997.023   -15405096.94549 -11987307.89847  22367996.518    22368001.000
  21729802.252   -19209863.01249 -14794520.96247  21729801.541    21729807.149
  20580403.996   -24992487.90249 -18934483.63148  20580403.013    20580407.420
 04  4 21  3 39 30.0000000  0  5G11G16G25G 1G20
  23426942.096   -10508145.66749  -8180095.68746  23426941.486    23426947.026
  22070153.237   -17377198.42549 -13529220.69147  22070152.532    22070157.428
  22382681.917   -15327927.15549 -11927175.59547  22382681.402    22382685.915
  21721452.505   -19253740.93849 -14828711.52447  21721451.812    21721457.407
  20572969.982   -25031553.71349 -18964924.51648  20572969.000    20572973.429
 04  4 21  3 40  0.0000000  0  5G11G16G25G 1G20
  23441894.023   -10429572.52149  -8118869.88846  23441893.435    23441899.035
  22057653.347   -17442885.73449 -13580405.56347  22057652.635    22057657.480
  22397395.002   -15250609.14049 -11866927.78947  22397394.516    22397399.060
  21713123.442   -19297510.37949 -14862817.55447  21713122.728    21713128.305
  20565624.879   -25070152.43849 -18995001.43248  20565623.905    20565628.341
 04  4 21  3 40 30.0000000  0  5G11G16G25G 1G20
  23456869.841   -10350874.00549  -8057546.39446  23456869.317    23456874.876
  22045228.561   -17508178.31849 -13631282.86647  22045227.847    22045232.664
  22412136.099   -15173144.18749 -11806565.48947  22412135.621    22412140.160
  21704815.100   -19341170.91949 -14896838.72547  21704814.380    21704819.948
  20558369.100   -25108281.83649 -19024712.63648  20558368.138    20558372.539
 04  4 21  3 41  0.0000000  0  5G11G16G25G 1G20
  23471868.874   -10272053.58549  -7996127.90646  23471868.303    23471873.872
  22032879.316   -17573073.75949 -13681850.70347  22032878.606    22032883.383
  22426904.691   -15095534.58449 -11746090.47547  22426904.227    22426908.786
  21696527.467   -19384722.67549 -14930775.13547  21696526.747    21696532.282
  20551202.949   -25145940.26649 -19054056.85648  20551201.979    20551206.373
 04  4 21  3 41 30.0000000  0  6G13G11G16G25G 1G20
  24638190.431    -3610792.43349  -2650765.87945  24638190.296    24638196.967
  23486888.298   -10193125.95049  -7934625.87246  23486887.756    23486893.255
  22020603.861   -17637581.79049 -13732116.66047  22020603.104    22020607.879
  22441698.134   -15017794.47649 -11685513.77347  22441697.656    22441702.230
  21688258.206   -19428177.88549 -14964636.31747  21688257.492    21688263.003
  20544124.388   -25183138.18949 -19083042.23648  20544123.429    20544127.802
 04  4 21  3 42  0.0000000  0  6G13G11G16G25G 1G20
  24623955.833    -3685596.31049  -2709054.51945  24623955.681    24623962.089
  23501930.873   -10114076.80549  -7873029.16546  23501930.342    23501935.846
  22008405.863   -17701682.45649 -13782065.18947  22008405.108    22008409.895
  22456519.297   -14939908.69949 -11624823.55647  22456518.836    22456523.402
  21680010.605   -19471519.33749 -14998408.85447  21680009.881    21680015.387
  20537137.122   -25219856.51349 -19111653.90548  20537136.147    20537140.543
 04  4 21  3 42 30.0000000  0  6G13G11G16G25G 1G20
  24609724.077    -3760384.40649  -2767330.78645  24609723.852    24609730.179
  23516995.764   -10034910.68549  -7811341.31746  23516995.183    23517000.762
  21996285.661   -17765374.58249 -13831695.37747  21996284.909    21996289.658
  22471367.527   -14861880.53449 -11564022.39647  22471367.086    22471371.667
  21671784.353   -19514748.37249 -15032093.79147  21671783.627    21671789.153
  20530241.160   -25256094.89749 -19139891.59448  20530240.170    20530244.584
 04  4 21  3 43  0.0000000  0  6G13G11G16G25G 1G20
  24595495.011    -3835158.38349  -2825596.13845  24595494.674    24595500.840
  23532081.982    -9955632.06749  -7749565.79246  23532081.400    23532087.074
  21984243.358   -17828657.37249 -13881006.60247  21984242.576    21984247.328
  22486242.267   -14783713.43749 -11503112.96647  22486241.829    22486246.349
  21663579.188   -19557866.56649 -15065692.35647  21663578.457    21663584.018
  20523436.555   -25291853.17349 -19167755.17348  20523435.581    20523439.981
 04  4 21  3 43 30.0000000  0  6G13G11G16G25G 1G20
  24581268.403    -3909918.96049  -2883851.00645  24581268.062    24581274.070
  23547188.982    -9876244.32049  -7687705.24546  23547188.341    23547194.140
  21972279.256   -17891528.62649 -13929997.14447  21972278.548    21972283.263
  22501142.875   -14705410.11249 -11442097.39647  22501142.433    22501146.987
  21655394.984   -19600874.47349 -15099204.98347  21655394.243    21655399.824
  20516723.623   -25327129.87849 -19195243.50948  20516722.638    20516727.028
 04  4 21  3 44  0.0000000  0  6G13G11G16G25G 1G20
  24567044.135    -3984666.43649  -2942095.64345  24567044.019    24567050.097
  23562316.144    -9796750.70049  -7625762.19646  23562315.509    23562321.287
  21960393.963   -17953986.06349 -13978665.23847  21960393.266    21960397.941
  22516069.088   -14626972.66249 -11380977.30747  22516068.610    22516073.142
  21647231.774   -19643772.32549 -15132631.85747  21647231.054    21647236.619
  20510102.585   -25361923.67949 -19222355.54948  20510101.582    20510105.980
 04  4 21  3 44 30.0000000  0  6G13G11G16G25G 1G20
  24552822.223    -4059401.76649  -3000330.86245  24552821.966    24552828.255
  23577462.696    -9717154.78049  -7563739.42446  23577462.092    23577467.890
  21948587.796   -18016027.86349 -14027009.45347  21948587.089    21948591.729
  22531020.265   -14548403.91649 -11319754.91047  22531019.739    22531024.279
  21639089.438   -19686560.64249 -15165973.37447  21639088.681    21639094.231
  20503573.652   -25396233.42549 -19249090.39948  20503572.652    20503577.033
 04  4 21  3 45  0.0000000  0  6G13G11G16G25G 1G20
  24538602.890    -4134124.53049  -3058556.31145  24538602.727    24538608.871
  23592628.347    -9637458.86349  -7501638.74846  23592627.744    23592633.551
  21936861.299   -18077650.84149 -14075027.31847  21936860.597    21936865.176
  22545996.146   -14469705.04949 -11258431.11847  22545995.652    22546000.179
  21630968.002   -19729238.84549 -15199229.08947  21630967.253    21630972.800
  20497137.312   -25430056.53649 -19275446.06048  20497136.318    20497140.702
 04  4 21  3 45 30.0000000  0  6G13G11G16G25G 1G20
  24524385.799    -4208834.93549  -3116772.14145  24524385.701    24524391.903
  23607812.470    -9557665.90149  -7439462.43846  23607811.862    23607817.627
  21925215.007   -18138852.50949 -14122716.88247  21925214.270    21925218.872
  22560996.405   -14390878.09549 -11197007.51947  22560995.927    22561000.488
  21622867.463   -19771807.10849 -15232399.14547  21622866.741    21622872.281
  20490793.833   -25463391.73949 -19301421.53248  20490792.859    20490797.226
 04  4 21  3 46  0.0000000  0  6G13G11G16G25G 1G20
  24510170.976    -4283533.64749  -3174978.85844  24510170.952    24510177.260
  23623014.378    -9477779.41249  -7377213.24546  23623013.818    23623019.516
  21913649.216   -18199630.91349 -14170076.63547  21913648.507    21913653.131
  22576020.597   -14311925.41249 -11135485.95347  22576020.137    22576024.678
  21614787.801   -19814265.87849 -15265483.86647  21614787.064    21614792.654
  20484543.462   -25496237.67949 -19327015.75548  20484542.476    20484546.842
 04  4 21  3 46 30.0000000  0  6G13G11G16G25G 1G20
  24495958.543    -4358220.28649  -3233176.13745  24495958.481    24495964.989
  23638233.571    -9397802.05249  -7314893.25946  23638233.042    23638238.723
  21902164.542   -18259983.27749 -14217104.40147  21902163.838    21902168.432
  22591068.402   -14232848.73449 -11073867.77047  22591067.919    22591072.463
  21606729.080   -19856614.45149 -15298482.72347  21606728.333    21606733.947
  20478386.637   -25528592.07449 -19352226.96048  20478385.649    20478390.008
 04  4 21  3 47  0.0000000  0  6G13G11G16G25G 1G20
  24481748.526    -4432894.94149  -3291364.13545  24481748.439    24481754.526
  23653469.651    -9317736.32249  -7252504.38346  23653469.064    23653474.725
  21890761.395   -18319906.99949 -14263798.16747  21890760.672    21890765.268
  22606139.476   -14153649.80949 -11012154.31847  22606138.976    22606143.515
  21598691.322   -19898852.88849 -15331395.76647  21598690.588    21598696.224
  20472323.577   -25560453.47749 -19377054.02048  20472322.576    20472326.940
 04  4 21  3 47 30.0000000  0  6G13G11G16G25G 1G20
  24467540.404    -4507557.61249  -3349542.73445  24467540.313    24467546.485
  23668721.996    -9237585.09549  -7190048.91146  23668721.305    23668727.047
  21879440.274   -18379399.61549 -14310156.00947  21879439.559    21879444.115
  22621233.385   -14074330.50249 -10950347.06547  22621232.936    22621237.501
  21590674.607   -19940981.05649 -15364222.88447  21590673.867    21590679.483
  20466354.681   -25591819.96649 -19401495.43048  20466353.708    20466358.082
 04  4 21  3 48  0.0000000  0  6G13G11G16G25G 1G20
  24453334.940    -4582208.48449  -3407712.17445  24453334.939    24453340.568
  23683989.943    -9157351.36549  -7127529.15546  23683989.316    23683995.021
  21868201.681   -18438458.59949 -14356175.96347  21868200.950    21868205.491
  22636349.891   -13994892.75049 -10888447.51647  22636349.411    22636353.964
  21582678.897   -19982998.88749 -15396964.02147  21582678.133    21582683.736
  20460480.324   -25622689.89949 -19425549.91048  20460479.355    20460483.727
 04  4 21  3 48 30.0000000  0  6G13G11G16G25G 1G20
  24439131.469    -4656847.67549  -3465872.50045  24439131.292    24439137.058
  23699273.084    -9077037.70849  -7064947.10745  23699272.505    23699278.232
  21857046.056   -18497081.54449 -14401856.15047  21857045.333    21857049.849
  22651488.663   -13915338.10749 -10826456.89246  22651488.151    22651492.704
  21574704.185   -20024906.13649 -15429618.99547  21574703.434    21574709.019
  20454700.833   -25653061.46349 -19449216.05048  20454699.846    20454704.202
 04  4 21  3 49  0.0000000  0  6G13G11G16G25G 1G20
  24424930.426    -4731474.37149  -3524023.09245  24424930.173    24424936.326
  23714571.010    -8996646.51249  -7002304.64945  23714570.474    23714576.220
  21845974.001   -18555265.23949 -14447194.06547  21845973.307    21845977.811
  22666649.315   -13835668.29349 -10764376.51546  22666648.785    22666653.350
  21566750.642   -20066702.16049 -15462187.29347  21566749.910    21566755.490
  20449016.571   -25682932.47249 -19472492.14748  20449015.561    20449019.904
 04  4 21  3 49 30.0000000  0  6G13G11G16G25G 1G20
  24410731.457    -4806089.44749  -3582164.63745  24410731.183    24410737.507
  23729882.994    -8916181.32249  -6939604.51045  23729882.474    23729888.216
  21834985.938   -18613007.85749 -14492188.28247  21834985.244    21834989.714
  22681831.413   -13755885.36749 -10702208.00646  22681830.935    22681835.531
  21558818.206   -20108387.38349 -15494669.25447  21558817.481    21558823.024
  20443427.750   -25712301.79549 -19495377.31948  20443426.740    20443431.089
 04  4 21  3 50  0.0000000  0  6G13G11G16G25G 1G20
  24396534.962    -4880692.30149  -3640296.60445  24396534.840    24396541.190
  23745208.677    -8835644.40949  -6876848.48945  23745208.164    23745213.939
  21824082.385   -18670306.39149 -14536836.45547  21824081.673    21824086.136
  22697034.855   -13675990.65949 -10639952.38646  22697034.380    22697039.001
  21550906.982   -20149961.14949 -15527064.37047  21550906.248    21550911.756
  20437934.778   -25741167.40749 -19517869.98848  20437933.783    20437938.136
 04  4 21  3 50 30.0000000  0  6G13G11G16G25G 1G20
  24382340.758    -4955283.46949  -3698419.52945  24382340.607    24382346.776
  23760547.374    -8755039.02249  -6814039.12145  23760546.906    23760552.694
  21813263.653   -18727159.11249 -14581137.24947  21813262.932    21813267.395
  22712259.122   -13595986.34249 -10577611.37046  22712258.611    22712263.269
  21543016.929   -20191423.65949 -15559372.78747  21543016.190    21543021.671
  20432537.918   -25769528.14449 -19539969.25448  20432536.909    20432541.252
 04  4 21  3 51  0.0000000  0  6G13G11G16G25G 1G20
  24368148.598    -5029863.40549  -3756533.64045  24368148.512    24368154.610
  23775898.547    -8674368.35349  -6751178.86445  23775898.048    23775903.792
  21802530.207   -18783563.74549 -14625088.87547  21802529.463    21802533.919
  22727503.836   -13515874.85649 -10515186.83646  22727503.327    22727508.006
  21535148.021   -20232774.99249 -15591594.57547  21535147.288    21535152.754
  20427237.386   -25797382.48649 -19561673.92748  20427236.389    20427240.720
 04  4 21  3 51 30.0000000  0  6G13G11G16G25G 1G20
  24353958.745    -5104431.63449  -3814638.65745  24353958.645    24353964.432
  23791261.714    -8593634.55449  -6688269.43546  23791261.223    23791267.023
  21791882.517   -18839517.46649 -14668689.14147  21791881.794    21791886.240
  22742768.659   -13435657.65049 -10452679.93446  22742768.129    22742772.878
  21527300.352   -20274014.64549 -15623729.34747  21527299.650    21527305.080
  20422033.596   -25824728.58549 -19582982.56748  20422032.611    20422036.917
 04  4 21  3 52  0.0000000  0  6G13G11G16G25G 1G20
  24339771.131    -5178987.63449  -3872734.12545  24339771.027    24339776.956
  23806636.417    -8512840.31649  -6625312.91546  23806635.879    23806641.648
  21781321.172   -18895017.70849 -14711936.05947  21781320.446    21781324.848
  22758053.384   -13355335.71049 -10390091.41246  22758052.898    22758057.610
  21519474.033   -20315142.11649 -15655776.70547  21519473.329    21519478.753
  20416926.930   -25851564.32449 -19603893.53148  20416925.956    20416930.264
 04  4 21  3 52 30.0000000  0  6G13G11G16G25G 1G20
  24325585.739    -5253532.15749  -3930820.64645  24325585.518    24325591.518
  23822022.048    -8431988.79549  -6562311.75446  23822021.457    23822027.243
  21770846.502   -18950062.15849 -14754827.80847  21770845.777    21770850.187
  22773357.667   -13274911.30849 -10327423.05646  22773357.163    22773361.863
  21511669.091   -20356157.29549 -15687736.55747  21511668.382    21511673.786
  20411917.603   -25877888.39649 -19624405.79148  20411916.614    20411920.928
 04  4 21  3 53  0.0000000  0  6G13G11G16G25G 1G20
  24311402.610    -5328064.64049  -3988897.80345  24311402.347    24311408.341
  23837418.029    -8351082.22649  -6499267.69745  23837417.480    23837423.224
  21760459.098   -19004648.30649 -14797362.44747  21760458.388    21760462.766
  22788681.135   -13194385.85949 -10264675.96446  22788680.664    22788685.333
  21503885.613   -20397059.83549 -15719608.63947  21503884.900    21503890.261
  20407006.005   -25903698.88149 -19644517.85648  20407005.024    20407009.331
 04  4 21  3 53 30.0000000  0  6G13G11G16G25G 1G20
  24297221.792    -5402585.17849  -4046965.62445  24297221.524    24297227.483
  23852823.957    -8270123.58449  -6436183.07245  23852823.384    23852829.140
  21750159.381   -19058773.75549 -14839538.09247  21750158.639    21750163.053
  22804023.515   -13113761.14049 -10201851.50946  22804023.043    22804027.685
  21496123.630   -20437849.42849 -15751392.70747  21496122.914    21496128.235
  20402192.469   -25928994.31249 -19664228.57148  20402191.467    20402195.778
 04  4 21  3 54  0.0000000  0  6G13G11G16G25G 1G20
  24283043.190    -5477093.76349  -4105024.15545  24283043.040    24283048.851
  23868239.250    -8189115.72049  -6373060.09145  23868238.672    23868244.469
  21739947.640   -19112436.27949 -14881353.01347  21739946.968    21739951.392
  22819384.365   -13033039.20749 -10138951.30846  22819383.909    22819388.545
  21488383.124   -20478526.06049 -15783088.76047  21488382.392    21488387.685
  20397477.164   -25953773.39049 -19683536.93548  20397476.161    20397480.479
 04  4 21  3 54 30.0000000  0  6G13G11G16G25G 1G20
  24268866.887    -5551590.09749  -4163073.11845  24268866.684    24268872.592
  23883663.510    -8108060.94049  -6309900.53645  23883662.934    23883668.658
  21729824.570   -19165633.26749 -14922805.17547  21729823.886    21729828.297
  22834763.548   -12952221.18249 -10075976.22546  22834763.102    22834767.711
  21480664.215   -20519089.22549 -15814696.39547  21480663.496    21480668.745
  20392860.479   -25978034.01449 -19702441.30148  20392859.497    20392863.810
 04  4 21  3 55  0.0000000  0  6G13G11G16G25G 1G20
  24254692.986    -5626074.85349  -4221113.06645  24254692.696    24254698.490
  23899095.975    -8026963.08149  -6246707.42145  23899095.361    23899101.071
  21719790.439   -19218363.13949 -14963893.34547  21719789.742    21719794.123
  22850160.553   -12871309.51449 -10012928.17946  22850160.084    22850164.703
  21472966.838   -20559539.29549 -15846215.90647  21472966.105    21472971.346
  20388342.614   -26001775.50549 -19720941.15748  20388341.635    20388345.966
 04  4 21  3 55 30.0000000  0  6G13G11G16G25G 1G20
  24240521.184    -5700547.93549  -4279143.93845  24240520.877    24240526.603
  23914536.173    -7945824.42049  -6183482.51345  23914535.541    23914541.258
  21709845.648   -19270623.33849 -15004615.54747  21709844.927    21709849.284
  22865574.989   -12790305.87149  -9949808.46946  22865574.512    22865579.196
  21465291.016   -20599875.92949 -15877647.02747  21465290.289    21465295.496
  20383923.828   -26024996.14649 -19739035.15348  20383922.854    20383927.204
 04  4 21  3 56  0.0000000  0  6G13G11G16G25G 1G20
  24226351.539    -5775008.67949  -4337165.16845  24226351.267    24226357.037
  23929983.729    -7864647.24449  -6120227.59845  23929983.097    23929988.719
  21699990.786   -19322410.86949 -15044969.43747  21699990.060    21699994.425
  22881006.864   -12709211.08849  -9886617.73246  22881006.379    22881011.058
  21457636.984   -20640098.06449 -15908988.92947  21457636.248    21457641.478
  20379604.591   -26047693.81849 -19756721.64748  20379603.624    20379607.974
 04  4 21  3 56 30.0000000  0  6G13G11G16G25G 1G20
  24212184.340    -5849457.01549  -4395176.74945  24212184.154    24212189.924
  23945437.912    -7783434.29849  -6056944.78745  23945437.280    23945443.107
  21690226.211   -19373723.96249 -15084953.62947  21690225.459    21690229.835
  22896455.598   -12628027.40349  -9823357.73146  22896455.114    22896459.840
  21450004.715   -20680205.66949 -15940241.57447  21450003.991    21450009.210
  20375385.117   -26069867.40649 -19773999.76248  20375384.135    20375388.499
 04  4 21  3 57  0.0000000  0  6G13G11G16G25G 1G20
  24198019.503    -5923893.45149  -4453179.03545  24198019.241    24198025.125
  23960898.522    -7702188.55649  -5993636.46345  23960897.915    23960903.636
  21680552.249   -19424560.56449 -15124566.52547  21680551.537    21680555.896
  22911920.905   -12546756.88349  -9760030.05246  22911920.428    22911925.119
  21442394.264   -20720198.73849 -15971404.97047  21442393.550    21442398.764
  20371265.601   -26091515.52949 -19790868.41848  20371264.647    20371269.002
 04  4 21  3 57 30.0000000  0  6G13G11G16G25G 1G20
  24183857.014    -5998317.82449  -4511171.95045  24183856.694    24183862.446
  23976364.765    -7620912.62449  -5930304.59945  23976364.109    23976369.914
  21670969.448   -19474918.35249 -15163806.32047  21670968.741    21670973.105
  22927402.437   -12465400.81549  -9696635.72446  22927401.930    22927406.661
  21434805.680   -20760076.92849 -16002478.85747  21434804.953    21434810.175
  20367246.367   -26112636.80549 -19807326.54948  20367245.389    20367249.744
 04  4 21  3 58  0.0000000  0  6G13G11G16G25G 1G20
  24169696.778    -6072729.85249  -4569155.24445  24169696.538    24169702.295
  23991836.195    -7539609.59749  -5866951.60345  23991835.607    23991841.397
  21661478.264   -19524794.82149 -15202671.06847  21661477.551    21661481.892
  22942899.991   -12383960.49349  -9633175.73246  22942899.551    22942904.242
  21427239.041   -20799839.76049 -16033462.85847  21427238.292    21427243.515
  20363327.663   -26133229.50949 -19823372.80748  20363326.682    20363331.031
 04  4 21  3 58 30.0000000  0  6G13G11G16G25G 1G20
  24155538.928    -6147129.62849  -4627129.00545  24155538.679    24155544.210
  24007312.265    -7458282.24949  -5803579.67045  24007311.733    24007317.428
  21652078.961   -19574188.14649 -15241159.33847  21652078.278    21652082.619
  22958413.242   -12302437.96849  -9569651.69546  22958412.801    22958417.531
  21419694.357   -20839487.19549 -16064356.94247  21419693.625    21419698.843
  20359509.804   -26153292.49849 -19839006.29848  20359508.825    20359513.154
 04  4 21  3 59  0.0000000  0  6G13G11G16G25G 1G20
  24141383.327    -6221516.84449  -4685092.97845  24141383.297    24141388.685
  24022792.583    -7376932.68649  -5740190.41745  24022791.957    24022797.639
  21642772.098   -19623095.72849 -15279269.11247  21642771.411    21642775.732
  22973941.834   -12220834.81849  -9506064.82846  22973941.361    22973946.131
  21412171.728   -20879018.59049 -16095160.60947  21412170.983    21412176.214
  20355793.077   -26172824.01449 -19854225.66048  20355792.098    20355796.411
 04  4 21  3 59 30.0000000  0  6G13G11G16G25G 1G20
  24127230.221    -6295891.93049  -4743047.49745  24127230.117    24127235.419
  24038276.516    -7295564.32349  -5676786.50245  24038275.838    24038281.527
  21633558.015   -19671515.99849 -15316999.15847  21633557.290    21633561.641
  22989485.382   -12139153.01549  -9442416.67446  22989484.901    22989489.678
  21404671.202   -20918434.06149 -16125873.93347  21404670.465    21404675.714
  20352177.692   -26191823.08049 -19869030.11448  20352176.711    20352181.009
 04  4 21  4  0  0.0000000  0  6G13G11G16G25G 1G20
  24113079.468    -6370254.32649  -4800992.11645  24113079.243    24113084.593
  24053763.606    -7214179.40049  -5613369.69045  24053762.896    24053768.507
  21624437.088   -19719446.34849 -15354347.45747  21624436.394    21624440.768
  23005043.659   -12057393.64949  -9378708.09546  23005043.210    23005048.008
  21397192.807   -20957732.97449 -16156496.43947  21397192.082    21397197.352
  20348663.885   -26210288.16149 -19883418.48348  20348662.904    20348667.215
 04  4 21  4  0 30.0000000  0  6G13G11G16G25G 1G20
  24098931.068    -6444604.45549  -4858927.21245  24098930.748    24098936.153
  24069253.273    -7132781.04549  -5549942.40045  24069252.574    24069258.237
  21615409.730   -19766885.09149 -15391312.67247  21615409.074    21615413.460
  23020616.263   -11975558.87849  -9314940.74746  23020615.839    23020620.609
  21389736.618   -20996915.46949 -16187028.22947  21389735.884    21389741.136
  20345251.842   -26228218.31149 -19897390.02548  20345250.906    20345255.235
 04  4 21  4  1  0.0000000  0  6G13G11G16G25G 1G20
  24084784.901    -6518942.11749  -4916852.58045  24084784.640    24084790.072
  24084744.960    -7051371.73849  -5486506.59645  24084744.298    24084750.043
  21606476.378   -19813830.01049 -15427893.09247  21606475.698    21606480.079
  23036203.013   -11893650.09249  -9251115.71946  23036202.579    23036207.317
  21382302.687   -21035980.87849 -16217468.78847  21382301.960    21382307.210
  20341941.939   -26245612.02849 -19910943.56548  20341940.977    20341945.333
 04  4 21  4  1 30.0000000  0  6G13G11G16G25G 1G20
  24070641.272    -6593266.80149  -4974767.82545  24070640.922    24070646.483
  24100238.296    -6969954.04349  -5423064.25745  24100237.632    24100243.334
  21597637.448   -19860278.83749 -15464086.95247  21597636.767    21597641.132
  23051803.559   -11811668.54249  -9187234.00746  23051803.149    23051807.896
  21374891.182   -21074928.70549 -16247817.72247  21374890.441    21374895.663
  20338734.354   -26262467.93049 -19924078.02648  20338733.388    20338737.746
 04  4 21  4  2  0.0000000  0  6G13G11G16G25G 1G20
  24056500.078    -6667578.66449  -5032673.09645  24056499.852    24056505.303
  24115732.673    -6888530.61149  -5359617.44345  24115732.047    24115737.748
  21588893.285   -19906229.65949 -15499892.75247  21588892.591    21588896.927
  23067417.681   -11729615.98649  -9123296.95446  23067417.210    23067421.968
  21367502.104   -21113758.50749 -16278074.68247  21367501.367    21367506.584
  20335629.412   -26278784.58949 -19936792.30748  20335628.457    20335632.784
 04  4 21  4  2 30.0000000  0  6G13G11G16G25G 1G20
  24042361.417    -6741877.64349  -5090568.30945  24042361.110    24042366.624
  24131227.550    -6807104.20149  -5296168.32745  24131226.939    24131232.727
  21580244.310   -19951680.03749 -15535308.58947  21580243.628    21580247.955
  23083044.885   -11647494.39049  -9059306.10646  23083044.421    23083049.182
  21360135.520   -21152469.95949 -16308239.41347  21360134.776    21360140.000
  20332627.352   -26294560.57049 -19949085.28148  20332626.376    20332630.692
 04  4 21  4  3  0.0000000  0  6G13G11G16G25G 1G20
  24028225.227    -6816163.28249  -5148453.14945  24028225.006    24028230.405
  24146722.582    -6725677.41749  -5232718.89945  24146721.972    24146727.805
  21571690.935   -19996628.16249 -15570333.07347  21571690.260    21571694.559
  23098685.060   -11565304.73149  -8995262.22446  23098684.603    23098689.317
  21352791.535   -21191062.74249 -16338311.69147  21352790.801    21352796.011
  20329728.402   -26309794.80549 -19960956.11848  20329727.423    20329731.717
 04  4 21  4  3 30.0000000  0  6G13G11G16G25G 1G20
  24014091.592    -6890435.73949  -5206327.68845  24014091.351    24014096.747
  24162217.112    -6644252.87049  -5169271.21645  24162216.575    24162222.355
  21563233.541   -20041071.96849 -15604964.57547  21563232.884    21563237.150
  23114337.803   -11483048.91449  -8931166.79346  23114337.357    23114342.078
  21345470.266   -21229536.20149 -16368290.98847  21345469.539    21345474.742
  20326932.803   -26324485.77349 -19972403.62848  20326931.808    20326936.115
 04  4 21  4  4  0.0000000  0  6G13G11G16G25G 1G20
  23999960.446    -6964694.62949  -5264191.67645  23999960.263    23999965.537
  24177710.777    -6562833.33249  -5105827.44145  24177710.180    24177715.999
  21554872.540   -20085009.29249 -15639201.42047  21554871.873    21554876.125
  23130002.989   -11400728.03449  -8867020.66646  23130002.543    23130007.241
  21338171.725   -21267889.94349 -16398176.99847  21338171.002    21338176.203
  20324240.751   -26338632.42549 -19983426.99448  20324239.782    20324244.072
 04  4 21  4  4 30.0000000  0  6G13G11G16G25G 1G20
  23985831.873    -7038940.11749  -5322045.22245  23985831.804    23985836.970
  24193202.988    -6481421.30949  -5042389.50245  24193202.395    24193208.157
  21546608.202   -20128438.49049 -15673042.31747  21546607.534    21546611.765
  23145680.146   -11318344.04049  -8802825.35446  23145679.689    23145684.351
  21330896.023   -21306123.94449 -16427969.70747  21330895.299    21330900.496
  20321652.510   -26352233.95149 -19994025.58348  20321651.543    20321655.813
 04  4 21  4  5  0.0000000  0  6G13G11G16G25G 1G20
  23971705.977    -7113172.50749  -5379888.55145  23971705.814    23971711.029
  24208693.245    -6400019.94349  -4978959.87145  24208692.610    24208698.312
  21538440.911   -20171357.86449 -15706485.95247  21538440.218    21538444.432
  23161369.041   -11235898.84649  -8738582.35946  23161368.568    23161373.194
  21323643.068   -21344238.31549 -16457669.19047  21323642.340    21323647.533
  20319168.112   -26365289.51949 -20004198.74948  20319167.133    20319171.396
 04  4 21  4  5 30.0000000  0  6G13G11G16G25G 1G20
  23957582.556    -7187391.34249  -5437721.34645  23957582.420    23957587.383
  24224180.749    -6318632.28849  -4915540.93945  24224180.219    24224185.918
  21530370.996   -20213765.53249 -15739530.85147  21530370.285    21530374.491
  23177069.177   -11153394.13649  -8674292.97546  23177068.709    23177073.314
  21316413.002   -21382232.40249 -16487274.94647  21316412.265    21316417.450
  20316787.878   -26377797.77249 -20013945.43548  20316786.911    20316791.163
 04  4 21  4  6  0.0000000  0  6G13G11G16G25G 1G20
  23943461.847    -7261596.19649  -5495543.20345  23943461.736    23943466.766
  24239665.388    -6237260.00549  -4852133.98945  24239664.809    24239670.627
  21522398.895   -20255659.03049 -15772175.09547  21522398.184    21522402.414
  23192780.550   -11070830.62849  -8609957.78146  23192780.063    23192784.628
  21309206.047   -21420105.17249 -16516786.17247  21309205.294    21309210.479
  20314512.055   -26389757.23849 -20023264.49448  20314511.067    20314515.354
 04  4 21  4  6 30.0000000  0  6G13G11G16G25G 1G20
  23929343.625    -7335787.23949  -5553354.33045  23929343.500    23929348.517
  24255146.480    -6155906.06049  -4788741.31545  24255145.932    24255151.760
  21514524.910   -20297036.93049 -15804417.58447  21514524.215    21514528.410
  23208502.640   -10988210.52749  -8545578.49246  23208502.159    23208506.701
  21302022.129   -21457856.75149 -16546202.97047  21302021.388    21302026.555
  20312340.847   -26401166.87649 -20032155.11348  20312339.870    20312344.177
 04  4 21  4  7  0.0000000  0  6G13G11G16G25G 1G20
  23915228.220    -7409963.81849  -5611154.18145  23915228.082    23915233.140
  24270623.697    -6074572.87449  -4725364.81445  24270623.137    24270629.021
  21506749.479   -20337897.03949 -15836256.59647  21506748.778    21506752.966
  23224235.276   -10905534.89149  -8481155.92146  23224234.857    23224239.328
  21294861.429   -21495486.38249 -16575524.73747  21294860.695    21294865.863
  20310274.522   -26412025.39149 -20040616.29748  20310273.560    20310277.868
 04  4 21  4  7 30.0000000  0  6G13G11G16G25G 1G20
  23901115.502    -7484125.79549  -5668942.64345  23901115.462    23901120.572
  24286096.411    -5993262.85349  -4662006.39145  24286095.975    24286101.859
  21499072.956   -20378237.27449 -15867690.51147  21499072.262    21499076.462
  23239978.265   -10822805.19549  -8416691.22846  23239977.768    23239982.288
  21287724.036   -21532993.44849 -16604750.99247  21287723.296    21287728.481
  20308313.323   -26422331.69449 -20048647.18448  20308312.348    20308316.678
 04  4 21  4  8  0.0000000  0  6G13G11G16G25G 1G20
  23887005.663    -7558273.68349  -5726720.14045  23887005.501    23887010.598
  24301564.238    -5911979.46049  -4598668.70945  24301563.667    24301569.514
  21491495.608   -20418056.43249 -15898718.39147  21491494.908    21491499.091
  23255731.109   -10740023.49449  -8352186.01046  23255730.673    23255735.101
  21280609.916   -21570378.05549 -16633881.82947  21280609.191    21280614.398
  20306457.283   -26432085.19749 -20056247.31348  20306456.323    20306460.647
 04  4 21  4  8 30.0000000  0  6G13G11G16G25G 1G20
  23872898.484    -7632407.00049  -5784486.26245  23872898.237    23872903.400
  24317026.360    -5830725.03349  -4535353.59745  24317025.862    24317031.725
  21484017.764   -20457352.58649 -15929338.74247  21484017.075    21484021.275
  23271493.698   -10657190.75749  -8287641.02146  23271493.220    23271497.638
  21273519.250   -21607639.57549 -16662916.76447  21273518.530    21273523.747
  20304706.626   -26441284.86849 -20063415.88548  20304705.665    20304709.994
 04  4 21  4  9  0.0000000  0  6G13G11G16G25G 1G20
  23858794.112    -7706525.24649  -5842240.66445  23858793.890    23858799.057
  24332482.661    -5749501.74849  -4472062.74945  24332482.133    24332488.070
  21476639.856   -20496123.52549 -15959549.83647  21476639.182    21476643.356
  23287265.810   -10574308.40449  -8223057.38046  23287265.212    23287269.675
  21266452.118   -21644777.43249 -16691855.33847  21266451.412    21266456.616
  20303061.640   -26449929.30349 -20070151.80148  20303060.674    20303065.006
 04  4 21  4  9 30.0000000  0  6G13G11G16G25G 1G20
  23844692.681    -7780628.74649  -5899983.55845  23844692.462    23844697.535
  24347932.510    -5668312.56049  -4408798.47745  24347931.798    24347937.870
  21469362.234   -20534367.67949 -15989350.44647  21469361.540    21469365.721
  23303046.838   -10491378.34449  -8158436.54246  23303046.296    23303050.677
  21259408.604   -21681791.32349 -16720697.31047  21259407.878    21259413.081
  20301522.461   -26458017.78249 -20076454.51148  20301521.469    20301525.814
 04  4 21  4 10  0.0000000  0  6G13G11G16G25G 1G20
  23830593.920    -7854717.38249  -5957714.85745  23830593.713    23830598.920
  24363375.357    -5587160.04549  -4345562.76345  24363374.617    24363380.691
  21462185.124   -20572083.64749 -16018739.48047  21462184.449    21462188.609
  23318836.731   -10408401.64349  -8093779.38346  23318836.236    23318840.688
  21252388.768   -21718680.70449 -16749442.26047  21252388.038    21252393.263
  20300089.269   -26465549.30149 -20082323.22348  20300088.291    20300092.598
 04  4 21  4 10 30.0000000  0  6G13G11G16G25G 1G20
  23816498.310    -7928790.23549  -6015433.89245  23816498.051    23816503.223
  24378810.690    -5506046.67849  -4282357.56545  24378810.080    24378816.003
  21455108.869   -20609269.48249 -16047715.42747  21455108.188    21455112.309
  23334635.269   -10325379.71349  -8029086.97646  23334634.768    23334639.226
  21245392.723   -21755444.94349 -16778089.69247  21245391.991    21245397.229
  20298762.224   -26472523.02649 -20087757.29048  20298761.240    20298765.545
 04  4 21  4 11  0.0000000  0  6G13G11G16G25G 1G20
  23802405.656    -8002847.35449  -6073140.66345  23802405.398    23802410.482
  24394238.243    -5424975.05849  -4219184.90445  24394237.530    24394243.448
  21448133.867   -20645923.29249 -16076276.81447  21448133.186    21448137.280
  23350442.103   -10242314.01549  -7964360.45646  23350441.596    23350446.119
  21238420.640   -21792083.54249 -16806639.21847  21238419.898    21238425.122
  20297541.481   -26478937.92949 -20092755.91948  20297540.515    20297544.808
 04  4 21  4 11 30.0000000  0  6G13G11G16G25G 1G20
  23788315.941    -8076889.14149  -6130835.46945  23788315.711    23788320.793
  24409657.163    -5343948.14449  -4156047.09145  24409656.446    24409662.443
  21441260.297   -20682043.71749 -16104422.57247  21441259.625    21441263.736
  23366256.973   -10159206.47449  -7899601.33246  23366256.497    23366260.965
  21231472.439   -21828596.42249 -16835090.79447  21231471.698    21231476.912
  20296427.222   -26484793.35149 -20097318.58448  20296426.256    20296430.531
 04  4 21  4 12  0.0000000  0  6G13G11G16G25G 1G20
  23774229.293    -8150914.89549  -6188517.79445  23774229.044    23774234.101
  24425067.007    -5262968.38349  -4092945.99545  24425066.339    24425072.451
  21434488.588   -20717629.10349 -16132151.42247  21434487.923    21434492.038
  23382079.502   -10076058.13249  -7834810.42046  23382079.064    23382083.588
  21224548.357   -21864982.64449 -16863443.67747  21224547.631    21224552.833
  20295419.727   -26490087.95749 -20101444.25648  20295418.734    20295423.038
